     2.10           OBSERVATION DATA    G (GPS)             RINEX VERSION / TYPE
teqc 2000Jul20 Karen Wendt 20040728 22:37:35UTC             PGM / RUN BY / DATE
Linux 2.0.36|Pentium II|gcc -static|Linux|486/DX+           COMMENT
teqc 2000Jul20 Karen Wendt 20040728 22:37:35UTC             COMMENT
BIT 2 OF LLI FLAGS DATA COLLECTED UNDER A/S CONDITION       COMMENT
bear Bear_Ridge_2_1957_1981_NGS                             MARKER NAME
GDH USGS                                                    OBSERVER / AGENCY
04597 ASHTECH Z-XII3 CD00                                   REC # / TYPE / VERS
CR520031615 ASH701945E_M NONE                               ANT # / TYPE
 -2736969.0000 -4013076.0000  4120634.0000                  APPROX POSITION XYZ
        1.2299        0.0000        0.0000                  ANTENNA: DELTA H/E/N
     1     1                                                WAVELENGTH FACT L1/2
     5    C1    L1    L2    P1    P2                        # / TYPES OF OBSERV
    30.0000                                                 INTERVAL
                                                            COMMENT
National Earthquake Hazard Reduction Program                COMMENT
Crustal Strain Project                                      COMMENT
345 Middlefield Road, MS/977                                COMMENT
U.S. Geological Survey, Menlo Park, California 94025        COMMENT
Contact: kwendt@usgs.gov (Ph: 650-329-4866)                 COMMENT
Antenna height is vertical to base of antenna               COMMENT
                                                            COMMENT
SNR is mapped to RINEX snr flag value [1-9]                 COMMENT
L1: 1 -> 1; 90 -> 5; 210 -> 9                               COMMENT
L2: 1 -> 1; 150 -> 5; 250 -> 9                              COMMENT
  2004     7    23     0     0   30.0000000     GPS         TIME OF FIRST OBS
                                                            END OF HEADER
 04  7 23  0  0 30.0000000  0  8G 3G20G16G 8G 1G23G27G13
  23642368.808   -10969593.95549  -8533701.39445  23642368.329    23642378.666
  23984134.429    -7044932.65449  -5477566.44545  23984133.709    23984148.203
  23301112.151   -12418855.16749  -9661064.11546  23301111.646    23301119.182
  23484030.339    -7786812.29449  -5802775.47945  23484029.675    23484042.710
  22106104.220   -13206277.11349 -10277016.06747  22106103.713    22106112.551
  21170050.618   -19502222.11349 -14905440.29747  21170050.049    21170055.003
  21691820.987   -17563571.93449 -13661616.23047  21691820.515    21691829.362
  20330482.044   -28023798.91149 -21805799.31448  20330481.990    20330488.070
 04  7 23  0  1  0.0000000  0  8G 3G20G16G 8G 1G23G27G13
  23632534.388   -11021274.25449  -8573971.68245  23632533.867    23632544.006
  24005793.048    -6931117.04749  -5388879.37245  24005792.314    24005806.875
  23317690.654   -12331734.02749  -9593177.49346  23317690.159    23317697.745
  23468164.797    -7870185.21049  -5867741.17045  23468164.129    23468177.180
  22118950.780   -13138768.30949 -10224411.82947  22118950.239    22118959.085
  21180890.519   -19445258.50949 -14861053.08147  21180889.935    21180894.859
  21683428.539   -17607674.24849 -13695981.59747  21683428.065    21683436.890
  20326667.666   -28043843.54649 -21821418.48448  20326667.601    20326673.674
 04  7 23  0  1 30.0000000  0  8G 3G20G16G 8G 1G23G27G13
  23622773.186   -11072569.19549  -8613941.70845  23622772.686    23622782.835
  24027466.106    -6817225.94449  -5300133.46245  24027465.391    24027479.986
  23334327.837   -12244305.18949  -9525051.11546  23334327.341    23334334.958
  23452328.097    -7953407.14249  -5932589.24845  23452327.471    23452340.304
  22131849.807   -13070983.14149 -10171592.24147  22131849.270    22131858.210
  21191796.844   -19387945.77049 -14816393.81447  21191796.245    21191801.110
  21675073.035   -17651582.37749 -13730195.64747  21675072.560    21675081.376
  20322923.263   -28063520.59149 -21836751.22348  20322923.193    20322929.264
 04  7 23  0  2  0.0000000  0  8G 3G20G16G 8G 1G23G27G13
  23613085.852   -11123476.36149  -8653609.56145  23613085.242    23613095.464
  24049153.046    -6703262.18449  -5211330.95845  24049152.278    24049166.827
  23351023.026   -12156571.36049  -9456687.11746  23351022.484    23351030.114
  23436520.163    -8036477.94549  -5997319.53645  23436519.515    23436532.234
  22144801.359   -13002922.06049 -10118557.65347  22144800.823    22144809.781
  21202769.434   -19330284.36549 -14771462.86447  21202768.819    21202773.659
  21666754.463   -17695296.40549 -13764258.45647  21666753.998    21666762.767
  20319249.152   -28082828.10949 -21851796.02848  20319249.077    20319255.158
 04  7 23  0  2 30.0000000  0  8G 3G20G16G 8G 1G23G27G13
  23603472.556   -11173993.94749  -8692973.82945  23603471.916    23603482.222
  24070853.139    -6589229.17749  -5122474.48845  24070852.295    24070866.996
  23367775.593   -12068535.81949  -9388088.01146  23367775.056    23367782.769
  23420740.713    -8119397.99649  -6061932.35546  23420740.149    23420752.939
  22157805.356   -12934586.01749 -10065308.81647  22157804.811    22157813.753
  21213808.182   -19272275.10949 -14726260.85647  21213807.576    21213812.451
  21658472.619   -17738817.45349 -13798170.88747  21658472.152    21658480.927
  20315645.414   -28101765.73349 -21866552.59948  20315645.351    20315651.406
 04  7 23  0  3  0.0000000  0  8G 3G20G16G 8G 1G23G27G13
  23593934.221   -11224118.54749  -8732031.89545  23593933.589    23593943.934
  24092565.982    -6475128.92149  -5033565.60645  24092565.224    24092579.884
  23384585.276   -11980200.52849  -9319255.34046  23384584.699    23384592.490
  23404990.551    -8202165.64649  -6126426.42646  23404989.933    23405002.660
  22170861.649   -12865974.80149 -10011845.54647  22170861.082    22170870.034
  21224913.216   -19213917.86449 -14680787.69047  21224912.639    21224917.517
  21650227.618   -17782145.06449 -13831932.58747  21650227.150    21650235.905
  20312112.478   -28120331.46649 -21881019.36548  20312112.417    20312118.463
 04  7 23  0  3 30.0000000  0  8G 3G20G16G 8G 1G23G27G13
  23584470.818   -11273847.48249  -8770781.64345  23584470.331    23584480.790
  24114291.159    -6360963.78949  -4944606.18045  24114290.404    24114305.159
  23401451.529   -11891567.68649  -9250190.80646  23401450.973    23401458.799
  23389269.350    -8284780.16749  -6190801.17446  23389268.687    23389281.440
  22183970.267   -12797088.30249  -9958167.76647  22183969.737    22183978.769
  21236084.521   -19155212.65749 -14635043.38147  21236083.885    21236088.809
  21642019.456   -17825279.07549 -13865543.43147  21642018.982    21642027.711
  20308650.593   -28138523.63349 -21895195.03848  20308650.534    20308656.568
 04  7 23  0  4  0.0000000  0  8G 3G20G16G 8G 1G23G27G13
  23575083.114   -11323178.86849  -8809221.62745  23575082.661    23575093.237
  24136028.091    -6246737.24649  -4855598.88945  24136027.216    24136042.339
  23418373.911   -11802640.45749  -9180896.85646  23418373.257    23418381.076
  23373577.232    -8367242.41349  -6255057.28646  23373576.540    23373589.169
  22197131.128   -12727927.64449  -9904276.35347  22197130.556    22197139.624
  21247321.737   -19096160.50549 -14589028.72247  21247321.116    21247326.075
  21633847.908   -17868220.49449 -13899004.20447  21633847.429    21633856.165
  20305259.802   -28156342.26449 -21909079.64448  20305259.741    20305265.763
 04  7 23  0  4 30.0000000  0  8G 3G20G16G 8G 1G23G27G13
  23565771.756   -11372109.55849  -8847349.34945  23565771.436    23565781.840
  24157776.353    -6132451.37749  -4766545.36645  24157775.429    24157790.626
  23435351.727   -11713421.45149  -9111375.57246  23435351.113    23435358.920
  23357914.175    -8449551.47049  -6319194.01946  23357913.493    23357926.086
  22210344.192   -12658492.79549  -9850171.30147  22210343.629    22210352.669
  21258625.000   -19036761.41749 -14542743.72547  21258624.390    21258629.276
  21625713.070   -17910969.14549 -13932314.76647  21625712.581    21625721.299
  20301940.469   -28173785.21549 -21922671.51848  20301940.419    20301946.430
 04  7 23  0  5  0.0000000  0  8G 3G20G16G 8G 1G23G27G13
  23556537.097   -11420637.62849  -8885163.34545  23556536.739    23556546.999
  24179535.364    -6018109.16049  -4677447.94045  24179534.366    24179549.642
  23452384.553   -11623913.20749  -9041628.95545  23452384.002    23452391.645
  23342280.367    -8531707.06449  -6383211.15846  23342279.666    23342292.196
  22223609.337   -12588784.31849  -9795853.02247  22223608.776    22223617.812
  21269994.246   -18977015.97649 -14496188.84747  21269993.630    21269998.457
  21617614.852   -17953525.11149 -13965475.18947  21617614.377    21617623.056
  20298692.831   -28190851.34549 -21935969.76148  20298692.787    20298698.809
 04  7 23  0  5 30.0000000  0  8G 3G20G16G 8G 1G23G27G13
  23547379.656   -11468760.07049  -8922661.24945  23547379.258    23547389.543
  24201304.536    -5903713.02549  -4588308.49645  24201303.556    24201318.880
  23469472.095   -11534118.21149  -8971659.00645  23469471.533    23469479.091
  23326675.917    -8613708.33149  -6447108.03846  23326675.219    23326687.735
  22236926.389   -12518802.22349  -9741321.52547  22236925.866    22236935.003
  21281429.334   -18916924.02749 -14449363.94947  21281428.724    21281433.599
  21609553.293   -17995888.39049 -13998485.46547  21609552.818    21609561.493
  20295517.231   -28207539.09549 -21948973.15948  20295517.206    20295523.212
 04  7 23  0  6  0.0000000  0  8G 3G20G16G 8G 1G23G27G13
  23538299.915   -11516474.84449  -8959841.48645  23538299.534    23538309.650
  24223083.278    -5789266.08849  -4499129.47645  24223082.368    24223097.773
  23486613.735   -11444038.93249  -8901467.37245  23486613.237    23486620.707
  23311100.840    -8695555.07749  -6510884.50646  23311100.171    23311112.583
  22250295.470   -12448547.41049  -9686577.52347  22250294.941    22250304.059
  21292930.168   -18856486.57349 -14402269.82147  21292929.562    21292934.490
  21601528.380   -18038059.63049 -14031346.10647  21601527.893    21601536.505
  20292413.846   -28223847.49249 -21961680.95848  20292413.784    20292419.792
 04  7 23  0  6 30.0000000  0  8G 3G20G16G 8G 1G23G27G13
  23529298.227   -11563779.05349  -8996701.78945  23529297.776    23529307.943
  24244871.273    -5674770.41449  -4409912.49345  24244870.495    24244885.971
  23503808.977   -11353677.98549  -8831056.32645  23503808.452    23503815.811
  23295555.311    -8777246.76949  -6574540.14146  23295554.613    23295567.020
  22263716.499   -12378019.86049  -9631620.99947  22263715.930    22263724.989
  21304496.796   -18795703.60649 -14354906.47147  21304496.194    21304501.064
  21593540.029   -18080038.57249 -14064056.90947  21593539.514    21593548.085
  20289382.968   -28239774.98149 -21974091.94448  20289382.883    20289388.867
 04  7 23  0  7  0.0000000  0  8G 3G20G16G 8G 1G23G27G13
  23520374.915   -11610670.48649  -9033240.46845  23520374.504    23520384.780
  24266667.988    -5560229.34149  -4320660.13245  24266667.124    24266682.761
  23521057.267   -11263038.52349  -8760428.35945  23521056.591    23521063.966
  23280039.177    -8858783.27849  -6638074.85746  23280038.505    23280050.942
  22277189.116   -12307220.53249  -9576452.69047  22277188.583    22277197.650
  21316129.096   -18734576.09749 -14307274.64347  21316128.451    21316133.191
  21585588.057   -18121826.17649 -14096618.61647  21585587.559    21585596.095
  20286424.652   -28255320.94349 -21986205.63548  20286424.571    20286430.512
 04  7 23  0  7 30.0000000  0  8G 3G20G16G 8G 1G23G27G13
  23511530.689   -11657146.21549  -9069455.23145  23511530.247    23511540.798
  24288473.138    -5445644.67149  -4231373.82345  24288472.410    24288487.946
  23538358.151   -11172122.29949  -8689584.63945  23538357.434    23538364.862
  23264552.871    -8940163.77349  -6701488.02946  23264552.156    23264564.545
  22290713.602   -12236148.97149  -9521072.24146  22290713.050    22290722.165
  21327826.884   -18673103.62049 -14259374.00147  21327826.243    21327831.013
  21577672.628   -18163421.74049 -14129030.68047  21577672.119    21577680.651
  20283539.318   -28270483.41049 -21998020.49348  20283539.238    20283545.160
 04  7 23  0  8  0.0000000  0  8G 3G20G16G 8G 1G23G27G13
  23502766.220   -11703203.62849  -9105344.03545  23502765.774    23502776.346
  24310286.090    -5331019.07349  -4142055.62245  24310285.309    24310300.910
  23555711.120   -11080931.70849  -8618527.14545  23555710.461    23555717.929
  23249096.248    -9021387.64249  -6764779.15046  23249095.497    23249107.978
  22304289.761   -12164805.54549  -9465479.96346  22304289.252    22304298.415
  21339590.223   -18611286.46149 -14211204.76647  21339589.620    21339594.499
  21569793.751   -18204825.21649 -14161293.05947  21569793.273    21569801.816
  20280727.210   -28285260.87049 -22009535.34448  20280727.125    20280733.035
 04  7 23  0  8 30.0000000  0  8G 3G20G16G 8G 1G23G27G13
  23494081.637   -11748841.24349  -9140905.72846  23494081.166    23494091.735
  24332106.105    -5216355.90349  -4052708.15945  24332105.274    24332121.019
  23573115.680   -10989470.04849  -8547258.36345  23573115.002    23573122.579
  23233669.322    -9102455.53849  -6827948.73046  23233668.606    23233681.012
  22317917.539   -12093191.61849  -9409676.90446  22317916.978    22317926.094
  21351418.996   -18549125.91049 -14162767.95947  21351418.381    21351423.290
  21561951.198   -18246037.84049 -14193406.72947  21561950.712    21561959.236
  20277988.441   -28299653.05549 -22020749.97448  20277988.361    20277994.263
 04  7 23  0  9  0.0000000  0  9G 3G20G16G 8G19G 1G23G27G13
  23485477.264   -11794057.88749  -9176139.39246  23485476.792    23485487.161
  24353932.473    -5101658.94349  -3963334.36145  24353931.593    24353947.618
  23590571.000   -10897741.40349  -8475781.53645  23590570.318    23590578.056
  23218271.949    -9183367.73049  -6890996.97646  23218271.305    23218283.752
  24713882.050    -6642129.99749  -4710218.90145  24713880.817    24713894.121
  22331596.452   -12021308.65149  -9353664.19846  22331595.838    22331604.910
  21363312.773   -18486623.68249 -14114064.90447  21363312.157    21363317.063
  21554144.787   -18287060.69849 -14225372.53447  21554144.286    21554152.777
  20275323.004   -28313659.81849 -22031664.27448  20275322.936    20275328.827
 04  7 23  0  9 30.0000000  0  9G 3G20G16G 8G19G 1G23G27G13
  23476953.858   -11838848.86649  -9211041.36546  23476953.404    23476963.619
  24375765.181    -4986928.76449  -3873934.69345  24375764.359    24375780.493
  23608076.998   -10805745.99449  -8404096.85545  23608076.439    23608084.259
  23202904.856    -9264122.01749  -6953922.18346  23202904.214    23202916.593
  24698165.611    -6724718.87949  -4774573.46545  24698164.317    24698177.717
  22345326.798   -11949155.01949  -9297440.58046  22345326.193    22345335.226
  21375271.864   -18423778.10349 -14065094.30247  21375271.238    21375276.161
  21546374.790   -18327892.18249 -14257189.21847  21546374.276    21546382.744
  20272731.595   -28327277.57649 -22042275.45148  20272731.510    20272737.405
 04  7 23  0 10  0.0000000  0  9G 3G20G16G 8G19G 1G23G27G13
  23468511.745   -11883212.12049  -9245610.05746  23468511.328    23468521.468
  24397603.696    -4872168.00949  -3784511.21745  24397602.820    24397619.233
  23625633.390   -10713486.56149  -8332206.39245  23625632.805    23625640.682
  23187567.734    -9344718.12549  -7016724.12746  23187567.092    23187579.462
  24682459.576    -6807252.44049  -4838884.90045  24682458.351    24682471.517
  22359108.582   -11876731.18449  -9241006.40846  22359107.962    22359117.094
  21387296.134   -18360589.76449 -14015856.60447  21387295.523    21387300.461
  21538641.138   -18368532.45549 -14288856.90847  21538640.629    21538649.048
  20270214.310   -28340505.59049 -22052582.92548  20270214.233    20270220.137
 04  7 23  0 10 30.0000000  0  9G 3G20G16G 8G19G 1G23G27G13
  23460151.648   -11927144.98649  -9279843.38546  23460151.126    23460161.274
  24419447.499    -4757379.50049  -3695066.11945  24419446.678    24419463.419
  23643239.555   -10620965.70949  -8260112.22645  23643238.936    23643246.924
  23172260.854    -9425155.53649  -7079402.42646  23172260.198    23172272.530
  24666764.819    -6889727.51249  -4903150.75845  24666763.605    24666776.503
  22372941.623   -11804037.57649  -9184362.02546  22372941.055    22372950.284
  21399385.690   -18297058.80149 -13966351.91847  21399385.084    21399390.031
  21530943.877   -18408981.66249 -14320375.70747  21530943.358    21530951.770
  20267771.524   -28353342.18049 -22062585.39148  20267771.484    20267777.359
 04  7 23  0 11  0.0000000  0  9G 3G20G16G 8G19G 1G23G27G13
  23451873.668   -11970645.61349  -9313739.90746  23451873.136    23451883.343
  24441295.931    -4642565.88849  -3605601.48345  24441295.282    24441312.186
  23660894.935   -10528186.21249  -8187816.49645  23660894.333    23660902.384
  23156984.132    -9505434.53549  -7141957.27646  23156983.444    23156995.673
  24651081.862    -6972141.50749  -4967369.00145  24651080.572    24651093.208
  22386825.923   -11731075.10649  -9127508.13546  22386825.343    22386834.600
  21411540.299   -18233186.16649 -13916581.00247  21411539.650    21411544.569
  21523282.859   -18449240.28749 -14351745.99947  21523282.332    21523290.762
  20265403.379   -28365786.78249 -22072282.41548  20265403.323    20265409.169
 04  7 23  0 11 30.0000000  0  9G 3G20G16G 8G19G 1G23G27G13
  23443678.283   -12013711.88149  -9347297.98146  23443677.869    23443688.069
  24463148.438    -4527730.37049  -3516119.75845  24463148.015    24463165.318
  23678598.978   -10435151.04849  -8115321.51345  23678598.428    23678606.536
  23141737.668    -9585554.69549  -7204388.35946  23141736.969    23141749.152
  24635410.880    -7054491.84649  -5031537.63745  24635409.622    24635421.972
  22400761.243   -11657844.54649  -9070445.35946  22400760.696    22400769.847
  21423759.687   -18168972.74249 -13866544.53347  21423759.040    21423763.868
  21515658.007   -18489308.77449 -14382968.11947  21515657.500    21515665.937
  20263110.014   -28377838.37149 -22081673.18448  20263109.941    20263115.765
 04  7 23  0 12  0.0000000  0  9G 3G20G16G 8G19G 1G23G27G13
  23435566.232   -12056341.00349  -9380515.41146  23435565.786    23435575.981
  24485004.893    -4412875.18149  -3426622.69845  24485004.354    24485021.986
  23696351.365   -10341862.28749  -8042628.94445  23696350.738    23696358.815
  23126521.580    -9665514.99749  -7266694.88846  23126520.933    23126533.000
  24619752.389    -7136775.17549  -5095654.08045  24619751.152    24619763.536
  22414747.633   -11584345.85849  -9013173.63746  22414747.044    22414756.108
  21436043.814   -18104418.80449 -13816242.72047  21436043.196    21436047.994
  21508069.388   -18529186.93449 -14414041.93347  21508068.874    21508077.314
  20260891.687   -28389495.20849 -22090756.35048  20260891.637    20260897.457
 04  7 23  0 12 30.0000000  0  9G 3G20G16G 8G19G 1G23G27G13
  23427537.690   -12098531.50549  -9413391.08546  23427537.213    23427547.355
  24506864.765    -4298003.44349  -3337112.76345  24506864.230    24506881.894
  23714151.312   -10248323.48549  -7969741.52145  23714150.695    23714158.647
  23111335.819    -9745315.89649  -7328877.20446  23111335.166    23111347.087
  24604107.058    -7218989.18549  -5159716.51945  24604105.863    24604118.355
  22428784.637   -11510580.28649  -8955693.96146  22428784.096    22428793.233
  21448392.572   -18039525.30449 -13765676.32147  21448391.977    21448396.805
  21500516.849   -18568875.82749 -14444968.26947  21500516.322    21500524.699
  20258748.576   -28400757.09149 -22099531.76148  20258748.530    20258754.341
 04  7 23  0 13  0.0000000  0  9G 3G20G16G 8G19G 1G23G27G13
  23419593.294   -12140280.03649  -9445922.35446  23419592.713    23419602.860
  24528727.606    -4183116.91349  -3247591.30445  24528726.994    24528744.637
  23731998.392   -10154536.03549  -7896660.31545  23731997.780    23732005.795
  23096180.619    -9824955.96949  -7390934.19446  23096179.987    23096191.826
  24588475.772    -7301129.91849  -5223721.84945  24588474.654    24588487.046
  22442872.618   -11436547.18349  -8898005.82146  22442872.123    22442881.255
  21460806.155   -17974291.76849 -13714844.96447  21460805.523    21460810.301
  21493000.431   -18608374.50449 -14475746.39647  21492999.906    21493008.261
  20256681.063   -28411621.74249 -22107997.64648  20256680.992    20256686.788
 04  7 23  0 13 30.0000000  0  9G 3G20G16G 8G19G 1G23G27G13
  23411733.199   -12181584.92949  -9478107.94646  23411732.655    23411742.729
  24550592.683    -4068218.68549  -3158060.73645  24550591.987    24550609.463
  23749891.985   -10060503.34549  -7823387.99845  23749891.493    23749899.535
  23081055.961    -9904435.85249  -7452866.35146  23081055.308    23081067.125
  24572858.983    -7383195.00349  -5287668.22745  24572857.865    24572870.040
  22457011.396   -11362247.88849  -8840110.26646  22457010.875    22457019.920
  21473284.104   -17908719.62549 -13663749.75547  21473283.465    21473288.236
  21485520.028   -18647683.82349 -14506376.97347  21485519.525    21485527.896
  20254689.213   -28422088.56949 -22116153.53548  20254689.161    20254694.936
 04  7 23  0 14  0.0000000  0  9G 3G20G16G 8G19G 1G23G27G13
  23403957.781   -12222443.73649  -9509945.95046  23403957.327    23403967.398
  24572459.391    -3953311.17049  -3068522.91945  24572458.570    24572476.101
  23767831.979    -9966227.58249  -7749926.36245  23767831.543    23767839.527
  23065961.921    -9983754.83649  -7514673.13546  23065961.247    23065972.976
  24557257.173    -7465181.11449  -5351553.07645  24557256.106    24557268.137
  22471200.779   -11287682.58249  -8782007.44346  22471200.241    22471209.206
  21485826.465   -17842808.76449 -13612390.62347  21485825.832    21485830.655
  21478075.698   -18686803.58049 -14536859.82947  21478075.198    21478083.558
  20252773.347   -28432156.04149 -22123998.24948  20252773.307    20252779.078
 04  7 23  0 14 30.0000000  0  9G 3G20G16G 8G19G 1G23G27G13
  23396267.867   -12262854.35949  -9541434.73246  23396267.461    23396277.400
  24594327.205    -3838397.26549  -2978980.11845  24594326.321    24594343.963
  23785817.744    -9871711.39649  -7676277.35545  23785817.262    23785825.285
  23050898.572   -10062912.55349  -7576354.24546  23050897.876    23050909.437
  24541670.824    -7547085.55349  -5415374.30445  24541669.747    24541681.754
  22485440.672   -11212851.87749  -8723697.81846  22485440.054    22485448.981
  21498433.108   -17776560.09149 -13560768.26247  21498432.505    21498437.315
  21470667.430   -18725734.25349 -14567195.35247  21470666.917    21470675.228
  20250933.680   -28441823.28549 -22131531.09848  20250933.640    20250939.383
 04  7 23  0 15  0.0000000  0  9G 3G20G16G 8G19G 1G23G27G13
  23388663.710   -12302814.36549  -9572572.38946  23388663.256    23388673.233
  24616195.701    -3723479.31649  -2889434.17845  24616194.862    24616212.503
  23803848.808    -9776957.31149  -7602442.97645  23803848.179    23803856.244
  23035866.011   -10141908.53649  -7637909.35846  23035865.342    23035876.785
  24526100.571    -7628905.06949  -5479129.36345  24526099.545    24526111.673
  22499730.899   -11137756.27449  -8665181.77746  22499730.291    22499739.213
  21511104.083   -17709974.06749 -13508883.04247  21511103.423    21511108.215
  21463295.064   -18764476.00449 -14597383.66547  21463294.560    21463302.837
  20249170.394   -28451089.23149 -22138751.25548  20249170.341    20249176.070
 04  7 23  0 15 30.0000000  0  9G 3G20G16G 8G19G 1G23G27G13
  23381145.672   -12342322.30749  -9603357.79946  23381145.150    23381155.149
  24638064.363    -3608560.74049  -2799887.74545  24638063.563    24638081.152
  23821924.486    -9681968.75649  -7528425.91645  23821923.935    23821931.842
  23020864.149   -10220743.14849  -7699338.69646  23020863.449    23020874.825
  24510547.260    -7710637.50949  -5542816.56445  24510546.163    24510558.132
  22514071.205   -11062396.90849  -8606460.21446  22514070.623    22514079.643
  21523838.933   -17643051.98049 -13456735.96647  21523838.277    21523843.072
  21455958.547   -18803029.55549 -14627425.32147  21455958.039    21455966.308
  20247483.611   -28459953.03749 -22145658.06648  20247483.559    20247489.297
 04  7 23  0 16  0.0000000  0  9G 3G20G16G 8G19G 1G23G27G13
  23373714.295   -12381374.61749  -9633788.16746  23373713.795    23373723.693
  24659932.929    -3493642.35649  -2710341.45845  24659932.143    24659949.864
  23840044.598    -9586746.62049  -7454226.88745  23840044.081    23840051.999
  23005893.273   -10299414.43049  -7760640.77346  23005892.562    23005903.936
  24495011.193    -7792278.34649  -5606432.40445  24495010.218    24495021.944
  22528461.931   -10986772.86049  -8547532.42046  22528461.400    22528470.366
  21536637.887   -17575792.83249 -13404326.23747  21536637.236    21536642.037
  21448658.041   -18841393.68549 -14657319.38347  21448657.553    21448665.811
  20245873.911   -28468412.02849 -22152249.44148  20245873.843    20245879.558
 04  7 23  0 16 30.0000000  0  9G 3G20G16G 8G19G 1G23G27G13
  23366369.854   -12419970.48649  -9663862.86646  23366369.289    23366379.125
  24681800.735    -3378728.31549  -2620798.56645  24681799.975    24681817.773
  23858208.363    -9491295.09249  -7379849.12245  23858207.947    23858215.668
  22990953.376   -10377923.58849  -7821816.52646  22990952.655    22990963.944
  24479492.711    -7873826.13149  -5669975.76145  24479491.782    24479503.502
  22542902.757   -10910886.30549  -8488400.08146  22542902.203    22542911.111
  21549500.645   -17508198.72449 -13351655.51247  21549499.982    21549504.730
  21441393.301   -18879569.88449 -14687066.99747  21441392.813    21441401.088
  20244341.140   -28476466.73649 -22158525.80148  20244341.044    20244346.721
 04  7 23  0 17  0.0000000  0  9G 3G20G16G 8G19G 1G23G27G13
  23359112.759   -12458106.36549  -9693579.15646  23359112.184    23359122.113
  24703667.355    -3263819.90449  -2531260.04445  24703666.606    24703684.676
  23876415.706    -9395615.10749  -7305293.27945  23876415.261    23876422.896
  22976044.576   -10456269.10449  -7882864.76646  22976043.827    22976055.095
  24463992.818    -7955276.33949  -5733443.08945  24463991.861    24464003.718
  22557393.644   -10834736.33949  -8429062.48146  22557393.072    22557402.042
  21562427.380   -17440268.70649 -13298723.04847  21562426.683    21562431.345
  21434164.470   -18917557.21649 -14716667.44847  21434163.977    21434172.234
  20242885.756   -28484114.58949 -22164485.13748  20242885.672    20242891.321
 04  7 23  0 17 30.0000000  0  9G 3G20G16G 8G19G 1G23G27G13
  23351943.079   -12495781.71049  -9722936.52645  23351942.687    23351952.790
  24725532.171    -3148921.11349  -2441729.01545  24725531.381    24725549.828
  23894665.850    -9299710.87649  -7230562.71745  23894665.408    23894672.774
  22961166.667   -10534451.92049  -7943786.22146  22961165.956    22961177.221
  24448512.081    -8036627.49749  -5796833.25645  24448511.128    24448522.638
  22571934.181   -10758324.90149  -8369521.14046  22571933.646    22571942.731
  21575417.521   -17372004.90249 -13245530.48547  21575416.830    21575421.482
  21426971.343   -18955357.10549 -14746121.84347  21426970.847    21426979.058
  20241507.743   -28491355.88449 -22170127.67448  20241507.676    20241513.305
 04  7 23  0 18  0.0000000  0  9G 3G20G16G 8G19G 1G23G27G13
  23344861.690   -12532993.32849  -9751932.54945  23344861.379    23344871.645
  24747394.885    -3034033.61849  -2352206.80145  24747394.224    24747412.762
  23912958.358    -9203583.95549  -7155658.67445  23912957.794    23912965.031
  22946320.049   -10612470.71249  -8004579.88246  22946319.324    22946330.525
  24433051.087    -8117875.70749  -5860143.21045  24433049.922    24433061.344
  22586524.487   -10681651.59949  -8309775.75346  22586524.025    22586533.178
  21588471.152   -17303407.16849 -13192077.72847  21588470.513    21588475.209
  21419814.034   -18992968.93949 -14775429.70447  21419813.532    21419821.677
  20240207.480   -28498188.60249 -22175451.84748  20240207.396    20240213.029
 04  7 23  0 18 30.0000000  0  9G 3G20G16G 8G19G 1G23G27G13
  23337869.151   -12569739.52949  -9780565.91745  23337868.810    23337879.088
  24769254.854    -2919160.70549  -2262695.92845  24769254.211    24769272.797
  23931292.653    -9107237.54149  -7080583.59645  23931292.032    23931299.152
  22931504.621   -10690325.50449  -8065245.74146  22931503.880    22931515.108
  24417609.889    -8199018.50649  -5923371.03045  24417608.662    24417620.045
  22601164.595   -10604717.66149  -8249827.26946  22601164.129    22601173.242
  21601588.262   -17234476.40149 -13138365.46747  21601587.622    21601592.302
  21412692.385   -19030393.35149 -14804591.50947  21412691.862    21412699.989
  20238985.065   -28504612.47349 -22180457.44548  20238984.972    20238990.568
 04  7 23  0 19  0.0000000  0  8G 3G16G 8G19G 1G23G27G13
  23330966.301   -12606014.06049  -9808831.75145  23330965.948    23330976.213
  23949668.883    -9010669.56249  -7005335.82745  23949668.250    23949675.503
  22916721.284   -10768011.67549  -8125780.22846  22916720.515    22916731.760
  24402190.060    -8280048.41649  -5986510.92045  24402188.787    24402200.169
  22615855.093   -10527519.18349  -8189672.66346  22615854.570    22615863.628
  21614769.457   -17165209.06249 -13084390.94347  21614768.787    21614773.452
  21405607.113   -19067626.10149 -14833603.96347  21405606.607    21405614.774
  20237841.548   -28510621.70449 -22185139.93948  20237841.444    20237847.015
 04  7 23  0 19 30.0000000  0  8G 3G16G 8G19G 1G23G27G13
  23324153.078   -12641818.13149  -9836730.95045  23324152.706    23324162.851
  23968086.166    -8913885.99949  -6929920.07745  23968085.610    23968092.947
  22901969.491   -10845531.81349  -8186185.34046  22901968.748    22901979.963
  24386791.605    -8360965.56949  -6049562.93145  24386790.397    24386801.740
  22630595.193   -10450060.05449  -8129314.94446  22630594.616    22630603.660
  21628013.924   -17095608.82349 -13030157.01047  21628013.228    21628017.967
  21398557.683   -19104670.67049 -14862469.77247  21398557.187    21398565.359
  20236776.538   -28516218.18449 -22189500.80548  20236776.441    20236782.003
 04  7 23  0 20  0.0000000  0  8G 3G16G 8G19G 1G23G27G13
  23317429.232   -12677152.43449  -9864264.12145  23317428.780    23317438.855
  23986543.480    -8816892.16049  -6854340.44045  23986542.902    23986550.286
  22887248.726   -10922889.15149  -8246463.62046  22887247.958    22887259.157
  24371414.965    -8441769.89349  -6112527.03345  24371413.822    24371424.846
  22645384.119   -10372343.75749  -8068756.83846  22645383.557    22645392.621
  21641321.005   -17025679.40249 -12975666.57347  21641320.355    21641325.100
  21391543.533   -19141530.07549 -14891191.30547  21391543.033    21391551.197
  20235789.595   -28521404.34649 -22193541.94848  20235789.515    20235795.073
 04  7 23  0 20 30.0000000  0  8G 3G16G 8G19G 1G23G27G13
  23310795.202   -12712014.34749  -9891429.18745  23310794.683    23310804.755
  24005040.472    -8719689.96249  -6778598.48545  24005039.917    24005047.380
  22872559.072   -11000082.56849  -8306614.17346  22872558.347    22872569.576
  24356060.458    -8522457.58649  -6175400.25845  24356059.331    24356070.162
  22660221.990   -10294370.16749  -8007998.25446  22660221.465    22660230.509
  21654690.766   -16955420.77849 -12920919.61947  21654690.140    21654694.885
  21384564.671   -19178203.88949 -14919768.23047  21384564.174    21384572.318
  20234881.203   -28526178.00549 -22197261.66348  20234881.103    20234886.650
 04  7 23  0 21  0.0000000  0  8G 3G16G 8G19G 1G23G27G13
  23304251.584   -12746400.11049  -9918223.24645  23304251.192    23304261.267
  24023577.103    -8622280.30149  -6702694.86745  24023576.444    24023583.952
  22857901.186   -11077109.70449  -8366635.17446  22857900.465    22857911.641
  24340728.994    -8603024.03249  -6238179.01345  24340727.885    24340738.527
  22675108.949   -10216138.22649  -7947038.34446  22675108.459    22675117.556
  21668123.326   -16884831.92649 -12865915.34147  21668122.721    21668127.510
  21377621.433   -19214690.70449 -14948199.44347  21377620.921    21377629.049
  20234051.794   -28530536.37249 -22200657.77448  20234051.707    20234057.210
 04  7 23  0 21 30.0000000  0  8G 3G16G 8G19G 1G23G27G13
  23297799.003   -12780308.36749  -9944645.22345  23297798.630    23297808.672
  24042152.578    -8524666.26149  -6626631.97445  24042151.885    24042159.366
  22843274.875   -11153970.44249  -8426526.52046  22843274.211    22843285.339
  24325420.851    -8683467.03949  -6300861.59945  24325419.843    24325430.400
  22690044.986   -10137649.18749  -7885878.11446  22690044.499    22690053.622
  21681618.553   -16813914.09349 -12810654.71747  21681617.948    21681622.755
  21370713.640   -19250990.99549 -14976485.32547  21370713.133    21370721.219
  20233301.486   -28534479.24949 -22203730.13048  20233301.387    20233306.864
 04  7 23  0 22  0.0000000  0  8G 3G16G 8G19G 1G23G27G13
  23291437.775   -12813737.54049  -9970693.89145  23291437.204    23291447.119
  24060766.327    -8426850.63049  -6550412.02645  24060765.618    24060773.069
  22828680.295   -11230665.10049  -8486288.47346  22828679.615    22828690.703
  24310137.064    -8763783.57249  -6363445.63245  24310135.923    24310146.306
  22705030.021   -10058904.02749  -7824518.31246  22705029.395    22705038.437
  21695176.274   -16742668.02149 -12755138.33147  21695175.682    21695180.471
  21363841.268   -19287105.28449 -15004626.27647  21363840.751    21363848.798
  20232630.396   -28538005.67649 -22206477.97948  20232630.292    20232635.800
 04  7 23  0 22 30.0000000  0  8G 3G16G 8G19G 1G23G27G13
  23285167.756   -12846685.95749  -9996367.93645  23285167.334    23285177.000
  24079417.664    -8328836.54149  -6474037.43645  24079417.017    24079424.561
  22814117.189   -11307194.20449  -8545921.42446  22814116.496    22814127.539
  24294877.732    -8843971.31949  -6425929.31045  24294876.478    24294886.772
  22720063.373    -9979903.99949  -7762959.92546  22720062.708    22720071.742
  21708796.139   -16671095.19149 -12699367.33347  21708795.543    21708800.370
  21357004.112   -19323034.52049 -15032623.01347  21357003.604    21357011.623
  20232038.613   -28541115.19849 -22208900.96148  20232038.531    20232044.078
 04  7 23  0 23  0.0000000  0  8G 3G16G 8G19G 1G23G27G13
  23278990.390   -12879148.57949 -10021663.45145  23278989.970    23278999.468
  24098106.814    -8230623.12049  -6397507.52145  24098106.288    24098113.920
  22799586.415   -11383553.84049  -8605422.33946  22799585.715    22799596.605
  24279644.060    -8924023.77549  -6488307.57845  24279642.794    24279653.218
  22735145.557    -9900646.31349  -7701200.75046  22735144.937    22735154.040
  21722478.696   -16599193.01149 -12643339.69647  21722478.061    21722482.976
  21350202.868   -19358775.11249 -15060472.75147  21350202.363    21350210.346
  20231527.159   -28543803.17049 -22210995.47048  20231527.055    20231532.583
 04  7 23  0 23 30.0000000  0  8G 3G16G 8G19G 1G23G27G13
  23272905.134   -12911126.87249 -10046581.55845  23272904.674    23272914.234
  24116832.809    -8132216.42449  -6320827.01445  24116832.354    24116840.155
  22785087.181   -11459747.31949  -8664793.76746  22785086.443    22785097.295
  24264435.778    -9003941.47149  -6550580.85345  24264434.603    24264445.125
  22750276.007    -9821135.23049  -7639244.13346  22750275.372    22750284.489
  21736223.153   -16526965.61849 -12587058.65847  21736222.536    21736227.458
  21343436.762   -19394331.04049 -15088178.59247  21343436.257    21343444.224
  20231095.272   -28546072.45649 -22212763.73348  20231095.174    20231100.704
 04  7 23  0 24  0.0000000  0  8G 3G16G 8G19G 1G23G27G13
  23266912.849   -12942616.75249 -10071119.07145  23266912.251    23266921.859
  24135595.796    -8033616.76149  -6243996.04645  24135595.215    24135603.186
  22770620.114   -11535771.89549  -8724033.58946  22770619.398    22770630.113
  24249254.277    -9083719.45449  -6612745.25345  24249253.141    24249263.461
  22765455.083    -9741369.21049  -7577088.86346  22765454.464    22765463.466
  21750029.795   -16454411.63949 -12530523.13147  21750029.168    21750034.025
  21336706.128   -19429700.54949 -15115739.17547  21336705.626    21336713.571
  20230743.719   -28547919.86249 -22214203.24748  20230743.638    20230749.116
 04  7 23  0 24 30.0000000  0  8G 3G16G 8G19G 1G23G27G13
  23261013.355   -12973617.48349 -10095275.39945  23261012.866    23261022.539
  24154394.927    -7934827.83049  -6167017.64045  24154394.201    24154402.139
  22756185.072   -11611628.27049  -8783142.34846  22756184.371    22756194.978
  24234099.990    -9163355.64149  -6674799.16845  24234098.803    24234108.829
  22780682.346    -9661349.93149  -7514736.25346  22780681.712    22780690.749
  21763898.213   -16381532.81249 -12473734.47347  21763897.597    21763902.448
  21330010.754   -19464884.48149 -15143155.14247  21330010.251    21330018.178
  20230472.451   -28549345.37349 -22215314.00548  20230472.365    20230477.855
 04  7 23  0 25  0.0000000  0  9G 3G10G16G 8G19G 1G23G27G13
  23255207.019   -13004129.75149 -10119051.11545  23255206.486    23255216.185
  24611782.158    -3325433.66549  -2565423.65844  24611781.290    24611793.147
  24173229.016    -7835854.51149  -6089895.44045  24173228.162    24173236.122
  22741781.473   -11687319.13249  -8842122.14146  22741780.773    22741791.336
  24218972.527    -9242849.61849  -6736742.25645  24218971.426    24218981.216
  22795957.058    -9581080.71149  -7452188.87146  22795956.457    22795965.594
  21777827.769   -16308332.58849 -12416695.36247  21777827.134    21777832.025
  21323350.198   -19499885.73549 -15170428.77047  21323349.692    21323357.551
  20230281.118   -28550350.63349 -22216097.28848  20230281.048    20230286.562
 04  7 23  0 25 30.0000000  0  9G 3G10G16G 8G19G 1G23G27G13
  23249494.711   -13034148.03749 -10142441.89946  23249494.260    23249503.991
  24595330.316    -3411888.41249  -2632790.86444  24595329.378    24595341.451
  24192098.260    -7736695.84849  -6012628.79545  24192097.509    24192105.373
  22727410.242   -11762840.10149  -8900969.54546  22727409.522    22727420.016
  24203873.541    -9322194.39349  -6798569.07745  24203872.389    24203882.172
  22811279.912    -9500558.52649  -7389444.37346  22811279.340    22811288.519
  21791819.067   -16234807.91949 -12359403.43247  21791818.418    21791823.335
  21316725.084   -19534700.77649 -15197557.30047  21316724.569    21316732.417
  20230170.686   -28550930.94749 -22216549.43748  20230170.594    20230176.121
 04  7 23  0 26  0.0000000  0  9G 3G10G16G 8G19G 1G23G27G13
  23243876.985   -13063670.07449 -10165445.97346  23243876.469    23243886.139
  24578943.200    -3498003.59749  -2699893.45444  24578942.252    24578954.591
  24211002.352    -7637354.07849  -5935219.64445  24211001.673    24211009.343
  22713071.416   -11838190.29749  -8959683.87346  22713070.699    22713081.242
  24188803.475    -9401386.84249  -6860277.19745  24188802.371    24188812.114
  22826650.815    -9419783.74149  -7326503.03446  22826650.289    22826659.524
  21805872.090   -16160959.10649 -12301858.91547  21805871.449    21805876.324
  21310135.406   -19569329.49149 -15224540.64047  21310134.891    21310142.712
  20230141.308   -28551085.00149 -22216669.43848  20230141.255    20230146.750
 04  7 23  0 26 30.0000000  0  9G 3G10G16G 8G19G 1G23G27G13
  23238353.740   -13092694.70149 -10188062.47746  23238353.193    23238362.874
  24562620.884    -3583777.19149  -2766729.88544  24562620.132    24562632.741
  24229940.548    -7537832.18149  -5857670.09445  24229940.062    24229947.707
  22698765.099   -11913370.07649  -9018265.40046  22698764.362    22698774.881
  24173762.984    -9480424.46149  -6921864.66545  24173761.864    24173771.568
  22842069.567    -9338757.63349  -7263365.84546  22842069.035    22842078.327
  21819986.516   -16086787.59849 -12244062.93747  21819985.818    21819990.654
  21303581.064   -19603772.44349 -15251379.22347  21303580.538    21303588.386
  20230193.202   -28550812.44449 -22216457.01148  20230193.119    20230198.574
 04  7 23  0 27  0.0000000  0  9G 3G10G16G 8G19G 1G23G27G13
  23232925.217   -13121220.69249 -10210290.44446  23232924.781    23232934.441
  24546363.990    -3669206.98649  -2833298.39045  24546363.296    24546375.871
  24248912.539    -7438132.89949  -5779982.29045  24248912.028    24248919.607
  22684491.117   -11988379.67349  -9076714.32046  22684490.444    22684500.960
  24158752.398    -9559304.41449  -6983329.25445  24158751.206    24158760.926
  22857535.863    -9257481.37649  -7200033.73646  22857535.357    22857544.691
  21834162.011   -16012294.53149 -12186016.39247  21834161.365    21834166.187
  21297061.971   -19638030.24749 -15278073.52547  21297061.441    21297069.288
  20230326.365   -28550112.38849 -22215911.46148  20230326.287    20230331.754
 04  7 23  0 27 30.0000000  0  9G 3G10G16G 8G19G 1G23G27G13
  23227592.195   -13149245.58149 -10232127.96146  23227591.803    23227601.404
  24530173.204    -3754289.84649  -2899596.53645  24530172.436    24530184.742
  24267918.082    -7338257.62349  -5702157.30945  24267917.560    24267925.085
  22670249.845   -12063217.96649  -9135029.76746  22670249.113    22670259.600
  24143772.227    -9638023.19549  -7044668.26845  24143771.205    24143780.808
  22873049.965    -9175954.99249  -7136506.71746  22873049.447    22873058.715
  21848398.809   -15937479.77549 -12127719.17047  21848398.159    21848402.949
  21290578.240   -19672102.21149 -15304623.01347  21290577.710    21290585.536
  20230541.143   -28548983.40549 -22215031.68548  20230541.078    20230546.555
 04  7 23  0 28  0.0000000  0  9G 3G10G16G 8G19G 1G23G27G13
  23222354.701   -13176768.85749 -10253574.61846  23222354.229    23222363.835
  24514048.811    -3839024.28449  -2965623.17245  24514047.977    24514060.281
  24286956.423    -7238210.43749  -5624198.32545  24286955.790    24286963.395
  22656040.840   -12137886.08349  -9193212.59046  22656040.130    22656050.613
  24128823.424    -9716578.88149  -7105880.18845  24128822.404    24128831.855
  22888611.425    -9094180.39049  -7072786.28646  22888610.804    22888619.925
  21862696.358   -15862345.71149 -12069173.14347  21862695.701    21862700.535
  21284129.559   -19705989.79449 -15331028.81147  21284129.044    21284136.857
  20230837.562   -28547425.84549 -22213817.94648  20230837.483    20230842.941
 04  7 23  0 28 30.0000000  0  9G 3G10G16G 8G19G 1G23G27G13
  23217213.047   -13203788.41249 -10274628.74446  23217212.578    23217222.176
  24497991.038    -3923407.31749  -3031376.00745  24497990.315    24498002.537
  24306026.910    -7137993.69449  -5546107.25345  24306026.308    24306033.956
  22641864.457   -12212382.94249  -9251261.98146  22641863.764    22641874.259
  24113906.296    -9794968.21649  -7166962.47845  24113905.252    24113914.589
  22904219.715    -9012158.03649  -7008872.78746  22904219.100    22904228.263
  21877054.605   -15786892.74549 -12010378.62147  21877053.941    21877058.781
  21277716.041   -19739692.84049 -15357290.82047  21277715.524    21277723.291
  20231215.772   -28545438.19149 -22212269.07048  20231215.691    20231221.124
 04  7 23  0 29  0.0000000  0  9G 3G10G16G 8G19G 1G23G27G13
  23212167.718   -13230302.04849 -10295288.63546  23212167.221    23212176.792
  24482000.672    -4007436.41049  -3096853.03445  24481999.815    24482012.161
  24325129.263    -7037609.58149  -5467885.73245  24325128.793    24325136.479
  22627720.769   -12286708.15949  -9309177.61646  22627720.066    22627730.541
  24099021.406    -9873188.11049  -7227912.73145  24099020.306    24099029.608
  22919874.900    -8929888.60849  -6944766.76846  22919874.411    22919883.620
  21891473.316   -15711121.50549 -11951336.09947  21891472.679    21891477.530
  21271337.590   -19773211.37349 -15383409.03947  21271337.060    21271344.841
  20231675.978   -28543019.72749 -22210384.49648  20231675.882    20231681.291
 04  7 23  0 29 30.0000000  0  9G 3G10G16G 8G19G 1G23G27G13
  23207218.884   -13256308.31749 -10315553.16446  23207218.367    23207227.863
  24466078.070    -4091109.12349  -3162052.36145  24466077.308    24466089.509
  24344262.980    -6937060.60449  -5389535.69345  24344262.558    24344270.330
  22613609.640   -12360861.98149  -9366959.69046  22613608.944    22613619.428
  24084169.291    -9951235.41349  -7288728.51245  24084168.248    24084177.533
  22935577.202    -8847372.75949  -6880468.74346  22935576.690    22935585.905
  21905952.478   -15635032.75149 -11892046.16547  21905951.905    21905956.724
  21264994.222   -19806545.59849 -15409383.64647  21264993.691    21265001.430
  20232218.269   -28540169.56949 -22208163.53548  20232218.187    20232223.586
 04  7 23  0 30  0.0000000  0  9G 3G10G16G 8G19G 1G23G27G13
  23202366.824   -13281805.33249 -10335420.88346  23202366.396    23202375.901
  24450223.829    -4174422.40649  -3226971.61145  24450223.054    24450235.174
  24363427.850    -6836349.00149  -5311058.98545  24363427.351    24363435.117
  22599531.382   -12434843.33849  -9424607.36546  22599530.661    22599541.129
  24069350.625   -10029106.66349  -7349407.09945  24069349.517    24069358.837
  22951326.383    -8764610.95649  -6815979.06546  22951325.857    22951334.943
  21920492.103   -15558626.85649 -11832509.11347  21920491.460    21920496.334
  21258685.964   -19839695.29249 -15435214.46247  21258685.439    21258693.179
  20232843.022   -28536886.25749 -22205605.05548  20232842.944    20232848.337
 04  7 23  0 30 30.0000000  0  9G 3G10G16G 8G19G 1G23G27G13
  23197612.091   -13306791.63549 -10354890.62546  23197611.528    23197621.028
  24434438.500    -4257374.00149  -3291609.03245  24434437.592    24434449.724
  24382623.126    -6735477.09549  -5232457.39745  24382622.592    24382630.449
  22585485.945   -12508652.01049  -9482120.47646  22585485.244    22585495.695
  24054565.879   -10106799.19249  -7409946.42545  24054564.782    24054574.072
  22967122.151    -8681604.28549  -6751298.58746  22967121.562    22967130.617
  21935091.713   -15481905.28049 -11772726.07547  21935091.082    21935096.043
  21252412.779   -19872660.74349 -15460901.71947  21252412.251    21252419.990
  20233550.369   -28533168.98649 -22202708.42648  20233550.285    20233555.671
 04  7 23  0 31  0.0000000  0  9G 3G10G16G 8G19G 1G23G27G13
  23192954.481   -13331265.94349 -10373961.39946  23192954.063    23192963.636
  24418722.460    -4339961.43349  -3355962.68545  24418721.481    24418733.725
  24401848.289    -6634447.80549  -5153733.09545  24401847.792    24401855.536
  22571473.430   -12582288.05149  -9539499.07246  22571472.705    22571483.087
  24039815.552   -10184310.32849  -7470344.39545  24039814.543    24039823.900
  22982964.230    -8598353.64549  -6686428.01046  22982963.626    22982972.666
  21949751.249   -15404869.03549 -11712697.84647  21949750.594    21949755.566
  21246174.509   -19905442.54449 -15486445.87647  21246173.970    21246181.700
  20234340.362   -28529017.35649 -22199473.33548  20234340.268    20234345.655
 04  7 23  0 31 30.0000000  0  9G 3G10G16G 8G19G 1G23G27G13
  23188394.872   -13355226.02849 -10392631.48446  23188394.519    23188404.142
  24403076.398    -4422181.73449  -3420030.28245  24403075.443    24403087.529
  24421103.090    -6533263.08449  -5074887.68745  24421102.423    24421110.205
  22557493.864   -12655750.67649  -9596742.52846  22557493.133    22557503.505
  24025100.444   -10261636.55849  -7530598.29245  24025099.490    24025108.958
  22998852.799    -8514859.41149  -6621367.61646  22998852.156    22998861.067
  21964470.569   -15327518.23649 -11652424.50447  21964469.974    21964474.900
  21239971.262   -19938040.16349 -15511846.52147  21239970.754    21239978.473
  20235213.216   -28524430.10549 -22195898.80348  20235213.124    20235218.520
 04  7 23  0 32  0.0000000  0  9G 3G10G16G 8G19G 1G23G27G13
  23183933.470   -13378671.66149 -10410900.71146  23183932.986    23183942.437
  24387500.462    -4504033.48049  -3483810.68645  24387499.535    24387511.436
  24440386.565    -6431926.47949  -4995923.90545  24440386.013    24440393.646
  22543547.167   -12729041.03749  -9653851.75246  22543546.418    22543556.697
  24010420.959   -10338775.93249  -7590706.57145  24010420.013    24010429.538
  23014787.257    -8431123.56949  -6556118.94046  23014786.555    23014795.502
  21979249.412   -15249855.18249 -11591907.84147  21979248.803    21979253.658
  21233802.840   -19970454.98049 -15537104.73147  21233802.335    21233810.018
  20236168.961   -28519407.46849 -22191985.01048  20236168.872    20236174.250
 04  7 23  0 32 30.0000000  0  9G 3G10G16G 8G19G 1G23G27G13
  23179570.507   -13401599.47449 -10428766.45146  23179569.948    23179579.375
  24371995.463    -4585512.70549  -3547300.82645  24371994.539    24372006.287
  24459698.612    -6330438.67149  -4916842.25345  24459698.264    24459705.786
  22529633.550   -12802156.76249  -9710824.88346  22529632.810    22529643.100
  23995778.029   -10415723.75949  -7650665.60045  23995777.089    23995786.578
  23030767.620    -8347145.15949  -6490681.26346  23030766.992    23030776.168
  21994087.779   -15171879.08349 -11531147.24247  21994087.160    21994092.005
  21227669.479   -20002685.50449 -15562219.34347  21227668.971    21227676.612
  20237208.048   -28513947.00349 -22187730.05548  20237207.943    20237213.294
 04  7 23  0 33  0.0000000  0  9G 3G10G16G 8G19G 1G23G27G13
  23175305.954   -13424008.38749 -10446227.85646  23175305.490    23175315.000
  24356561.722    -4666617.17049  -3610498.93845  24356560.804    24356572.408
  24479039.182    -6228802.37949  -4837644.85645  24479038.864    24479046.353
  22515753.326   -12875097.78649  -9767661.89146  22515752.559    22515762.800
  23981172.229   -10492477.31349  -7710473.24446  23981171.211    23981180.517
  23046793.968    -8262925.35249  -6425055.48946  23046793.417    23046802.732
  22008985.597   -15093590.94449 -11470143.48047  22008984.927    22008989.713
  21221571.188   -20034732.06649 -15587190.61047  21221570.672    21221578.276
  20238330.497   -28508048.25649 -22183133.58248  20238330.376    20238335.722
 04  7 23  0 33 30.0000000  0  9G 3G10G16G 8G19G 1G23G27G13
  23171140.371   -13445897.78349 -10463284.46146  23171139.954    23171149.540
  24341199.679    -4747345.21249  -3673403.73845  24341198.849    24341210.106
  24498407.323    -6127021.43549  -4758334.78945  24498406.966    24498414.425
  22501905.965   -12947865.17949  -9824363.59446  22501905.236    22501915.474
  23966603.646   -10569034.46549  -7770127.85146  23966602.647    23966611.899
  23062866.108    -8178466.07749  -6359243.11046  23062865.590    23062874.874
  22023942.334   -15014992.73749 -11408898.11147  22023941.643    22023946.467
  21215507.695   -20066595.65949 -15612019.30347  21215507.170    21215514.741
  20239536.338   -28501711.07649 -22178195.47448  20239536.251    20239541.609
 04  7 23  0 34  0.0000000  0  9G 3G10G16G 8G19G 1G23G27G13
  23167074.061   -13467266.18949 -10479935.10646  23167073.629    23167083.229
  24325909.631    -4827694.43649  -3736013.33345  24325908.684    24325919.951
  24517802.554    -6025098.09749  -4678913.78645  24517802.069    24517809.566
  22488091.769   -13020458.58849  -9880929.72546  22488091.029    22488101.244
  23952073.144   -10645392.47849  -7829627.32446  23952072.115    23952081.169
  23078983.726    -8093768.13749  -6293244.76546  23078983.122    23078992.418
  22038957.856   -14936085.29649 -11347411.78847  22038957.237    22038961.985
  21209478.946   -20098276.65649 -15636705.70948  21209478.424    21209485.986
  20240825.788   -28494934.87649 -22172915.27348  20240825.688    20240831.034
 04  7 23  0 34 30.0000000  0  9G 3G10G16G 8G19G 1G23G27G13
  23163107.480   -13488110.87449 -10496177.66646  23163106.925    23163116.501
  24310692.416    -4907660.79449  -3798324.59745  24310691.329    24310702.775
  24537224.948    -5923033.04149  -4599382.34845  24537224.184    24537231.654
  22474310.976   -13092876.22049  -9937358.88146  22474310.239    22474320.402
  23937581.329   -10721546.87849  -7888968.14446  23937580.259    23937589.192
  23095146.798    -8008830.90649  -6227059.95246  23095146.143    23095155.482
  22054032.449   -14856868.20449 -11285684.17847  22054031.761    22054036.469
  21203485.195   -20129773.66949 -15661248.75348  21203484.663    21203492.228
  20242199.236   -28487717.24849 -22167291.10948  20242199.127    20242204.459
 04  7 23  0 35  0.0000000  0  9G 3G10G16G 8G19G 1G23G27G13
  23159240.393   -13508431.85049 -10512012.15746  23159239.892    23159249.434
  24295548.104    -4987243.49549  -3860336.91845  24295547.103    24295558.732
  24556673.455    -5820830.40349  -4519743.59145  24556672.610    24556680.052
  22460563.584   -13165118.96849  -9993651.76246  22460562.846    22460572.930
  23923128.591   -10797495.89249  -7948148.92946  23923127.534    23923136.374
  23111354.935    -7923656.66249  -6160690.46246  23111354.302    23111363.699
  22069165.269   -14777343.88449 -11223717.17047  22069164.635    22069169.520
  21197526.132   -20161088.41449 -15685649.77647  21197525.599    21197533.134
  20243656.426   -28480059.34849 -22161323.88148  20243656.338    20243661.642
 04  7 23  0 35 30.0000000  0  9G 3G10G16G 8G19G 1G23G27G13
  23155473.773   -13528225.61449 -10527435.82346  23155473.250    23155482.748
  24280477.643    -5066438.05149  -3922046.79445  24280476.686    24280488.380
  24576147.731    -5718490.90749  -4439998.34245  24576147.087    24576154.475
  22446849.746   -13237184.78049 -10049806.77646  22446849.030    22446859.088
  23908715.712   -10873234.90549  -8007166.08646  23908714.622    23908723.441
  23127608.357    -7838244.46349  -6094135.57346  23127607.730    23127617.152
  22084356.884   -14697511.38149 -11161510.03147  22084356.248    22084361.196
  21191602.108   -20192218.94249 -15709907.25747  21191601.600    21191609.105
  20245198.041   -28471958.15349 -22155011.22848  20245197.941    20245203.193
 04  7 23  0 36  0.0000000  0  9G 3G10G16G 8G19G 1G23G27G13
  23151807.518   -13547492.69449 -10542449.08746  23151806.808    23151816.225
  24265481.286    -5145243.90749  -3983453.79145  24265480.138    24265491.996
  24595647.455    -5616018.30949  -4360149.29445  24595646.938    24595654.163
  22433169.383   -13309075.08249 -10105825.03546  22433168.651    22433178.602
  23894342.933   -10948762.66249  -8066018.63046  23894341.872    23894350.749
  23143906.611    -7752596.98749  -6027397.35246  23143905.948    23143915.486
  22099606.588   -14617373.42349 -11099064.87847  22099605.971    22099610.870
  21185712.785   -20223167.34749 -15734022.82047  21185712.267    21185719.725
  20246823.778   -28463414.70149 -22148353.95648  20246823.676    20246828.909
 04  7 23  0 36 30.0000000  0  9G 3G10G16G 8G19G 1G23G27G13
  23148241.436   -13566231.47549 -10557050.68546  23148240.866    23148250.338
  24250559.317    -5223658.50249  -4044555.89745  24250558.148    24250569.979
  24615172.024    -5513415.28849  -4280198.75245  24615171.462    24615178.605
  22419522.467   -13380789.45549 -10161706.19646  22419521.728    22419531.647
  23880011.050   -11024075.88949  -8124704.02746  23880010.034    23880018.884
  23160249.458    -7666714.75249  -5960476.20946  23160248.833    23160258.422
  22114914.398   -14536930.68949 -11036382.24647  22114913.764    22114918.576
  21179858.129   -20253933.36649 -15757996.26247  21179857.610    21179865.021
  20248533.777   -28454428.22049 -22141351.46948  20248533.692    20248538.928
 04  7 23  0 37  0.0000000  0  9G 3G10G16G 8G19G 1G23G27G13
  23144776.526   -13584439.81149 -10571238.92846  23144775.896    23144785.425
  24235712.615    -5301678.20349  -4105350.30145  24235711.407    24235723.073
  24634721.307    -5410682.88549  -4200147.27745  24634720.768    24634727.730
  22405909.250   -13452326.69149 -10217449.32546  22405908.493    22405918.432
  23865720.683   -11099170.58549  -8183219.14446  23865719.737    23865728.590
  23176637.058    -7580597.70449  -5893372.08746  23176636.438    23176646.010
  22130280.137   -14456183.35849 -10973462.26847  22130279.466    22130284.301
  21174038.359   -20284516.20149 -15781826.95747  21174037.839    21174045.228
  20250328.545   -28444996.71749 -22134002.21248  20250328.449    20250333.659
 04  7 23  0 37 30.0000000  0  9G 3G10G16G 8G19G 1G23G27G13
  23141412.601   -13602117.10849 -10585013.38246  23141411.924    23141421.516
  24220941.249    -5379301.46749  -4165835.78945  24220940.122    24220951.667
  24654294.461    -5307824.76349  -4119998.02645  24654293.898    24654300.766
  22392329.639   -13523687.36049 -10273054.87846  22392328.873    22392338.771
  23851472.491   -11174044.65049  -8241562.34246  23851471.510    23851480.235
  23193069.047    -7494247.72349  -5826086.46046  23193068.413    23193077.899
  22145703.437   -14375133.17649 -10910306.30447  22145702.829    22145707.709
  21168253.244   -20314916.89549 -15805515.72647  21168252.714    21168260.115
  20252207.820   -28435120.79249 -22126306.65348  20252207.728    20252212.921
 04  7 23  0 38  0.0000000  0  9G 3G10G16G 8G19G 1G23G27G13
  23138150.141   -13619261.26149 -10598372.37346  23138149.423    23138158.994
  24206245.989    -5456525.24849  -4226009.99745  24206244.925    24206256.112
  24673891.376    -5204842.26649  -4039751.74845  24673890.581    24673897.461
  22378783.802   -13594870.46049 -10328522.05946  22378783.051    22378792.906
  23837266.934   -11248694.64449  -8299730.93246  23837265.945    23837274.471
  23209545.224    -7407665.09349  -5758619.55246  23209544.597    23209554.108
  22161184.458   -14293780.65349 -10846914.74047  22161183.801    22161188.642
  21162502.847   -20345134.95349 -15829062.17648  21162502.325    21162509.757
  20254172.045   -28424798.65649 -22118263.39148  20254171.949    20254177.169
 04  7 23  0 38 30.0000000  0  9G 3G10G16G 8G19G 1G23G27G13
  23134989.261   -13635871.44249 -10611315.31746  23134988.611    23134998.029
  24191627.112    -5533347.26549  -4285871.15945  24191625.996    24191637.297
  24693511.368    -5101737.83449  -3959410.42245  24693510.329    24693517.355
  22365271.773   -13665875.95949 -10383850.86046  22365271.036    22365280.878
  23823104.691   -11323117.32749  -8357722.41046  23823103.609    23823112.098
  23226065.483    -7320850.78849  -5690972.11546  23226064.880    23226074.475
  22176722.742   -14212126.56849 -10783288.20847  22176722.085    22176726.988
  21156787.189   -20375170.58449 -15852466.48248  21156786.661    21156794.064
  20256221.243   -28414029.87949 -22109872.09548  20256221.140    20256226.371
 04  7 23  0 39  0.0000000  0  9G 3G10G16G 8G19G 1G23G27G13
  23131930.061   -13651946.42949 -10623841.20146  23131929.628    23131938.916
  24177085.052    -5609765.09349  -4345417.39345  24177083.993    24177095.289
  24713153.827    -4998514.40649  -3878976.53445  24713152.811    24713160.178
  22351793.530   -13736703.73849 -10439041.17946  22351792.796    22351802.630
  23808986.220   -11397310.04149  -8415534.71046  23808985.113    23808993.422
  23242629.698    -7233805.83749  -5623144.93246  23242629.072    23242638.708
  22192318.115   -14130172.26549 -10719427.71547  22192317.458    22192322.302
  21151106.230   -20405023.90849 -15875728.73148  21151105.694    21151113.066
  20258355.492   -28402813.95249 -22101132.37048  20258355.382    20258360.623
 04  7 23  0 39 30.0000000  0  9G 3G10G16G 8G19G 1G23G27G13
  23128973.157   -13667484.40349 -10635948.64646  23128972.875    23128982.035
  24162620.519    -5685776.07749  -4404646.58045  24162619.476    24162630.686
  24732818.695    -4895173.41549  -3798450.89945  24732817.877    24732825.071
  22338349.356   -13807352.93749 -10494092.35646  22338348.613    22338358.376
  23794912.225   -11471269.36549  -8473165.16046  23794911.057    23794919.105
  23259237.576    -7146530.74049  -5555138.43146  23259236.965    23259246.614
  22207970.543   -14047918.26149 -10655333.68547  22207969.872    22207974.678
  21145460.057   -20434694.53249 -15898848.60948  21145459.533    21145466.841
  20260575.105   -28391149.60249 -22092043.22148  20260575.016    20260580.239
 04  7 23  0 40  0.0000000  0  9G 3G10G16G 8G19G 1G23G27G13
  23126118.691   -13682484.86049 -10647637.21746  23126118.321    23126127.475
  24148233.756    -5761378.51949  -4463557.42045  24148232.747    24148243.885
  24752505.460    -4791717.61649  -3717835.63944  24752504.868    24752511.470
  22324939.071   -13877823.93049 -10549004.67347  22324938.337    22324948.064
  23780882.911   -11544993.12349  -8530612.06846  23780881.699    23780889.598
  23275888.959    -7059027.15449  -5486953.89346  23275888.318    23275897.934
  22223679.703   -13965366.29849 -10591007.48147  22223679.047    22223683.871
  21139848.453   -20464183.51549 -15921826.94848  21139847.898    21139855.173
  20262880.061   -28379036.94549 -22082604.74348  20262879.970    20262885.185
 04  7 23  0 40 30.0000000  0  8G 3G10G 8G19G 1G23G27G13
  23123366.772   -13696946.59749 -10658906.03446  23123366.337    23123375.381
  24133925.143    -5836569.89649  -4522147.97845  24133924.082    24133935.259
  22311562.895   -13948115.97749 -10603777.55447  22311562.147    22311571.801
  23766898.954   -11618478.26049  -8587873.05746  23766897.710    23766905.452
  23292583.737    -6971296.13949  -5418592.12146  23292583.090    23292592.621
  22239445.349   -13882517.35949 -10526449.85647  22239444.603    22239449.530
  21134271.369   -20493490.88649 -15944663.77048  21134270.839    21134278.101
  20265270.410   -28366475.44749 -22072816.51348  20265270.295    20265275.519
 04  7 23  0 41  0.0000000  0  8G 3G10G 8G19G 1G23G27G13
  23120717.534   -13710868.28249 -10669754.01346  23120717.141    23120726.097
  24119695.245    -5911347.53749  -4580416.14445  24119694.343    24119705.341
  22298220.565   -14018229.38449 -10658411.22747  22298219.824    22298229.497
  23752960.924   -11691721.59049  -8644945.63345  23752959.778    23752967.561
  23309321.611    -6883338.33649  -5350053.63446  23309320.923    23309330.509
  22255267.048   -13799372.32849 -10461661.51447  22255266.430    22255271.500
  21128728.878   -20522616.38149 -15967358.86648  21128728.346    21128735.599
  20267746.268   -28353464.46849 -22062678.03948  20267746.161    20267751.391
 04  7 23  0 41 30.0000000  0  8G 3G10G 8G19G 1G23G27G13
  23118171.444   -13724248.30549 -10680179.94646  23118170.924    23118179.915
  24105544.740    -5985708.75549  -4638359.82845  24105543.799    24105554.683
  22284912.530   -14088162.93449 -10712904.75647  22284911.817    22284921.429
  23739069.773   -11764719.55849  -8701827.01846  23739068.634    23739076.411
  23326102.531    -6795154.05649  -5281338.68746  23326101.896    23326111.527
  22271145.350   -13715931.59149 -10396642.75147  22271144.737    22271149.820
  21123221.095   -20551559.69749 -15989912.00848  21123220.569    21123227.792
  20270308.004   -28340002.40249 -22052188.07048  20270307.898    20270313.103
 04  7 23  0 42  0.0000000  0  8G 3G10G 8G19G 1G23G27G13
  23115728.474   -13737085.89749 -10690183.19246  23115727.945    23115736.929
  24091473.813    -6059651.81849  -4695977.68645  24091472.871    24091483.400
  22271638.740   -14157916.43849 -10767257.99147  22271638.026    22271647.649
  23725225.769   -11837469.64249  -8758515.28445  23725224.589    23725232.388
  23342926.172    -6706744.79749  -5212448.43846  23342925.589    23342935.237
  22287079.602   -13632196.82849 -10331394.89247  22287078.956    22287083.976
  21117747.895   -20580321.22749 -16012323.50548  21117747.368    21117754.573
  20272955.586   -28326089.15949 -22041346.53948  20272955.465    20272960.668
 04  7 23  0 42 30.0000000  0  8G 3G10G 8G19G 1G23G27G13
  23113389.002   -13749379.75849 -10699762.75446  23113388.384    23113397.332
  24077482.910    -6133174.10549  -4753267.64445  24077482.006    24077492.410
  22258399.218   -14227490.01249 -10821471.00747  22258398.492    22258408.116
  23711429.427   -11909968.72649  -8815007.95945  23711428.210    23711436.030
  23359792.576    -6618111.25849  -5143383.43046  23359791.983    23359801.681
  22303069.598   -13548168.77149 -10265918.48647  22303068.967    22303073.989
  21112309.312   -20608900.85049 -16034593.25548  21112308.763    21112315.982
  20275689.103   -28311724.09749 -22030152.93948  20275689.003    20275694.185
 04  7 23  0 43  0.0000000  0  8G 3G10G 8G19G 1G23G27G13
  23111153.289   -13761127.98849 -10708917.13546  23111152.692    23111161.589
  24063572.671    -6206272.26449  -4810227.11545  24063571.667    24063582.048
  22245194.154   -14296882.44549 -10875542.88647  22245193.433    22245203.028
  23697681.688   -11982212.94149  -8871302.01645  23697680.557    23697688.291
  23376701.545    -6529253.59349  -5074143.79245  23376700.947    23376710.759
  22319115.381   -13463847.53249 -10200213.63247  22319114.728    22319119.785
  21106905.479   -20637297.83149 -16056720.69348  21106904.934    21106912.132
  20278508.960   -28296905.68049 -22018606.08448  20278508.841    20278513.966
 04  7 23  0 43 30.0000000  0  8G 3G10G 8G19G 1G23G27G13
  23109021.512   -13772330.35449 -10717646.17446  23109020.908    23109029.731
  24049743.373    -6278944.59649  -4866854.76845  24049742.410    24049752.852
  22232023.597   -14366093.66149 -10929473.56247  22232022.881    22232032.421
  23683983.069   -12054200.06049  -8927395.74845  23683981.840    23683989.492
  23393652.877    -6440173.49449  -5004730.82045  23393652.351    23393662.237
  22335216.591   -13379235.15249 -10134281.92847  22335215.981    22335220.941
  21101536.197   -20665513.02949 -16078706.48248  21101535.671    21101542.866
  20281415.007   -28281634.14149 -22006706.15348  20281414.899    20281420.001
 04  7 23  0 44  0.0000000  0  8G 3G10G 8G19G 1G23G27G13
  23106993.849   -13782986.03149 -10725949.22946  23106993.142    23107001.964
  24035995.544    -6351189.23349  -4923149.15945  24035994.458    24036005.049
  22218887.434   -14435124.13849 -10983263.39847  22218886.695    22218896.219
  23670333.728   -12125927.55849  -8983287.17045  23670332.440    23670340.128
  23410646.552    -6350872.30149  -4935145.55445  23410646.016    23410655.789
  22351373.090   -13294332.92849 -10068124.37847  22351372.457    22351377.277
  21096201.482   -20693546.82549 -16100550.92048  21096200.944    21096208.108
  20284407.326   -28265909.13449 -21994452.86848  20284407.217    20284412.305
 04  7 23  0 44 30.0000000  0  8G 3G10G 8G19G 1G23G27G13
  23105070.004   -13793095.13049 -10733826.37046  23105069.384    23105078.222
  24022329.488    -6423004.73649  -4979109.16445  24022328.328    24022338.847
  22205785.459   -14503974.73849 -11036913.06947  22205784.755    22205794.228
  23656734.008   -12197393.33049  -9038974.65345  23656732.785    23656740.605
  23427682.075    -6261352.03649  -4865389.59145  23427681.383    23427691.051
  22367584.296   -13209142.81249 -10001742.47547  22367583.584    22367588.534
  21090901.114   -20721400.17649 -16122254.74948  21090900.583    21090907.701
  20287485.874   -28249731.07749 -21981846.55448  20287485.776    20287490.856
 04  7 23  0 45  0.0000000  0  8G 3G10G 8G19G 1G23G27G13
  23103250.933   -13802654.54349 -10741275.19146  23103250.312    23103259.106
  24008745.847    -6494386.86849  -5034731.48945  24008744.822    24008755.237
  22192718.339   -14572642.30949 -11090420.11147  22192717.651    22192727.066
  23643185.183   -12268592.36349  -9094454.30445  23643183.965    23643191.689
  23444759.449    -6171611.48649  -4795461.99245  23444758.691    23444768.003
  22383850.322   -13123664.01749  -9935135.63247  22383849.643    22383854.600
  21085635.495   -20749071.01849 -16143816.36348  21085634.949    21085642.041
  20290651.114   -28233097.38349 -21968885.19848  20290651.015    20290656.092
 04  7 23  0 45 30.0000000  0  9G 3G10G28G 8G19G 1G23G27G13
  23101534.869   -13811672.30549 -10748301.93646  23101534.231    23101543.101
  23995243.443    -6565342.24049  -5090021.26145  23995242.329    23995252.907
  24769007.381    -3087641.57349  -2389085.69244  24769007.105    24769025.426
  22179684.340   -14641135.91649 -11143791.59847  22179683.625    22179693.001
  23629685.808   -12339530.78749  -9149730.88546  23629684.700    23629692.358
  23461876.480    -6081660.81249  -4725370.63745  23461875.702    23461885.132
  22400169.446   -13037906.59549  -9868311.67247  22400168.766    22400173.626
  21080402.798   -20776568.56549 -16165242.94148  21080402.261    21080409.359
  20293901.456   -28216016.49349 -21955575.37648  20293901.375    20293906.472
 04  7 23  0 46  0.0000000  0  9G 3G10G28G 8G19G 1G23G27G13
  23099923.811   -13820136.96249 -10754897.68346  23099923.316    23099932.280
  23981824.613    -6635858.28049  -5144968.71345  23981823.469    23981834.087
  24748916.264    -3193219.36749  -2471353.78144  24748915.963    24748934.211
  22166685.396   -14709445.18949 -11197019.45847  22166684.664    22166693.997
  23616238.583   -12410195.09949  -9204793.88446  23616237.550    23616245.277
  23479035.117    -5991490.52049  -4655108.15545  23479034.503    23479044.120
  22416543.384   -12951861.15049  -9801263.28246  22416542.670    22416547.518
  21075205.093   -20803882.39449 -16186526.36448  21075204.560    21075211.649
  20297238.993   -28198477.49749 -21941908.59348  20297238.904    20297244.013
 04  7 23  0 46 30.0000000  0  9G 3G10G28G 8G19G 1G23G27G13
  23098418.346   -13828047.82649 -10761061.89346  23098417.918    23098426.829
  23968489.810    -6705932.68749  -5199572.02245  23968488.710    23968499.436
  24728842.699    -3298705.10049  -2553550.15145  24728842.219    24728860.432
  22153721.683   -14777569.53349 -11250103.20547  22153720.978    22153730.250
  23602844.029   -12480582.80849  -9259641.34046  23602843.032    23602850.738
  23496235.471    -5901101.68449  -4584675.37845  23496234.925    23496244.769
  22432971.867   -12865528.92449  -9733991.43046  22432971.167    22432976.010
  21070042.325   -20831012.68549 -16207666.76648  21070041.794    21070048.860
  20300663.815   -28180479.93449 -21927884.48348  20300663.703    20300668.789
 04  7 23  0 47  0.0000000  0  9G 3G10G28G 8G19G 1G23G27G13
  23097018.422   -13835403.86649 -10766793.77746  23097017.998    23097026.927
  23955239.566    -6775563.12349  -5253829.37145  23955238.454    23955249.159
  24708787.137    -3404096.78649  -2635673.22845  24708786.644    24708804.630
  22140793.197   -14845508.60449 -11303042.58647  22140792.449    22140801.688
  23589502.989   -12550690.56649  -9314270.62646  23589501.908    23589509.616
  23513477.445    -5810495.29249  -4514073.07845  23513476.828    23513486.716
  22449454.703   -12778910.84749  -9666496.82846  22449454.046    22449458.865
  21064914.503   -20857959.27249 -16228664.02348  21064913.984    21064921.040
  20304176.011   -28162023.22949 -21913502.60148  20304175.911    20304180.958
 04  7 23  0 47 30.0000000  0  9G 3G10G28G 8G19G 1G23G27G13
  23095723.840   -13842205.95449 -10772094.01046  23095723.493    23095732.486
  23942073.811    -6844749.11349  -5307740.40745  23942072.758    23942083.364
  24688749.545    -3509394.18449  -2717722.83645  24688748.775    24688766.782
  22127899.738   -14913263.65349 -11355838.57747  22127898.985    22127908.176
  23576215.477   -12620517.06649  -9368680.75446  23576214.337    23576222.011
  23530760.299    -5719674.03549  -4443303.36645  23530759.594    23530769.471
  22465991.410   -12692009.97649  -9598781.87246  22465990.748    22465995.606
  21059821.301   -20884723.89949 -16249519.49048  21059820.760    21059827.794
  20307775.293   -28143108.77449 -21898764.02748  20307775.190    20307780.246
 04  7 23  0 48  0.0000000  0  9G 3G10G28G 8G19G 1G23G27G13
  23094534.846   -13848453.71149 -10776962.28746  23094534.507    23094543.551
  23928993.012    -6913488.84649  -5361303.69845  23928991.963    23929002.515
  24668730.171    -3614596.07049  -2799698.00645  24668729.374    24668746.995
  22115041.332   -14980834.75549 -11408491.23347  22115040.556    22115049.654
  23562981.801   -12690059.96549  -9422869.90446  23562980.688    23562988.272
  23548083.571    -5628639.42549  -4372367.38445  23548082.951    23548092.818
  22482581.712   -12604827.70149  -9530847.63946  22482581.033    22482585.913
  21054762.602   -20911307.08149 -16270233.56748  21054762.062    21054769.105
  20311461.710   -28123736.22549 -21883668.49648  20311461.598    20311466.688
 04  7 23  0 48 30.0000000  0  9G 3G10G28G 8G19G 1G23G27G13
  23093451.597   -13854146.30749 -10781397.97346  23093451.196    23093460.212
  23915997.536    -6981780.12949  -5414517.56945  23915996.471    23916006.920
  24648729.203    -3719700.63149  -2881597.35045  24648728.450    24648745.690
  22102217.858   -15048221.87349 -11461000.52747  22102217.124    22102226.174
  23549802.618   -12759316.45949  -9476835.86846  23549801.502    23549809.016
  23565447.339    -5537392.69549  -4301266.14845  23565446.740    23565456.634
  22499225.115   -12517365.40249  -9462695.21446  22499224.441    22499229.399
  21049738.415   -20937709.03149 -16290806.42948  21049737.880    21049744.891
  20315235.374   -28103905.54549 -21868215.98748  20315235.265    20315240.314
 04  7 23  0 49  0.0000000  0  9G 3G10G28G 8G19G 1G23G27G13
  23092474.409   -13859282.26849 -10785399.91346  23092473.893    23092482.825
  23903087.794    -7049620.39149  -5467379.97545  23903086.818    23903097.112
  24628747.157    -3824705.41249  -2963418.93845  24628746.474    24628763.569
  22089429.488   -15115424.45349 -11513366.01847  22089428.737    22089437.766
  23536678.736   -12828283.19049  -9530576.02246  23536677.547    23536684.969
  23582851.459    -5445934.30949  -4229999.97045  23582850.902    23582860.799
  22515921.783   -12429623.63649  -9394325.02346  22515921.122    22515926.123
  21044748.847   -20963929.06649 -16311237.53448  21044748.294    21044755.280
  20319096.392   -28083615.57949 -21852405.58848  20319096.273    20319101.306
 04  7 23  0 49 30.0000000  0  9G 3G10G28G 8G19G 1G23G27G13
  23091602.870   -13863861.56049 -10788968.08446  23091602.377    23091611.317
  23890264.344    -7117007.84349  -5519889.55345  23890263.305    23890273.577
  24608784.350    -3929609.16349  -3045161.80845  24608783.735    24608800.626
  22076676.224   -15182442.33849 -11565587.59647  22076675.496    22076684.518
  23523610.419   -12896957.56149  -9584088.37946  23523609.154    23523616.592
  23600295.468    -5354265.79849  -4158570.06345  23600294.926    23600304.892
  22532671.414   -12341604.09649  -9325738.40146  22532670.736    22532675.699
  21039793.760   -20989967.91349 -16331527.46048  21039793.224    21039800.158
  20323044.781   -28062866.49249 -21836237.43648  20323044.669    20323049.714
 04  7 23  0 50  0.0000000  0  9G 3G10G28G 8G19G 1G23G27G13
  23090837.591   -13867882.55449 -10792101.22546  23090837.126    23090845.956
  23877527.449    -7183939.85449  -5572044.22945  23877526.413    23877536.727
  24588841.214    -4034409.50249  -3126824.10845  24588840.561    24588857.513
  22063958.391   -15249274.51849 -11617664.46947  22063957.660    22063966.633
  23510598.226   -12965336.14149  -9637370.24946  23510597.003    23510604.466
  23617779.252    -5262387.63249  -4086976.77645  23617778.702    23617788.779
  22549473.868   -12253307.34749  -9256935.76946  22549473.134    22549478.005
  21034873.346   -21015824.81049 -16351675.60048  21034872.801    21034879.695
  20327080.733   -28041657.24449 -21819710.72248  20327080.615    20327085.665
 04  7 23  0 50 30.0000000  0  9G 3G10G28G 8G19G 1G23G27G13
  23090178.398   -13871345.93949 -10794799.87646  23090177.962    23090186.781
  23864877.493    -7250415.38949  -5623843.23445  23864876.430    23864886.811
  24568917.861    -4139105.89449  -3208405.39745  24568917.263    24568934.210
  22051275.723   -15315921.87749 -11669597.31547  22051274.980    22051283.952
  23497642.679   -13033417.29849  -9690420.38846  23497641.542    23497648.939
  23635302.495    -5170302.11949  -4015221.92845  23635302.031    23635312.057
  22566328.492   -12164735.66149  -9187918.89146  22566327.756    22566332.614
  21029987.257   -21041501.11649 -16371683.02148  21029986.703    21029993.551
  20331204.174   -28019988.34749 -21802825.83848  20331204.060    20331209.101
 04  7 23  0 51  0.0000000  0  9G 3G10G28G 8G19G 1G23G27G13
  23089625.771   -13874249.40449 -10797062.22646  23089625.355    23089634.180
  23852315.053    -7316430.71249  -5675283.61145  23852314.037    23852324.512
  24549014.990    -4243694.77149  -3289902.90445  24549014.412    24549031.363
  22038628.503   -15382382.91249 -11721384.97347  22038627.756    22038636.666
  23484744.680   -13101196.75449  -9743235.45446  23484743.500    23484750.782
  23652865.564    -5078008.82049  -3943305.16745  23652865.052    23652874.905
  22583235.439   -12075888.73749  -9118687.54146  22583234.752    22583239.775
  21025135.840   -21066995.12449 -16391548.39048  21025135.292    21025142.107
  20335415.355   -27997858.16449 -21785581.50948  20335415.235    20335420.257
 04  7 23  0 51 30.0000000  0  9G 3G10G28G 8G19G 1G23G27G13
  23089179.478   -13876593.99049 -10798889.10446  23089179.104    23089187.910
  23839840.268    -7381985.32149  -5726365.00045  23839839.273    23839849.815
  24529132.655    -4348176.05549  -3371316.56345  24529131.966    24529149.030
  22026016.497   -15448658.99549 -11773028.50747  22026015.737    22026024.625
  23471904.315   -13168673.03549  -9795814.26646  23471903.120    23471910.351
  23670467.660    -4985510.43749  -3871228.59746  23670467.037    23670476.901
  22600194.267   -11986769.28749  -9049243.83146  22600193.601    22600198.727
  21020318.793   -21092308.45049 -16411272.96948  21020318.267    21020325.058
  20339714.135   -27975267.78049 -21767978.57948  20339714.029    20339719.040
 04  7 23  0 52  0.0000000  0  9G 3G10G28G 8G19G 1G23G27G13
  23088839.879   -13878377.94649 -10800279.11446  23088839.559    23088848.322
  23827453.816    -7447075.95649  -5777084.83445  23827452.788    23827463.387
  24509271.328    -4452546.93149  -3452644.19445  24509270.705    24509287.606
  22013439.921   -15514748.57949 -11824526.71147  22013439.183    22013448.064
  23459122.349   -13235842.15449  -9848153.74746  23459121.178    23459128.424
  23688108.559    -4892807.02249  -3798992.27445  23688107.934    23688118.005
  22617204.983   -11897377.58949  -8979587.99046  22617204.305    22617209.405
  21015536.309   -21117440.22149 -16430856.07848  21015535.758    21015542.538
  20344100.724   -27952216.12449 -21750016.21648  20344100.612    20344105.599
 04  7 23  0 52 30.0000000  0  9G 3G10G28G 8G19G 1G23G27G13
  23088607.155   -13879601.08949 -10801232.15746  23088606.720    23088615.456
  23815156.082    -7511700.75449  -5827441.67445  23815155.042    23815165.623
  24489431.270    -4556805.72449  -3533884.46245  24489430.671    24489447.482
  22000898.878   -15580651.55549 -11875879.50547  22000898.116    22000906.938
  23446399.367   -13302701.67949  -9900251.97046  23446398.206    23446405.442
  23705788.131    -4799900.10249  -3726597.36045  23705787.605    23705797.741
  22634267.254   -11807715.19949  -8909721.21746  22634266.533    22634271.596
  21010788.300   -21142390.72849 -16450297.93748  21010787.765    21010794.532
  20348575.152   -27928702.79749 -21731694.11048  20348575.035    20348580.016
 04  7 23  0 53  0.0000000  0  9G 3G10G28G 8G19G 1G23G27G13
  23088481.292   -13880262.67149 -10801747.63846  23088480.708    23088489.390
  23802947.359    -7575857.54449  -5877433.82945  23802946.284    23802956.765
  24469612.910    -4660950.57249  -3615035.90845  24469612.271    24469629.017
  21988393.475   -15646366.81849 -11927086.01547  21988392.713    21988401.551
  23433735.841   -13369248.64049  -9952106.63546  23433734.643    23433741.839
  23723506.361    -4706790.56549  -3654044.58445  23723505.858    23723515.965
  22651380.834   -11717783.15549  -8839644.32446  22651380.086    22651385.092
  21006074.825   -21167159.61649 -16469598.27648  21006074.288    21006081.073
  20353137.492   -27904727.59849 -21713012.09948  20353137.366    20353142.333
 04  7 23  0 53 30.0000000  0  9G 3G10G28G 8G19G 1G23G27G13
  23088462.065   -13880362.63149 -10801825.48246  23088461.611    23088470.325
  23790827.969    -7639544.96749  -5927060.23645  23790826.833    23790837.221
  24449816.439    -4764980.47849  -3696097.78645  24449815.835    24449832.441
  21975923.666   -15711895.70749 -11978147.30847  21975922.905    21975931.658
  23421132.167   -13435480.78349 -10003716.00446  23421130.979    23421138.089
  23741262.813    -4613480.11649  -3581335.25645  23741262.296    23741272.356
  22668545.336   -11627583.41749  -8769358.83946  22668544.593    22668549.507
  21001395.764   -21191747.87349 -16488757.86448  21001395.237    21001402.004
  20357787.614   -27880290.60149 -21693970.25048  20357787.507    20357792.486
 04  7 23  0 54  0.0000000  0  9G 3G10G28G 8G19G 1G23G27G13
  23088550.223   -13879899.49349 -10801464.57746  23088549.720    23088558.479
  23778798.393    -7702760.02449  -5976318.56245  23778797.312    23778807.608
  24430042.321    -4868892.61249  -3777067.87945  24430041.674    24430058.296
  21963489.585   -15777236.60349 -12029062.10947  21963488.843    21963497.517
  23408589.166   -13501394.32349 -10055077.12146  23408587.972    23408594.996
  23759057.333    -4519969.04849  -3508469.60745  23759056.867    23759067.038
  22685760.604   -11537116.33149  -8698865.02846  22685759.895    22685764.873
  20996751.263   -21216154.45349 -16507775.88448  20996750.732    20996757.469
  20362525.837   -27855390.94549 -21674567.88548  20362525.727    20362530.683
 04  7 23  0 54 30.0000000  0  9G 3G10G28G 8G19G 1G23G27G13
  23088745.683   -13878873.00349 -10800664.70346  23088745.094    23088753.920
  23766859.009    -7765500.94049  -6025207.42245  23766857.927    23766868.277
  24410290.858    -4972685.56549  -3857945.09045  24410290.199    24410306.689
  21951091.297   -15842389.56949 -12079830.47247  21951090.547    21951099.173
  23396107.277   -13566986.98449 -10106188.18746  23396106.073    23396113.082
  23776889.770    -4426258.67649  -3435448.64245  23776889.312    23776899.690
  22703026.454   -11446383.33849  -8628164.00546  22703025.792    22703030.875
  20992141.280   -21240379.62349 -16526652.54548  20992140.764    20992147.486
  20367352.139   -27830028.38149 -21654804.81548  20367352.016    20367357.011
 04  7 23  0 55  0.0000000  0  9G 3G10G28G 8G19G 1G23G27G13
  23089048.121   -13877283.16449 -10799425.87846  23089047.615    23089056.410
  23755010.205    -7827766.09149  -6073725.55245  23755009.150    23755019.528
  24390562.374    -5076357.71549  -3938728.17345  24390561.627    24390578.102
  21938728.644   -15907354.78749 -12130452.53347  21938727.895    21938736.563
  23383686.909   -13632256.19249 -10157047.23646  23383685.662    23383692.749
  23794760.100    -4332350.52249  -3362273.57845  23794759.600    23794769.912
  22720342.638   -11355386.08049  -8557257.08846  22720342.004    22720347.080
  20987565.845   -21264423.60549 -16545388.02948  20987565.311    20987571.991
  20372266.487   -27804202.89549 -21634681.02248  20372266.364    20372271.408
 04  7 23  0 55 30.0000000  0  9G 3G10G28G 8G19G 1G23G27G13
  23089458.142   -13875128.80149 -10797747.15446  23089457.621    23089466.345
  23743252.466    -7889552.67449  -6121870.79345  23743251.400    23743261.869
  24370857.389    -5179906.70849  -4019415.27445  24370856.707    24370872.978
  21926401.957   -15972131.18949 -12180927.46147  21926401.218    21926409.828
  23371328.687   -13697198.35749 -10207651.43746  23371327.447    23371334.575
  23812668.262    -4238244.93149  -3288944.66845  23812667.663    23812677.677
  22737709.150   -11264124.88749  -8486144.50946  22737708.502    22737713.496
  20983024.901   -21288285.91349 -16563981.94048  20983024.385    20983031.049
  20377269.132   -27777913.71449 -21614195.91048  20377269.010    20377274.033
 04  7 23  0 56  0.0000000  0  9G 3G10G28G 8G19G 1G23G27G13
  23089975.338   -13872410.76449 -10795629.19246  23089974.883    23089983.574
  23731585.781    -7950860.46949  -6169642.96545  23731584.726    23731595.190
  24351175.976    -5283332.20849  -4100006.12145  24351175.293    24351191.522
  21914111.020   -16036719.86649 -12231256.11947  21914110.267    21914118.824
  23359032.992   -13761812.17349 -10257999.77246  23359031.829    23359038.866
  23830613.295    -4143944.67149  -3215464.08545  23830612.570    23830622.443
  22755125.320   -11172602.78149  -8414828.62446  22755124.635    22755129.583
  20978518.321   -21311967.87849 -16582435.33248  20978517.794    20978524.433
  20382359.742   -27751162.23149 -21593350.56748  20382359.636    20382364.634
 04  7 23  0 56 30.0000000  0  9G 3G10G28G 8G19G 1G23G27G13
  23090600.250   -13869126.51449 -10793070.02146  23090599.800    23090608.479
  23720011.242    -8011684.84249  -6217038.45245  23720010.139    23720020.581
  24331518.731    -5386630.26249  -4180497.67445  24331518.041    24331534.191
  21901856.261   -16101118.47749 -12281436.68447  21901855.521    21901863.997
  23346800.883   -13826092.50149 -10308088.27346  23346799.697    23346806.619
  23848595.168    -4049448.69649  -3141830.98445  23848594.441    23848604.402
  22772591.202   -11080818.83949  -8343308.70946  22772590.534    22772595.564
  20974046.513   -21335467.16549 -16600746.38048  20974045.970    20974052.563
  20387538.842   -27723945.69849 -21572142.84748  20387538.731    20387543.705
 04  7 23  0 57  0.0000000  0  9G 3G10G28G 8G19G 1G23G27G13
  23091332.882   -13865276.89149 -10790070.31746  23091332.343    23091341.064
  23708528.734    -8072025.02249  -6264056.65445  23708527.688    23708538.108
  24311885.770    -5489800.24249  -4260889.44045  24311885.053    24311901.234
  21889637.588   -16165327.32749 -12331469.38247  21889636.850    21889645.245
  23334632.458   -13890037.69349 -10357915.62146  23334631.241    23334638.243
  23866613.918    -3954759.30549  -3068047.17345  23866613.217    23866623.363
  22790106.410   -10988775.43249  -8271586.60646  22790105.748    22790110.805
  20969609.195   -21358784.92949 -16618915.98648  20969608.662    20969615.241
  20392806.207   -27696265.19349 -21550573.59348  20392806.104    20392811.096
 04  7 23  0 57 30.0000000  0  9G 3G10G28G 8G19G 1G23G27G13
  23092173.106   -13860861.25449 -10786629.55046  23092172.542    23092181.335
  23697138.758    -8131879.08749  -6310696.07245  23697137.733    23697148.074
  24292277.485    -5592840.20849  -4341179.89045  24292276.738    24292292.987
  21877455.024   -16229346.34249 -12381354.16647  21877454.294    21877462.668
  23322528.207   -13953644.91449 -10407479.61646  23322527.081    23322534.178
  23884669.419    -3859877.57349  -2994113.48145  23884668.758    23884678.980
  22807670.785   -10896473.84349  -8199663.33246  22807670.158    22807675.215
  20965206.468   -21381920.96049 -16636943.98348  20965205.940    20965212.519
  20398161.986   -27668120.26049 -21528642.45148  20398161.896    20398166.885
 04  7 23  0 58  0.0000000  0  9G 3G10G28G 8G19G 1G23G27G13
  23093121.059   -13855879.52449 -10782747.67346  23093120.486    23093129.254
  23685841.644    -8191245.28249  -6356955.31845  23685840.674    23685850.763
  24272694.334    -5695748.67949  -4421367.88645  24272693.574    24272709.671
  21865308.650   -16293175.33349 -12431090.87947  21865307.923    21865316.250
  23310488.765   -14016911.94149 -10456778.50546  23310487.635    23310494.697
  23902761.235    -3764805.08049  -2920031.15745  23902760.523    23902770.749
  22825284.033   -10803915.44749  -8127539.94846  22825283.425    22825288.537
  20960838.295   -21404875.62449 -16654830.65748  20960837.754    20960844.324
  20403606.174   -27639510.87549 -21506349.39548  20403606.057    20403611.044
 04  7 23  0 58 30.0000000  0  9G 3G10G28G 8G19G 1G23G27G13
  23094176.782   -13850331.24649 -10778424.32746  23094176.215    23094185.026
  23674637.804    -8250121.29049  -6402832.61545  23674636.890    23674646.850
  24253136.609    -5798523.62749  -4501451.82645  24253135.993    24253151.715
  21853198.446   -16356813.81149 -12480679.14547  21853197.737    21853206.053
  23298514.801   -14079835.20949 -10505809.53746  23298513.735    23298520.589
  23920889.078    -3669542.59549  -2845800.77145  23920888.364    23920898.653
  22842946.072   -10711101.01449  -8055217.07146  22842945.488    22842950.590
  20956504.708   -21427648.43649 -16672575.62848  20956504.164    20956510.715
  20409138.679   -27610436.93149 -21483694.35048  20409138.587    20409143.586
 04  7 23  0 59  0.0000000  0  9G 3G10G28G 8G19G 1G23G27G13
  23095340.248   -13844215.78349 -10773659.01646  23095339.859    23095348.764
  23663527.691    -8308505.13649  -6448326.41145  23663526.662    23663536.596
  24233604.776    -5901162.91349  -4581430.07045  24233604.196    24233619.557
  21841124.777   -16420260.84349 -12530118.24347  21841124.045    21841132.370
  23286606.788   -14142411.79249 -10554570.42546  23286605.709    23286612.506
  23939052.920    -3574091.04749  -2771423.06745  23939052.229    23939062.519
  22860656.675   -10618032.01749  -7982695.83146  22860656.057    22860661.133
  20952205.737   -21450239.22849 -16690178.77248  20952205.210    20952211.755
  20414759.805   -27580897.78849 -21460676.81548  20414759.686    20414764.678
 04  7 23  0 59 30.0000000  0  9G 3G10G28G 8G19G 1G23G27G13
  23096611.773   -13837533.44449 -10768451.98246  23096611.428    23096620.359
  23652511.451    -8366395.45749  -6493435.65245  23652510.408    23652520.373
  24214098.794    -6003665.76249  -4661301.99445  24214098.170    24214113.307
  21829087.386   -16483517.07649 -12579408.66147  21829086.658    21829094.944
  23274765.209   -14204639.84349 -10603059.73346  23274764.076    23274770.841
  23957252.374    -3478452.25349  -2696899.47445  23957251.839    23957262.062
  22878415.261   -10524710.19649  -7909977.58046  22878414.623    22878419.675
  20947941.357   -21472648.52949 -16707640.49848  20947940.812    20947947.324
  20420469.347   -27550893.91349 -21437297.15548  20420469.233    20420474.207
 04  7 23  1  0  0.0000000  0  9G 3G10G28G 8G19G 1G23G27G13
  23097991.576   -13830282.92749 -10762802.22746  23097991.183    23098000.045
  23641589.632    -8423789.47449  -6538158.18345  23641588.609    23641598.579
  24194619.376    -6106029.04649  -4741065.17045  24194618.725    24194633.799
  21817086.535   -16546581.45949 -12628549.59447  21817085.796    21817094.055
  23262990.630   -14266515.55949 -10651274.48646  23262989.438    23262996.250
  23975487.602    -3382626.61149  -2622230.28845  23975487.175    23975497.329
  22896221.824   -10431135.93049  -7837062.61746  22896221.186    22896226.265
  20943711.695   -21494875.28949 -16724959.99348  20943711.141    20943717.624
  20426267.496   -27520424.44249 -21413554.68548  20426267.379    20426272.312
 04  7 23  1  0 30.0000000  0  9G 3G10G28G 8G19G 1G23G27G13
  23099479.250   -13822465.85349 -10756710.97346  23099478.824    23099487.467
  23630762.313    -8480686.84049  -6582493.71145  23630761.335    23630771.302
  24175166.553    -6208252.93749  -4820719.71145  24175165.822    24175180.860
  21805121.970   -16609455.14649 -12677541.92847  21805121.199    21805129.461
  23251283.328   -14328037.88149 -10699213.89046  23251282.092    23251288.780
  23993757.992    -3286617.01149  -2547417.73945  23993757.357    23993767.615
  22914075.829   -10337312.35949  -7763953.38946  22914075.216    22914080.251
  20939516.446   -21516921.12649 -16742138.51048  20939515.905    20939522.339
  20432153.902   -27489490.75549 -21389450.49148  20432153.794    20432158.766
 04  7 23  1  1  0.0000000  0  9G 3G10G28G 8G19G 1G23G27G13
  23101074.785   -13814081.23549 -10750177.49346  23101074.409    23101082.935
  23620030.021    -8537085.11849  -6626440.34845  23620028.955    23620039.054
  24155740.725    -6310334.98149  -4900263.69345  24155739.960    24155754.956
  21793193.885   -16672137.02749 -12726384.81147  21793193.137    21793201.310
  23239643.775   -14389203.51249 -10746875.33546  23239642.490    23239649.197
  24012062.944    -3190423.97949  -2472462.24945  24012062.315    24012072.668
  22931977.223   -10243240.12049  -7690650.40946  22931976.603    22931981.681
  20935355.781   -21538785.38749 -16759175.54648  20935355.235    20935361.625
  20438128.804   -27458092.17849 -21364984.04348  20438128.728    20438133.703
 04  7 23  1  1 30.0000000  0  9G 3G10G28G 8G19G 1G23G27G13
  23102778.521   -13805128.38449 -10743201.22446  23102778.099    23102786.633
  23609393.124    -8592982.04249  -6669996.31745  23609392.038    23609402.136
  24136342.241    -6412272.78949  -4979695.27545  24136341.450    24136356.392
  21781302.487   -16734626.23249 -12775077.55347  21781301.729    21781309.851
  23228072.696   -14450009.15649 -10794256.29346  23228071.421    23228078.196
  24030402.607    -3094048.02949  -2397364.23745  24030402.088    24030412.437
  22949925.873   -10148920.03949  -7617154.30346  22949925.217    22949930.385
  20931229.827   -21560467.26849 -16776070.47548  20931229.282    20931235.665
  20444192.331   -27426228.11949 -21340154.88848  20444192.230    20444197.206
 04  7 23  1  2  0.0000000  0  9G 3G10G28G 8G19G 1G23G27G13
  23104590.488   -13795606.98049 -10735781.91146  23104589.945    23104598.511
  23598852.057    -8648375.44649  -6713159.92845  23598851.035    23598860.923
  24116971.539    -6514064.51949  -5059013.02045  24116970.920    24116985.737
  21769447.902   -16796921.97749 -12823619.53947  21769447.136    21769455.232
  23216570.695   -14510451.76549 -10841354.38046  23216569.513    23216576.356
  24048777.120    -2997490.16749  -2322124.48245  24048776.558    24048786.900
  22967921.476   -10054353.08749  -7543465.81846  22967920.809    22967925.952
  20927138.585   -21581966.62449 -16792823.18148  20927138.054    20927144.464
  20450344.460   -27393898.21449 -21314962.73848  20450344.391    20450349.347
 04  7 23  1  2 30.0000000  0  9G 3G10G28G 8G19G 1G23G27G13
  23106510.359   -13785517.30649 -10727919.77846  23106509.906    23106518.559
  23588407.177    -8703263.80349  -6755929.99745  23588406.107    23588415.920
  24097628.860    -6615708.80649  -5138215.86645  24097628.220    24097643.070
  21757630.091   -16859024.44449 -12872010.91647  21757629.297    21757637.314
  23205138.344   -14570529.13849 -10888167.87346  23205137.167    23205143.922
  24067185.976    -2900752.20649  -2246744.41145  24067185.284    24067195.679
  22985963.651    -9959541.10049  -7469586.40946  22985962.999    22985968.050
  20923082.000   -21603283.88749 -16809434.00648  20923081.482    20923087.884
  20456585.206   -27361102.83849 -21289407.88848  20456585.141    20456590.086
 04  7 23  1  3  0.0000000  0  9G 3G10G28G 8G19G 1G23G27G13
  23108538.663   -13774858.59549 -10719614.22346  23108538.192    23108546.925
  23578058.759    -8757644.70349  -6798304.64145  23578057.770    23578067.439
  24078314.765    -6717203.17749  -5217301.87045  24078314.111    24078328.981
  21745849.204   -16920932.85649 -12920251.08347  21745848.433    21745856.380
  23193776.103   -14630237.86249 -10934694.10346  23193774.954    23193781.516
  24085628.774    -2803834.65249  -2171224.39445  24085628.096    24085638.692
  23004052.335    -9864484.69149  -7395516.54946  23004051.706    23004056.660
  20919060.288   -21624417.94249 -16825902.07848  20919059.756    20919066.145
  20462914.716   -27327841.20049 -21263489.71048  20462914.629    20462919.555
 04  7 23  1  3 30.0000000  0  9G 3G10G28G 8G19G 1G23G27G13
  23110675.044   -13763631.91049 -10710866.10946  23110674.473    23110683.292
  23567806.958    -8811518.00249  -6840283.74445  23567805.908    23567815.707
  24059029.236    -6818547.27449  -5296270.77145  24059028.562    24059043.322
  21734105.052   -16982648.08349 -12968340.71547  21734104.283    21734112.176
  23182484.323   -14689576.67949 -10980932.10846  23182483.091    23182489.629
  24104105.179    -2706740.17049  -2095566.50045  24104104.595    24104115.444
  23022186.882    -9769186.57449  -7321258.33646  23022186.272    23022191.189
  20915073.141   -21645370.23449 -16842228.52348  20915072.607    20915078.990
  20469332.697   -27294114.57449 -21237209.20748  20469332.586    20469337.491
 04  7 23  1  4  0.0000000  0  9G 3G10G28G 8G19G 1G23G27G13
  23112919.975   -13751835.57049 -10701674.09546  23112919.338    23112927.994
  23557652.397    -8864880.13349  -6881864.53945  23557651.367    23557661.065
  24039772.886    -6919737.81949  -5375119.99745  24039772.313    24039786.750
  21722398.012   -17044168.31749 -13016278.41847  21722397.257    21722405.102
  23171263.713   -14748541.39149 -11026878.61846  23171262.509    23171268.963
  24122615.551    -2609468.31449  -2019770.43345  24122614.981    24122625.882
  23040367.448    -9673646.58449  -7246811.65746  23040366.906    23040371.943
  20911120.938   -21666139.05049 -16858412.00548  20911120.423    20911126.762
  20475839.462   -27259921.19849 -21210565.01248  20475839.331    20475844.236
 04  7 23  1  4 30.0000000  0  9G 3G10G28G 8G19G 1G23G27G13
  23115272.853   -13739471.39249 -10692039.59646  23115272.191    23115280.709
  23547595.211    -8917730.96349  -6923046.91545  23547594.230    23547603.777
  24020545.772    -7020774.76349  -5453849.53045  24020545.223    24020559.482
  21710727.934   -17105494.59149 -13064064.98247  21710727.186    21710734.980
  23160114.489   -14807130.81849 -11072532.71246  23160113.318    23160119.752
  24141159.262    -2512022.03349  -1943838.45645  24141158.533    24141169.393
  23058593.661    -9577867.90649  -7172178.98746  23058593.078    23058598.203
  20907203.364   -21686726.04649 -16874453.80448  20907202.815    20907209.145
  20482434.604   -27225263.23049 -21183558.79748  20482434.506    20482439.376
 04  7 23  1  5  0.0000000  0  9G 3G10G28G 8G19G 1G23G27G13
  23117733.754   -13726537.26349 -10681960.99546  23117733.287    23117741.867
  23537636.042    -8970066.67549  -6963827.89845  23537635.025    23537644.565
  24001348.604    -7121654.44949  -5532456.52945  24001347.924    24001362.265
  21699095.163   -17166624.63149 -13111698.63847  21699094.400    21699102.157
  23149037.346   -14865340.29849 -11117890.73846  23149036.286    23149042.823
  24159736.235    -2414400.61149  -1867770.02245  24159735.562    24159746.215
  23076865.553    -9481849.78149  -7097359.75246  23076864.878    23076870.010
  20903320.811   -21707128.99349 -16890352.20148  20903320.262    20903326.571
  20489118.605   -27190138.61549 -21156188.96848  20489118.478    20489123.336
 04  7 23  1  5 30.0000000  0  9G 3G10G28G 8G19G 1G23G27G13
  23120302.983   -13713035.57549 -10671440.13146  23120302.518    23120311.113
  23527774.656    -9021888.05949  -7004208.11745  23527773.601    23527783.169
  23982181.291    -7222377.48949  -5610941.45745  23982180.602    23982194.834
  21687499.362   -17227560.43149 -13159180.94447  21687498.588    21687506.305
  23138032.693   -14923169.74249 -11162952.64546  23138031.664    23138038.221
  24178345.545    -2316607.63449  -1791567.91645  24178344.950    24178355.611
  23095182.063    -9385596.00249  -7022356.89946  23095181.398    23095186.458
  20899472.850   -21727350.12949 -16906108.92448  20899472.296    20899478.620
  20495891.035   -27154549.26149 -21128457.00248  20495890.920    20495895.825
 04  7 23  1  6  0.0000000  0  9G 3G10G28G 8G19G 1G23G27G13
  23122980.522   -13698965.16949 -10660476.09346  23122979.934    23122988.402
  23518011.755    -9073192.30449  -7044185.36145  23518010.730    23518020.236
  23963044.355    -7322940.79949  -5689301.95045  23963043.701    23963057.902
  21675940.857   -17288300.12249 -13206510.44947  21675940.089    21675947.764
  23127101.275   -14980615.06749 -11207715.23646  23127100.231    23127106.759
  24196987.631    -2218643.15749  -1715232.15945  24196987.034    24196997.876
  23113543.404    -9289106.68449  -6947170.49546  23113542.717    23113547.787
  20895659.739   -21747388.04449 -16921722.88948  20895659.196    20895665.529
  20502752.082   -27118494.11949 -21100362.09148  20502751.960    20502756.871
 04  7 23  1  6 30.0000000  0  9G 3G10G28G 8G19G 1G23G27G13
  23125766.286   -13684325.74149 -10649068.67646  23125765.765    23125774.092
  23508347.547    -9123977.38049  -7083758.05045  23508346.551    23508356.065
  23943938.192    -7423342.41649  -5767536.45445  23943937.468    23943951.726
  21664419.791   -17348843.38949 -13253686.90847  21664419.015    21664426.655
  23116243.575   -15037673.44449 -11252176.30846  23116242.428    23116248.987
  24215662.226    -2120508.21849  -1638763.60545  24215661.635    24215672.436
  23131949.313    -9192382.87049  -6871801.37346  23131948.645    23131953.793
  20891881.617   -21767242.33349 -16937193.77748  20891881.062    20891887.368
  20509701.832   -27081973.02949 -21071904.10848  20509701.729    20509706.583
 04  7 23  1  7  0.0000000  0  9G 3G10G28G 8G19G 1G23G27G13
  23128660.268   -13669118.24549 -10637218.58246  23128659.682    23128667.947
  23498782.425    -9174242.36849  -7122925.47245  23498781.442    23498790.808
  23924862.856    -7523581.74349  -5845644.50745  23924862.134    23924876.391
  21652935.906   -17409190.91149 -13300710.84147  21652935.135    21652942.766
  23105459.716   -15094343.00649 -11296334.39946  23105458.573    23105465.120
  24234369.076    -2022204.90149  -1562163.83945  24234368.385    24234379.268
  23150399.481    -9095426.84249  -6796251.29246  23150398.862    23150404.052
  20888138.264   -21786913.80149 -16952522.20448  20888137.703    20888143.997
  20516740.076   -27044986.93749 -21043083.78748  20516739.947    20516744.778
 04  7 23  1  7 30.0000000  0  9G 3G10G28G 8G19G 1G23G27G13
  23131662.220   -13653342.16049 -10624925.47646  23131661.793    23131670.010
  23489316.694    -9223985.03049  -7161685.88545  23489315.695    23489324.933
  23905818.915    -7623656.25849  -5923624.15145  23905818.137    23905832.258
  21641489.497   -17469341.69349 -13347581.47847  21641488.729    21641496.352
  23094750.523   -15150620.79249 -11340187.22046  23094749.338    23094755.815
  24253107.725    -1923733.93249  -1485433.43745  24253107.062    24253117.785
  23168893.866    -8998239.29149  -6720520.82746  23168893.189    23168898.401
  20884429.867   -21806401.62349 -16967707.53448  20884429.310    20884435.588
  20523866.836   -27007535.41749 -21013900.79748  20523866.713    20523871.581
 04  7 23  1  8  0.0000000  0  9G 3G10G28G 8G19G 1G23G27G13
  23134772.479   -13636997.54649 -10612189.35346  23134772.030    23134780.261
  23479950.656    -9273203.62249  -7200037.92045  23479949.669    23479958.851
  23886806.711    -7723564.13749  -6001473.95045  23886805.960    23886819.743
  21630080.725   -17529294.89149 -13394298.16247  21630079.967    21630087.555
  23084116.280   -15206504.05249 -11383732.61646  23084115.130    23084121.557
  24271877.947    -1825096.34249  -1408573.21145  24271877.389    24271888.189
  23187431.872    -8900821.75649  -6644611.15346  23187431.156    23187436.450
  20880756.413   -21825705.61049 -16982749.61948  20880755.883    20880762.152
  20531082.197   -26969618.39049 -20984355.07848  20531082.068    20531086.981
 04  7 23  1  8 30.0000000  0  9G 3G10G28G 8G19G 1G23G27G13
  23137990.687   -13620085.19949 -10599010.82346  23137990.242    23137998.542
  23470684.376    -9321897.53149  -7237981.11945  23470683.344    23470692.560
  23867826.470    -7823304.50149  -6079193.22845  23867825.679    23867839.230
  21618709.390   -17589051.18049 -13440861.40947  21618708.630    21618716.182
  23073557.415   -15261990.86249 -11426969.11646  23073556.280    23073562.810
  24290679.345    -1726294.33149  -1331584.85945  24290678.793    24290689.806
  23206013.143    -8803176.42649  -6568523.97546  23206012.472    23206017.754
  20877117.888   -21844826.24849 -16997648.83248  20877117.322    20877123.604
  20538386.041   -26931236.62949 -20954447.22848  20538385.901    20538390.841
 04  7 23  1  9  0.0000000  0  9G 3G10G28G 8G19G 1G23G27G13
  23141317.065   -13602604.55649 -10585389.50246  23141316.510    23141324.898
  23461518.442    -9370064.31349  -7275513.58445  23461517.449    23461526.688
  23848878.550    -7922874.88349  -6156780.07545  23848877.796    23848891.117
  21607375.833   -17648608.92549 -13487269.93247  21607375.066    21607382.612
  23063074.462   -15317078.08649 -11469894.25346  23063073.466    23063080.028
  24309512.084    -1627328.26049  -1254468.70245  24309511.525    24309522.666
  23224637.784    -8705303.86049  -6492259.73646  23224637.108    23224642.255
  20873514.359   -21863762.73249 -17012404.54848  20873513.807    20873520.092
  20545778.396   -26892389.64149 -20924176.86548  20545778.274    20545783.181
 04  7 23  1  9 30.0000000  0  9G 3G10G28G 8G19G 1G23G27G13
  23144751.536   -13584556.29349 -10571325.86046  23144750.983    23144759.297
  23452453.015    -9417702.59949  -7312634.22345  23452452.025    23452461.331
  23829963.177    -8022273.88249  -6234233.40445  23829962.361    23829975.631
  21596079.903   -17707968.83149 -13533524.29247  21596079.146    21596086.687
  23052668.335   -15371763.30449 -11512506.11946  23052667.300    23052673.785
  24328375.786    -1528199.87449  -1177226.05145  24328375.236    24328386.469
  23243305.373    -8607205.65949  -6415819.67846  23243304.685    23243309.835
  20869945.906   -21882515.12549 -17027016.81948  20869945.377    20869951.658
  20553259.238   -26853077.87449 -20893544.34348  20553259.105    20553263.948
 04  7 23  1 10  0.0000000  0  9G 3G10G28G 8G19G 1G23G27G13
  23148294.014   -13565940.56049 -10556820.04346  23148293.400    23148301.590
  23443488.556    -9464811.23649  -7349342.14045  23443487.512    23443496.755
  23811080.630    -8121499.99749  -6311552.00145  23811079.843    23811093.080
  21584821.843   -17767129.88949 -13579623.71447  21584821.099    21584828.592
  23042339.095   -15426044.17449 -11554802.90946  23042338.031    23042344.498
  24347270.076    -1428910.69749  -1099858.10845  24347269.566    24347280.775
  23262015.536    -8508883.53549  -6339205.13446  23262014.862    23262020.033
  20866412.564   -21901083.42449 -17041485.63948  20866412.013    20866418.283
  20560828.477   -26813301.33349 -20862549.65848  20560828.345    20560833.244
 04  7 23  1 10 30.0000000  0  9G 3G10G28G 8G19G 1G23G27G13
  23151944.241   -13546757.66449 -10541872.28146  23151943.753    23151951.964
  23434625.074    -9511388.80249  -7385636.23445  23434624.067    23434633.260
  23792231.334    -8220551.56949  -6388734.62545  23792230.592    23792243.706
  21573601.642   -17826092.24549 -13625568.28747  21573600.867    21573608.335
  23032087.245   -15479918.22849 -11596782.70646  23032086.119    23032092.554
  24366194.564    -1329462.19249  -1022366.00445  24366194.115    24366205.352
  23280767.958    -8410339.01749  -6262417.29346  23280767.240    23280772.579
  20862914.210   -21919467.57449 -17055810.96448  20862913.645    20862919.924
  20568485.985   -26773060.52049 -20831193.20148  20568485.844    20568490.817
 04  7 23  1 11  0.0000000  0  9G 3G10G28G 8G19G 1G23G27G13
  23155702.566   -13527007.41649 -10526482.43746  23155702.061    23155710.346
  23425863.149    -9557432.95849  -7421514.68945  23425862.033    23425871.301
  23773415.690    -8319426.56749  -6465779.64645  23773414.998    23773427.842
  21562419.350   -17884854.99149 -13671357.32747  21562418.588    21562426.057
  23021913.386   -15533382.58249 -11638443.23846  23021912.251    23021918.678
  24385149.012    -1229855.01749   -944750.26845  24385148.643    24385160.229
  23299562.537    -8311573.05849  -6185456.90246  23299561.878    23299567.233
  20859451.009   -21937666.87249 -17069992.24548  20859450.463    20859456.716
  20576231.935   -26732355.05449 -20799474.67648  20576231.841    20576236.814
 04  7 23  1 11 30.0000000  0  9G 3G10G28G 8G19G 1G23G27G13
  23159568.805   -13506690.52949 -10510651.03546  23159568.285    23159576.502
  23417202.866    -9602942.24849  -7456976.37645  23417201.769    23417211.097
  23754634.050    -8418123.30749  -6542685.78545  23754633.360    23754645.958
  21551275.140   -17943417.79749 -13716990.58447  21551274.373    21551281.768
  23011817.985   -15586434.64149 -11679782.48246  23011816.781    23011823.243
  24404133.696    -1130090.57949   -867012.00345  24404133.369    24404145.025
  23318399.132    -8212587.08949  -6108325.09846  23318398.448    23318403.718
  20856022.975   -21955681.22649 -17084029.41348  20856022.426    20856028.671
  20584066.360   -26691185.17849 -20767394.27648  20584066.247    20584071.159
 04  7 23  1 12  0.0000000  0  9G 3G10G28G 8G19G 1G23G27G13
  23163542.393   -13485808.34149 -10494379.14146  23163541.943    23163550.316
  23408644.421    -9647916.49849  -7492021.14245  23408643.314    23408652.636
  23735886.422    -8516641.20249  -6619452.57445  23735885.709    23735898.226
  21540168.885   -18001781.24049 -13762468.49047  21540168.112    21540175.486
  23001801.069   -15639073.08949 -11720799.42346  23001799.896    23001806.518
  24423148.208    -1030171.24449   -789153.02745  24423147.846    24423159.174
  23337277.133    -8113383.82849  -6031023.96346  23337276.379    23337281.612
  20852629.979   -21973511.49249 -17097923.13848  20852629.435    20852635.719
  20591988.834   -26649552.38649 -20734953.16548  20591988.733    20591993.630
 04  7 23  1 12 30.0000000  0  9G 3G10G28G 8G19G 1G23G27G13
  23167623.750   -13464360.20949 -10477666.26146  23167623.288    23167631.727
  23400188.207    -9692353.55149  -7526647.31845  23400187.128    23400196.473
  23717173.206    -8614977.93149  -6696078.21045  23717172.514    23717184.850
  21529100.754   -18059944.35149 -13807790.26847  21529099.964    21529107.335
  22991863.502   -15691294.59849 -11761491.47246  22991862.365    22991869.096
  24442191.962     -930097.70149   -711173.88745  24442191.462    24442202.913
  23356196.139    -8013964.08549  -5953554.14346  23356195.363    23356200.657
  20849272.225   -21991156.69549 -17111672.65748  20849271.670    20849277.966
  20599999.465   -26607456.09549 -20702150.88148  20599999.357    20600004.335
 04  7 23  1 13  0.0000000  0  9G 3G10G28G 8G19G 1G23G27G13
  23171812.921   -13442345.70749 -10460512.05146  23171812.458    23171820.912
  23391834.621    -9736251.41249  -7560853.33845  23391833.541    23391842.899
  23698494.908    -8713131.05749  -6772560.79145  23698494.254    23698506.478
  21518070.904   -18117905.84349 -13852954.94347  21518070.130    21518077.505
  22982006.038   -15743096.02349 -11801856.15446  22982004.899    22982011.591
  24461264.569     -829870.60449   -633075.09745  24461264.129    24461275.640
  23375156.058    -7914328.50149  -5875916.13646  23375155.316    23375160.834
  20845949.795   -22008616.06849 -17125277.36348  20845949.250    20845955.566
  20608098.435   -26564895.72449 -20668986.97648  20608098.350    20608103.333
 04  7 23  1 13 30.0000000  0  9G 3G10G28G 8G19G 1G23G27G13
  23176109.740   -13419765.91749 -10442917.35146  23176109.234    23176117.587
  23383583.776    -9779609.05649  -7594638.42445  23383582.723    23383592.190
  23679851.793    -8811099.45749  -6848899.43945  23679851.191    23679863.302
  21507079.449   -18175666.01849 -13897962.75747  21507078.679    21507085.977
  22972228.901   -15794475.53749 -11841892.09346  22972227.737    22972234.351
  24480366.107     -729491.77249   -554858.08445  24480365.725    24480377.372
  23394156.744    -7814478.97049  -5798111.41646  23394156.032    23394161.636
  20842662.666   -22025889.92949 -17138737.51948  20842662.135    20842668.488
  20616285.665   -26521872.12649 -20635462.13048  20616285.542    20616290.480
 04  7 23  1 14  0.0000000  0  9G 3G10G28G 8G19G 1G23G27G13
  23180514.072   -13396621.36649 -10424882.56346  23180513.544    23180521.673
  23375436.075    -9822425.09349  -7628001.47445  23375435.053    23375444.437
  23661244.078    -8908881.93449  -6925093.22445  23661243.513    23661255.488
  21496126.368   -18233224.60049 -13942813.47447  21496125.592    21496132.840
  22962532.453   -15845430.95549 -11881597.58646  22962531.270    22962537.795
  24499496.382     -628962.92249   -476524.15845  24499495.812    24499507.628
  23413197.910    -7714417.30249  -5720141.40846  23413197.131    23413202.789
  20839410.876   -22042978.20849 -17152053.06548  20839410.336    20839416.680
  20624560.849   -26478385.68649 -20601576.62648  20624560.714    20624565.666
 04  7 23  1 14 30.0000000  0  9G 3G10G28G 8G19G 1G23G27G13
  23185025.536   -13372913.26449 -10406408.68846  23185024.961    23185032.990
  23367391.620    -9864698.87049  -7660941.96945  23367390.552    23367399.862
  23642672.018    -9006477.34549  -7001141.24145  23642671.380    23642683.313
  21485211.524   -18290581.73249 -13987507.18647  21485210.768    21485218.001
  22952917.085   -15895960.61249 -11920971.31146  22952915.827    22952922.244
  24518654.931     -528286.17649   -398074.99545  24518654.248    24518665.949
  23432278.897    -7614145.64849  -5642007.76846  23432278.172    23432283.860
  20836194.350   -22059881.29749 -17165224.29948  20836193.803    20836200.125
  20632923.947   -26434437.40849 -20567331.23848  20632923.824    20632928.776
 04  7 23  1 15  0.0000000  0  8G 3G10G28G 8G19G23G27G13
  23189644.275   -13348641.84849 -10387495.83046  23189643.664    23189651.484
  23359450.551    -9906428.99049  -7693458.84045  23359449.499    23359458.725
  23624136.005    -9103883.70749  -7077041.96145  23624135.312    23624147.113
  21474335.139   -18347737.06949 -14032043.66247  21474334.358    21474341.593
  22943383.172   -15946061.77649 -11960011.15746  22943381.878    22943388.275
  23451399.688    -7513665.24049  -5563711.46846  23451398.994    23451404.732
  20833013.103   -22076598.83149 -17178250.94148  20833012.545    20833018.862
  20641374.912   -26390027.42449 -20532726.08248  20641374.794    20641379.778
 04  7 23  1 15 30.0000000  0  8G 3G10G28G 8G19G23G27G13
  23194370.339   -13323805.06849 -10368142.45146  23194369.922    23194377.732
  23351613.842    -9947611.38649  -7725548.91045  23351612.745    23351621.826
  23605636.699    -9201097.04049  -7152792.27245  23605635.929    23605647.692
  21463497.734   -18404687.46549 -14076420.46147  21463496.951    21463504.142
  22933931.515   -15995729.42549 -11998713.21646  22933930.301    22933936.804
  23470560.615    -7412974.84649  -5485251.52246  23470559.869    23470565.666
  20829867.757   -22093128.00249 -17191130.80548  20829867.183    20829873.479
  20649914.205   -26345153.29649 -20497759.25148  20649914.092    20649919.105
 04  7 23  1 16  0.0000000  0  8G 3G10G28G 8G19G23G27G13
  23199203.544   -13298406.33249 -10348351.17246  23199202.957    23199211.001
  23343880.916    -9988247.90649  -7757213.63346  23343879.808    23343888.828
  23587173.822    -9298118.62149  -7228393.17045  23587173.070    23587184.844
  21452698.750   -18461435.82849 -14120639.84047  21452697.976    21452705.134
  22924562.321   -16044964.28449 -12037078.05546  22924561.166    22924567.727
  23489760.662    -7312079.29349  -5406631.73446  23489759.887    23489765.695
  20826757.633   -22109471.66049 -17203866.11748  20826757.066    20826763.356
  20658541.065   -26299818.83449 -20462433.71548  20658540.920    20658545.963
 04  7 23  1 16 30.0000000  0  8G 3G10G28G 8G19G23G27G13
  23204143.746   -13272445.55949 -10328121.94346  23204143.116    23204151.278
  23336252.321   -10028336.53649  -7788451.42746  23336251.179    23336260.135
  23568747.853    -9394946.00649  -7303842.76645  23568747.137    23568758.837
  21441938.537   -18517980.73449 -14164700.69447  21441937.775    21441944.878
  22915276.150   -16093763.24749 -12075103.24046  22915275.036    22915281.616
  23508999.662    -7210979.20349  -5327852.54746  23508998.839    23509004.581
  20823683.041   -22125628.72049 -17216456.02748  20823682.485    20823688.756
  20667255.696   -26254023.19149 -20426748.82248  20667255.577    20667260.617
 04  7 23  1 17  0.0000000  0  8G 3G10G28G 8G19G23G27G13
  23209190.547   -13245922.85049 -10307454.84146  23209190.042    23209198.306
  23328728.051   -10067875.85249  -7819261.20646  23328726.958    23328736.007
  23550359.159    -9491577.65949  -7379139.86245  23550358.467    23550370.073
  21431217.192   -18574321.51649 -14208602.50247  21431216.418    21431223.451
  22906073.481   -16142123.72549 -12112786.75646  22906072.386    22906078.950
  23528277.010    -7109676.02849  -5248915.11645  23528276.163    23528281.937
  20820644.024   -22141598.96749 -17228900.36548  20820643.449    20820649.734
  20676058.018   -26207766.93049 -20390705.00148  20676057.883    20676062.896
 04  7 23  1 17 30.0000000  0  8G 3G10G28G 8G19G23G27G13
  23214344.484   -13218839.29149 -10286350.71046  23214343.855    23214352.117
  23321308.663   -10106864.82749  -7849642.12346  23321307.515    23321316.616
  23532008.060    -9588012.07349  -7454283.26045  23532007.401    23532018.899
  21420534.655   -18630458.19949 -14252345.26647  21420533.863    21420540.861
  22896954.705   -16190043.65549 -12150126.98246  22896953.579    22896960.069
  23547592.560    -7008171.34649  -5169820.66445  23547591.861    23547597.693
  20817640.534   -22157382.20049 -17241198.97348  20817639.958    20817646.278
  20684947.857   -26161050.69349 -20354302.75648  20684947.719    20684952.716
 04  7 23  1 18  0.0000000  0  8G 3G10G28G 8G19G23G27G13
  23219604.865   -13191195.58749 -10264810.10246  23219604.372    23219612.449
  23313994.077   -10145302.43949  -7879593.42346  23313992.989    23314002.115
  23513694.825    -9684247.85149  -7529271.88446  23513694.199    23513705.482
  21409891.012   -18686390.23849 -14295928.57247  21409890.222    21409897.212
  22887920.288   -16237520.78149 -12187122.16246  22887919.093    22887925.480
  23566946.302    -6906467.19149  -5090570.77945  23566945.573    23566951.345
  20814672.638   -22172978.44349 -17253351.87648  20814672.082    20814678.457
  20693925.206   -26113874.53949 -20317542.12548  20693925.054    20693930.076
 04  7 23  1 18 30.0000000  0  8G 3G10G28G 8G19G23G27G13
  23224971.676   -13162992.11149 -10242833.33546  23224971.127    23224979.447
  23306784.735   -10183187.37449  -7909114.07646  23306783.630    23306792.762
  23495419.798    -9780282.97349  -7604104.16246  23495419.160    23495430.327
  21399286.533   -18742116.89949 -14339351.85647  21399285.743    21399292.666
  22878970.459   -16284552.52949 -12223770.29846  22878969.259    22878975.664
  23586338.027    -6804564.32649  -5011166.06045  23586337.258    23586342.902
  20811740.398   -22188387.23849 -17265358.72748  20811739.862    20811746.245
  20702989.957   -26066238.92049 -20280423.47448  20702989.818    20702994.834
 04  7 23  1 19  0.0000000  0  8G 3G10G28G 8G19G23G27G13
  23230445.103   -13134230.01749 -10220421.24346  23230444.448    23230452.505
  23299680.770   -10220518.55349  -7938203.22246  23299679.698    23299688.822
  23477183.091    -9876116.60449  -7678779.43346  23477182.395    23477193.576
  21388721.037   -18797638.57649 -14382615.40747  21388720.257    21388727.159
  22870105.596   -16331137.18349 -12260070.04146  22870104.426    22870110.884
  23605767.050    -6702465.12449  -4931608.34446  23605766.258    23605771.816
  20808843.901   -22203608.70549 -17277219.61348  20808843.338    20808849.689
  20712141.988   -26018144.76349 -20242947.51848  20712141.853    20712146.859
 04  7 23  1 19 30.0000000  0  8G 3G10G28G 8G19G23G27G13
  23236024.554   -13104908.87249 -10197573.53546  23236024.035    23236032.176
  23292682.567   -10257293.96049  -7966859.28646  23292681.482    23292690.610
  23458985.199    -9971745.82249  -7753295.42346  23458984.473    23458995.689
  21378194.825   -18852953.64749 -14425717.97547  21378194.044    21378200.956
  22861326.478   -16377271.41749 -12296018.80946  22861325.334    22861331.794
  23625233.176    -6600169.91349  -4851897.89946  23625232.442    23625238.044
  20805983.260   -22218641.48149 -17288933.47648  20805982.688    20805989.017
  20721381.444   -25969591.12649 -20205113.53648  20721381.286    20721386.343
 04  7 23  1 20  0.0000000  0  8G 3G10G28G 8G19G23G27G13
  23241710.202   -13075030.01049 -10174291.23946  23241709.659    23241717.693
  23285790.302   -10293512.85049  -7995081.72546  23285789.264    23285798.231
  23440826.237   -10067169.74149  -7827651.44446  23440825.564    23440836.766
  21367707.987   -18908062.12849 -14468659.56947  21367707.194    21367714.062
  22852633.376   -16422953.51649 -12331615.26746  22852632.302    22852638.842
  23644736.165    -6497680.81949  -4772036.38046  23644735.450    23644741.136
  20803158.456   -22233485.82449 -17300500.50748  20803157.883    20803164.245
  20730708.094   -25920579.50449 -20166922.68048  20730707.920    20730712.989
 04  7 23  1 20 30.0000000  0  8G 3G10G28G 8G19G23G27G13
  23247502.058   -13044594.59749 -10150575.26646  23247501.430    23247509.414
  23279004.028   -10329174.78649  -8022870.15446  23279002.952    23279011.890
  23422706.759   -10162387.27449  -7901846.63846  23422706.048    23422717.072
  21357260.348   -18962964.25149 -14511440.36147  21357259.567    21357266.480
  22844026.832   -16468181.79249 -12366858.09946  22844025.730    22844032.293
  23664275.882    -6394999.86449  -4692025.36146  23664275.123    23664280.754
  20800369.465   -22248141.97449 -17311920.89348  20800368.904    20800375.293
  20740121.676   -25871110.79249 -20128375.65248  20740121.513    20740126.580
 04  7 23  1 21  0.0000000  0  8G 3G10G28G 8G19G23G27G13
  23253399.140   -13013603.43949 -10126426.28446  23253398.707    23253406.709
  23272323.942   -10364278.82349  -8050223.86946  23272322.856    23272331.725
  23404626.849   -10257396.96649  -7975879.86946  23404626.165    23404636.949
  21346852.089   -19017659.65949 -14554060.08147  21346851.313    21346858.213
  22835507.115   -16512954.22249 -12401745.72646  22835505.908    22835512.428
  23683851.815    -6292128.82749  -4611866.22246  23683851.081    23683856.535
  20797616.361   -22262609.84049 -17323194.56648  20797615.790    20797622.181
  20749622.183   -25821185.35849 -20089472.74248  20749622.036    20749627.060
 04  7 23  1 21 30.0000000  0  8G 3G10G28G 8G19G23G27G13
  23259402.572   -12982056.59349 -10101844.26446  23259401.932    23259409.962
  23265750.320   -10398823.08649  -8077141.41446  23265749.237    23265758.067
  23386586.871   -10352196.77349  -8049749.54446  23386586.154    23386596.917
  21336483.408   -19072147.27449 -14596517.89647  21336482.631    21336489.477
  22827074.559   -16557267.89249 -12436275.86246  22827073.316    22827079.831
  23703463.725    -6189068.70349  -4531559.73746  23703462.924    23703468.362
  20794899.185   -22276888.69849 -17334320.96848  20794898.621    20794904.988
  20759209.547   -25770803.41549 -20050214.11648  20759209.418    20759214.431
 04  7 23  1 22  0.0000000  0  8G 3G10G28G 8G19G23G27G13
  23265511.085   -12949954.99949 -10076829.98346  23265510.592    23265518.621
  23259283.409   -10432806.80149  -8103622.18346  23259282.294    23259291.078
  23368587.025   -10446785.01649  -8123454.38146  23368586.295    23368597.138
  21326154.300   -19126426.74149 -14638813.52247  21326153.521    21326160.333
  22818729.630   -16601120.62149 -12470446.82546  22818728.403    22818734.936
  23723111.105    -6085821.13149  -4451107.20246  23723110.323    23723115.943
  20792218.106   -22290978.09349 -17345299.74348  20792217.527    20792223.882
  20768883.740   -25719965.26749 -20010600.00748  20768883.601    20768888.645
 04  7 23  1 22 30.0000000  0  8G 3G10G28G 8G19G23G27G13
  23271725.120   -12917299.46249 -10051384.06946  23271724.650    23271732.977
  23252923.295   -10466228.78949  -8129665.23046  23252922.207    23252931.071
  23350627.713   -10541160.34749  -8196993.31146  23350626.998    23350637.842
  21315864.868   -19180497.73649 -14680946.70747  21315864.085    21315870.861
  22810472.796   -16644510.22949 -12504256.92246  22810471.589    22810478.166
  23742793.917    -5982387.60449  -4370509.76446  23742793.116    23742798.896
  20789573.127   -22304877.74649 -17356130.66148  20789572.538    20789578.911
  20778644.630   -25668671.34549 -19970630.75148  20778644.494    20778649.549
 04  7 23  1 23  0.0000000  0  8G 3G10G28G 8G19G23G27G13
  23278044.505   -12884091.13149 -10025507.39546  23278043.906    23278052.058
  23246670.297   -10499088.23649  -8155269.93946  23246669.236    23246678.118
  23332709.289   -10635321.22249  -8270365.13146  23332708.533    23332719.332
  21305615.133   -19234359.98349 -14722917.23047  21305614.370    21305621.133
  22802304.487   -16687434.71249 -12537704.59146  22802303.274    22802309.983
  23762511.854    -5878769.85249  -4289768.78846  23762510.996    23762516.837
  20786964.210   -22318587.58949 -17366813.67248  20786963.634    20786970.032
  20788492.163   -25616922.50849 -19930307.01748  20788492.006    20788497.087
 04  7 23  1 23 30.0000000  0  8G 3G10G28G 8G19G23G27G13
  23284468.676   -12850330.54349  -9999200.41046  23284468.288    23284476.443
  23240524.556   -10531384.25349  -8180435.61346  23240523.461    23240532.335
  23314832.026   -10729266.14149  -8343568.66346  23314831.239    23314841.867
  21295405.389   -19288012.62549 -14764724.43547  21295404.598    21295411.342
  22794225.093   -16729891.83449 -12570788.07446  22794223.957    22794230.659
  23782264.665    -5774969.22749  -4208885.32746  23782263.781    23782269.531
  20784391.481   -22332107.33449 -17377348.55548  20784390.896    20784397.270
  20798426.146   -25564719.36649 -19889629.28248  20798425.989    20798431.052
 04  7 23  1 24  0.0000000  0  8G 3G10G28G 8G19G23G27G13
  23290998.214   -12816019.36549  -9972464.38446  23290997.517    23291005.536
  23234486.112   -10563116.50949  -8205161.99146  23234485.020    23234493.793
  23296996.041   -10822994.23849  -8416603.22546  23296995.216    23297005.612
  21285235.337   -19341456.17949 -14806368.71847  21285234.559    21285241.302
  22786235.157   -16771880.33849 -12603506.41046  22786233.899    22786240.450
  23802051.649    -5670988.25049  -4127861.31846  23802050.754    23802056.617
  20781854.850   -22345437.24649 -17387735.51148  20781854.282    20781860.658
  20808446.299   -25512063.25649 -19848598.58048  20808446.123    20808451.186
 04  7 23  1 24 30.0000000  0  8G 3G10G28G 8G19G23G27G13
  23297632.148   -12781157.60049  -9945299.35546  23297631.446    23297639.406
  23228555.337   -10594283.03649  -8229447.53846  23228554.227    23228562.931
  23279201.595   -10916503.22249  -8489467.05945  23279200.785    23279211.050
  21275105.437   -19394689.19549 -14847848.96547  21275104.652    21275111.346
  22778334.770   -16813397.12149 -12635857.17146  22778333.538    22778340.063
  23821872.606    -5566827.61949  -4046697.31746  23821871.792    23821877.914
  20779354.622   -22358576.08549 -17397973.58848  20779354.052    20779360.423
  20818552.677   -25458953.72849 -19807214.57748  20818552.546    20818557.616
 04  7 23  1 25  0.0000000  0  8G 3G10G28G 8G19G23G27G13
  23304370.560   -12745746.48449  -9917706.23246  23304369.981    23304377.808
  23222732.237   -10624883.35849  -8253291.87946  23222731.098    23222739.819
  23261449.024   -11009791.75549  -8562159.11745  23261448.225    23261458.601
  21265015.592   -19447711.52649 -14889165.03447  21265014.807    21265021.492
  22770524.519   -16854440.35849 -12667838.94446  22770523.275    22770529.831
  23841727.428    -5462489.23949  -3965394.82846  23841726.716    23841733.036
  20776890.753   -22371523.84149 -17408062.76448  20776890.188    20776896.590
  20828745.242   -25405391.53349 -19765477.83848  20828745.110    20828750.182
 04  7 23  1 25 30.0000000  0  8G 3G10G28G 8G19G23G27G13
  23311213.251   -12709786.96649  -9889685.79546  23311212.673    23311220.713
  23217017.043   -10654916.56349  -8276694.31946  23217015.904    23217024.578
  23243738.762   -11102858.36349  -8634678.26346  23243737.975    23243748.368
  21254965.952   -19500522.48449 -14930316.40547  21254965.184    21254971.850
  22762804.723   -16895007.89949 -12699450.01546  22762803.509    22762810.092
  23861616.033    -5357974.66449  -3883955.04346  23861615.287    23861621.618
  20774463.293   -22384280.35949 -17418002.92348  20774462.729    20774469.156
  20839023.794   -25351377.52449 -19723389.03948  20839023.664    20839028.783
 04  7 23  1 26  0.0000000  0  8G 3G10G28G 8G19G23G27G13
  23318160.296   -12673280.15149  -9861238.88246  23318159.714    23318167.677
  23211409.946   -10684381.69149  -8299654.11046  23211408.856    23211417.519
  23226071.142   -11195701.40149  -8707023.19046  23226070.396    23226080.729
  21244956.620   -19553121.89549 -14971302.93847  21244955.833    21244962.469
  22755175.821   -16935097.81349 -12730688.92046  22755174.621    22755181.231
  23881538.006    -5253285.17649  -3802378.97745  23881537.235    23881543.456
  20772072.307   -22396845.24249 -17427793.75448  20772071.734    20772078.175
  20849388.232   -25296912.20949 -19680948.57448  20849388.079    20849393.220
 04  7 23  1 26 30.0000000  0  8G 3G10G28G 8G19G23G27G13
  23325211.232   -12636227.14149  -9832366.36146  23325210.613    23325218.650
  23205911.103   -10713278.40249  -8322170.96446  23205910.003    23205918.565
  23208446.289   -11288319.88549  -8779193.13846  23208445.577    23208455.802
  21234987.481   -19605509.80549 -15012124.66547  21234986.685    21234993.350
  22747638.011   -16974708.56349 -12761554.45446  22747636.889    22747643.571
  23901492.685    -5148423.15149  -3720668.46545  23901491.861    23901498.146
  20769717.741   -22409218.46949 -17437435.24548  20769717.184    20769723.602
  20859838.289   -25241996.77349 -19638157.37048  20859838.164    20859843.281
 04  7 23  1 27  0.0000000  0  8G 3G10G28G 8G19G23G27G13
  23332365.871   -12598629.42849  -9803069.39846  23332365.319    23332373.432
  23200520.383   -10741606.34749  -8344244.65146  23200519.295    23200527.863
  23190864.323   -11380712.77349  -8851187.29046  23190863.560    23190873.677
  21225058.669   -19657685.84949 -15052781.31247  21225057.888    21225064.546
  22740191.991   -17013838.22749 -12792045.10746  22740190.823    22740197.487
  23921479.619    -5043390.22949  -3638824.79845  23921478.915    23921485.324
  20767399.732   -22421399.94649 -17446927.31848  20767399.159    20767405.550
  20870373.946   -25186631.84249 -19595015.91148  20870373.811    20870378.894
 04  7 23  1 27 30.0000000  0  8G 3G10G28G 8G19G23G27G13
  23339624.058   -12560486.24249  -9773347.36046  23339623.505    23339631.578
  23195238.514   -10769362.56349  -8365872.82246  23195237.391    23195245.977
  23173325.841   -11472876.88649  -8923003.18946  23173325.042    23173335.048
  21215170.592   -19709648.10949 -15093271.38347  21215169.794    21215176.439
  22732838.323   -17052483.25349 -12822158.11546  22732837.064    22732843.633
  23941499.059    -4938186.56449  -3556848.08945  23941498.465    23941504.981
  20765118.555   -22433387.78549 -17456268.50748  20765117.968    20765124.370
  20880995.235   -25130816.79449 -19551523.70648  20880995.108    20881000.193
 04  7 23  1 28  0.0000000  0  8G 3G10G28G 8G19G23G27G13
  23346985.740   -12521800.70049  -9743202.70046  23346985.319    23346993.450
  23190065.216   -10796548.31649  -8387056.47846  23190064.092    23190072.709
  23155830.825   -11564812.53149  -8994641.05446  23155830.043    23155839.915
  21205322.942   -19761397.58649 -15133595.64447  21205322.151    21205328.820
  22725576.728   -17090643.43749 -12851893.31646  22725575.451    22725582.015
  23961550.565    -4832816.04849  -3474741.36745  23961550.004    23961556.414
  20762873.916   -22445183.55549 -17465460.03148  20762873.322    20762879.735
  20891701.708   -25074554.07949 -19507682.67248  20891701.566    20891706.724
 04  7 23  1 28 30.0000000  0  8G 3G10G28G 8G19G23G27G13
  23354450.287   -12482573.36749  -9712635.86546  23354449.821    23354457.809
  23185000.583   -10823162.82449  -8407795.01646  23184999.519    23185008.118
  23138379.626   -11656517.93349  -9066099.50646  23138378.834    23138388.672
  21195515.988   -19812933.66749 -15173753.64247  21195515.180    21195521.819
  22718407.758   -17128316.60049 -12881249.02446  22718406.494    22718413.041
  23981633.954    -4727279.64249  -3392505.36945  23981633.200    23981639.562
  20760665.963   -22456786.59149 -17474501.38348  20760665.350    20760671.760
  20902493.246   -25017844.34749 -19463493.32048  20902493.125    20902498.281
 04  7 23  1 29  0.0000000  0  8G 3G10G28G 8G19G23G27G13
  23362018.185   -12442804.81749  -9681647.27246  23362017.582    23362025.621
  23180044.966   -10849204.57249  -8428087.23946  23180043.850    23180052.485
  23120972.782   -11747990.78349  -9137376.77446  23120971.975    23120981.714
  21185749.867   -19864254.90349 -15213744.22447  21185749.081    21185755.703
  22711331.998   -17165499.96149 -12910223.06846  22711330.713    22711337.283
  24001748.650    -4621578.09849  -3310140.70645  24001747.775    24001754.166
  20758494.840   -22468195.70049 -17483391.61948  20758494.263    20758500.672
  20913369.887   -24960687.49549 -19418955.56548  20913369.725    20913374.890
 04  7 23  1 29 30.0000000  0  8G 3G10G28G 8G19G23G27G13
  23369688.477   -12402496.69349  -9650238.23846  23369687.832    23369695.734
  23175198.328   -10874673.48749  -8447933.11046  23175197.255    23175205.907
  23103610.294   -11839230.41749  -9208472.31346  23103609.464    23103619.129
  21176024.544   -19915361.71049 -15253567.72047  21176023.764    21176030.360
  22704349.624   -17202192.46249 -12938814.61846  22704348.337    22704355.009
  24021893.918    -4515713.81449  -3227649.21345  24021893.149    24021899.645
  20756360.616   -22479411.26949 -17492131.04648  20756360.031    20756366.442
  20924331.335   -24903084.70849 -19374070.32947  20924331.177    20924336.377
 04  7 23  1 30  0.0000000  0  8G 3G10G28G 8G19G23G27G13
  23377461.166   -12361650.31349  -9618409.79046  23377460.491    23377468.441
  23170460.857   -10899568.86449  -8467332.06446  23170459.824    23170468.444
  23086292.334   -11930235.63349  -9279385.19046  23086291.504    23086301.206
  21166340.125   -19966253.79749 -15293223.90347  21166339.318    21166345.927
  22697460.936   -17238392.11749 -12967022.12846  22697459.706    22697466.399
  24042069.810    -4409688.49449  -3145032.24345  24042069.211    24042075.684
  20754263.214   -22490433.03749 -17500719.45348  20754262.633    20754269.104
  20935377.445   -24845036.92549 -19328838.34347  20935377.300    20935382.559
 04  7 23  1 30 30.0000000  0  8G 3G10G28G 8G19G23G27G13
  23385336.158   -12320265.45949  -9586161.73146  23385335.719    23385343.627
  23165832.847   -10923889.01449  -8486282.79146  23165831.819    23165840.442
  23069019.412   -12021003.67249  -9350113.27446  23069018.641    23069028.349
  21156696.860   -20016929.52049 -15332711.49047  21156696.074    21156702.678
  22690666.780   -17274095.85149 -12994843.20246  22690665.569    22690672.198
  24062276.378    -4303502.55849  -3062290.11145  24062275.833    24062282.179
  20752203.041   -22501259.36949 -17509155.57948  20752202.459    20752208.941
  20946508.491   -24786543.32249 -19283258.96947  20946508.354    20946513.579
 04  7 23  1 31  0.0000000  0  8G 3G10G28G 8G19G23G27G13
  23393313.238   -12278344.58149  -9553495.99346  23393312.926    23393320.805
  23161314.152   -10947634.70649  -8504785.89346  23161313.097    23161321.765
  23051791.748   -12111534.39849  -9420656.41846  23051791.037    23051800.599
  21147094.646   -20067389.37149 -15372030.86847  21147093.852    21147100.464
  22683967.224   -17309303.05049 -13022277.36447  22683965.947    22683972.540
  24082513.122    -4197159.13649  -2979425.29745  24082512.533    24082518.807
  20750179.894   -22511891.27349 -17517440.20248  20750179.300    20750185.773
  20957723.844   -24727606.78749 -19237334.45947  20957723.690    20957728.874
 04  7 23  1 31 30.0000000  0  8G 3G10G28G 8G19G23G27G13
  23401392.334   -12235888.38949  -9520413.12246  23401391.954    23401399.869
  23156904.993   -10970804.68949  -8522840.39246  23156903.959    23156912.630
  23034609.730   -12201825.69849  -9491012.99846  23034608.982    23034618.438
  21137533.749   -20117632.39949 -15411181.29647  21137532.960    21137539.528
  22677362.341   -17344011.33249 -13049322.76847  22677361.150    22677367.805
  24102779.742    -4090659.08849  -2896438.41945  24102779.053    24102785.382
  20748193.905   -22522327.68049 -17525572.49448  20748193.315    20748199.811
  20969023.452   -24668227.29049 -19191064.77547  20969023.287    20969028.459
 04  7 23  1 32  0.0000000  0  8G 3G10G28G 8G19G23G27G13
  23409573.025   -12192898.28049  -9486914.20846  23409572.661    23409580.520
  23152605.518   -10993398.32249  -8540445.79046  23152604.436    23152613.187
  23017473.517   -12291876.49749  -9561182.19146  23017472.746    23017482.068
  21128014.171   -20167658.24649 -15450162.49247  21128013.391    21128019.943
  22670852.816   -17378219.13549 -13075978.19646  22670851.556    22670858.239
  24123075.591    -3984004.32949  -2813330.99745  24123074.903    24123081.332
  20746245.168   -22532568.49449 -17533552.37248  20746244.574    20746251.077
  20980407.154   -24608405.60649 -19144450.53547  20980406.986    20980412.213
 04  7 23  1 32 30.0000000  0  8G 3G10G28G 8G19G23G27G13
  23417855.095   -12149375.98149  -9453000.61446  23417854.636    23417862.482
  23148415.665   -11015415.64149  -8557602.11446  23148414.586    23148423.408
  23000383.151   -12381686.04149  -9631163.40246  23000382.347    23000391.671
  21118535.956   -20217466.90049 -15488974.44547  21118535.162    21118541.709
  22664438.720   -17411925.12849 -13102242.60146  22664437.536    22664444.186
  24143400.297    -3877197.02049  -2730104.69845  24143399.662    24143406.158
  20744333.641   -22542613.81849 -17541379.92148  20744333.047    20744339.528
  20991874.753   -24548143.56149 -19097493.16047  20991874.578    20991879.771
 04  7 23  1 33  0.0000000  0  8G 3G10G28G 8G19G23G27G13
  23426238.177   -12105322.94849  -9418673.48046  23426237.653    23426245.257
  23144335.675   -11036856.41249  -8574309.17446  23144334.541    23144343.322
  22983338.833   -12471252.89849  -9700955.53146  22983338.017    22983347.467
  21109099.043   -20267058.17649 -15527617.01147  21109098.245    21109104.818
  22658120.538   -17445127.66949 -13128114.70846  22658119.270    22658125.862
  24163753.805    -3770239.09649  -2646761.06745  24163753.232    24163759.701
  20742459.358   -22552463.40749 -17549054.94348  20742458.754    20742465.220
  21003425.994   -24487441.53249 -19050192.93847  21003425.821    21003431.014
 04  7 23  1 33 30.0000000  0  8G 3G10G28G 8G19G23G27G13
  23434722.107   -12060739.39049  -9383932.95746  23434721.511    23434729.161
  23140365.630   -11057719.02449  -8590565.71246  23140364.519    23140373.280
  22966341.264   -12560574.36849  -9770556.45046  22966340.484    22966349.952
  21099703.817   -20316430.25749 -15566088.77347  21099703.049    21099709.613
  22651898.632   -17477823.76949 -13153592.19046  22651897.368    22651903.937
  24184135.991    -3663131.26549  -2563300.59745  24184135.441    24184141.794
  20740622.561   -22562115.98949 -17556576.45648  20740621.966    20740628.432
  21015060.934   -24426299.56149 -19002549.90247  21015060.756    21015065.966
 04  7 23  1 34  0.0000000  0  8G 3G10G28G 8G19G23G27G13
  23443306.489   -12015627.72849  -9348780.89445  23443305.847    23443313.490
  23136505.537   -11078003.89749  -8606372.07046  23136504.381    23136513.142
  22949390.428   -12649650.38249  -9839966.09546  22949389.708    22949399.094
  21090350.249   -20365583.88749 -15604390.31847  21090349.455    21090355.998
  22645773.280   -17510013.04949 -13178674.74146  22645771.978    22645778.523
  24204546.240    -3555876.08049  -2479725.31945  24204545.601    24204551.898
  20738823.205   -22571571.87649 -17563944.69948  20738822.602    20738829.062
  21026779.275   -24364719.58949 -18954565.57247  21026779.103    21026784.337
 04  7 23  1 34 30.0000000  0  8G 3G10G28G 8G19G23G27G13
  23451990.923   -11969989.08549  -9313218.22445  23451990.355    23451998.197
  23132755.494   -11097710.53849  -8621727.85546  23132754.357    23132763.081
  22932486.648   -12738479.36349  -9909183.23546  22932485.950    22932495.228
  21081038.341   -20414518.45949 -15642521.16147  21081037.531    21081044.073
  22639744.749   -17541693.07049 -13203360.46246  22639743.482    22639750.016
  24224984.128    -3448474.98249  -2396036.35545  24224983.442    24224989.879
  20737061.340   -22580830.54549 -17571159.26248  20737060.752    20737067.226
  21038580.927   -24302702.05449 -18906240.27847  21038580.724    21038586.012
 04  7 23  1 35  0.0000000  0  8G 3G10G28G 8G19G23G27G13
  23460775.788   -11923823.57749  -9277244.98945  23460775.283    23460783.059
  23129115.759   -11116837.59249  -8636632.02446  23129114.627    23129123.272
  22915630.440   -12827058.81549  -9978205.95346  22915629.681    22915638.822
  21071768.420   -20463232.15249 -15680479.89347  21071767.629    21071774.190
  22633813.516   -17572861.54849 -13227647.58046  22633812.288    22633818.864
  24245449.637    -3340928.48549  -2312234.09545  24245449.015    24245455.563
  20735337.245   -22589890.62949 -17578219.08448  20735336.665    20735343.150
  21050465.596   -24240247.61549 -18857574.53947  21050465.396    21050470.798
 04  7 23  1 35 30.0000000  0  8G 3G10G28G 8G19G23G27G13
  23469660.366   -11877134.83049  -9240864.06545  23469659.753    23469667.592
  23125586.038   -11135386.50549  -8651085.68846  23125584.901    23125593.529
  22898821.482   -12915389.37949 -10047034.73646  22898820.757    22898829.747
  21062540.314   -20511726.38349 -15718267.61647  21062539.497    21062546.042
  22627979.660   -17603518.68249 -13251536.24346  22627978.387    22627984.959
  24265942.143    -3233240.42349  -2228321.52245  24265941.469    24265948.262
  20733650.669   -22598753.75149 -17585125.42848  20733650.083    20733656.579
  21062433.035   -24177358.25349 -18808569.89947  21062432.861    21062438.282
 04  7 23  1 36  0.0000000  0  8G 3G10G28G 8G19G23G27G13
  23478644.623   -11829921.78749  -9204074.61146  23478643.973    23478651.859
  23122166.751   -11153354.52549  -8665086.72046  23122165.618    23122174.301
  22882060.562   -13003467.58549 -10115666.88046  22882059.839    22882068.804
  21053354.427   -20559998.54749 -15755882.29547  21053353.627    21053360.223
  22622243.833   -17633660.38349 -13275023.25946  22622242.568    22622249.170
  24286461.844    -3125410.30249  -2144298.26645  24286461.023    24286467.936
  20732002.086   -22607417.25749 -17591876.23048  20732001.494    20732007.962
  21074483.480   -24114033.02649 -18759225.63247  21074483.299    21074488.686
 04  7 23  1 36 30.0000000  0  8G 3G10G28G 8G19G23G27G13
  23487727.891   -11782187.82949  -9166879.26145  23487727.395    23487735.210
  23118857.722   -11170743.34749  -8678636.42046  23118856.578    23118865.306
  22865347.626   -13091293.92649 -10184102.78046  22865346.890    22865355.862
  21044210.469   -20608050.38449 -15793325.29047  21044209.657    21044216.251
  22616605.993   -17663287.05549 -13298108.94046  22616604.770    22616611.425
  24307007.843    -3017441.62349  -2060167.05245  24307007.069    24307013.818
  20730391.229   -22615882.58349 -17598472.60248  20730390.619    20730397.122
  21086616.379   -24050274.82049 -18709543.96847  21086616.199    21086621.523
 04  7 23  1 37  0.0000000  0  8G 3G10G28G 8G19G23G27G13
  23496910.434   -11733933.56249  -9129278.42546  23496909.888    23496917.601
  23115659.173   -11187551.73049  -8691733.84046  23115658.013    23115666.764
  22848683.022   -13178866.29549 -10252340.77946  22848682.257    22848691.197
  21035108.861   -20655879.80449 -15830594.97847  21035108.038    21035114.628
  22611066.715   -17692396.18649 -13320791.34246  22611065.505    22611072.117
  24327579.898    -2909335.26649  -1975928.55645  24327579.217    24327585.914
  20728818.301   -22624148.44749 -17604913.55448  20728817.698    20728824.222
  21098831.456   -23986084.19049 -18659525.35147  21098831.273    21098836.639
 04  7 23  1 37 30.0000000  0  8G 3G10G28G 8G19G23G27G13
  23506191.848   -11685160.09049  -9091273.03146  23506191.232    23506198.752
  23112571.159   -11203779.21249  -8704378.60446  23112569.981    23112578.730
  22832067.015   -13266183.32749 -10320379.82846  22832066.240    22832075.104
  21026049.524   -20703486.77749 -15867691.32647  21026048.699    21026055.343
  22605626.375   -17720985.96249 -13343069.05246  22605625.081    22605631.617
  24348177.686    -2801092.88249  -1891584.06145  24348176.998    24348183.966
  20727283.423   -22632214.33049 -17611198.67148  20727282.831    20727289.364
  21111128.781   -23921461.38149 -18609169.96447  21111128.610    21111134.097
 04  7 23  1 38  0.0000000  0  8G 3G10G28G 8G19G23G27G13
  23515571.508   -11635869.75149  -9052864.87045  23515570.859    23515578.317
  23109593.507   -11219426.51749  -8716571.27746  23109592.342    23109601.064
  22815499.766   -13353244.22749 -10388219.29246  22815498.979    22815507.773
  21017032.566   -20750871.21649 -15904614.27747  21017031.752    21017038.382
  22600284.918   -17749055.81249 -13364941.62246  22600283.579    22600290.007
  24368800.874    -2692716.93949  -1807135.50845  24368800.141    24368807.388
  20725786.568   -22640080.55849 -17617328.21148  20725785.957    20725792.520
  21123507.976   -23856408.19149 -18558479.22547  21123507.820    21123513.354
 04  7 23  1 38 30.0000000  0  8G 3G10G28G 8G19G23G27G13
  23525049.202   -11586063.58649  -9014054.77245  23525048.587    23525055.975
  23106726.521   -11234492.56249  -8728311.02246  23106725.317    23106734.053
  22798981.524   -13440047.07349 -10455857.68446  22798980.755    22798989.471
  21008058.188   -20798031.96549 -15941362.92247  21008057.364    21008063.966
  22595042.802   -17776603.37249 -13386407.21947  22595041.438    22595047.836
  24389449.443    -2584208.37049  -1722583.61445  24389448.676    24389456.074
  20724327.869   -22647745.96949 -17623301.26448  20724327.277    20724333.834
  21135969.059   -23790925.15449 -18507453.53747  21135968.893    21135974.375
 04  7 23  1 39  0.0000000  0  8G 3G10G28G 8G19G23G27G13
  23534624.619   -11535743.89749  -8974844.52145  23534623.990    23534631.362
  23103970.002   -11248977.89349  -8739598.26446  23103968.825    23103977.590
  22782512.484   -13526591.46849 -10523294.67546  22782511.726    22782520.357
  20999126.296   -20844969.35549 -15977937.51547  20999125.488    20999132.089
  22589900.149   -17803628.01449 -13407465.33347  22589898.779    22589905.219
  24410122.925    -2475570.02349  -1637930.59145  24410122.134    24410129.507
  20722907.304   -22655211.20249 -17629118.33248  20722906.710    20722913.261
  21148511.481   -23725014.51849 -18456094.65847  21148511.320    21148516.816
 04  7 23  1 39 30.0000000  0  8G 3G10G28G 8G19G23G27G13
  23544297.731   -11484909.98849  -8935233.62245  23544297.222    23544304.660
  23101324.405   -11262880.58449  -8750431.49746  23101323.197    23101331.964
  22766093.260   -13612874.28649 -10590527.83846  22766092.502    22766101.026
  20990237.369   -20891681.10549 -16014336.29147  20990236.551    20990243.138
  22584857.586   -17830126.25249 -13428113.27347  22584856.229    22584862.790
  24430821.194    -2366801.56849  -1553176.19845  24430820.394    24430827.742
  20721525.328   -22662473.75049 -17634777.46548  20721524.727    20721531.245
  21161135.575   -23658674.78849 -18404401.42047  21161135.401    21161140.891
 04  7 23  1 40  0.0000000  0  8G 3G10G28G 8G19G23G27G13
  23554068.248   -11433564.75349  -8895224.25745  23554067.808    23554075.242
  23098789.384   -11276201.90349  -8760811.70746  23098788.242    23098797.011
  22749723.826   -13698895.53849 -10657557.18646  22749723.065    22749731.540
  20981391.251   -20938167.88049 -16050559.75747  20981390.436    20981397.031
  22579915.282   -17856097.92149 -13448350.89747  22579913.991    22579920.517
  24451543.657    -2257906.07149  -1468322.80145  24451542.829    24451550.157
  20720181.690   -22669534.67949 -17640279.49148  20720181.067    20720187.594
  21173840.724   -23591909.15949 -18352376.30747  21173840.545    21173846.067
 04  7 23  1 40 30.0000000  0  8G 3G10G28G 8G19G23G27G13
  23563935.606   -11381711.09749  -8854818.71146  23563935.087    23563942.545
  23096364.870   -11288942.87449  -8770739.69546  23096363.700    23096372.434
  22733404.152   -13784655.22849 -10724382.73346  22733403.432    22733411.838
  20972587.836   -20984430.16249 -16086608.29047  20972587.020    20972593.637
  22575073.274   -17881542.94049 -13468178.13547  22575071.963    22575078.447
  24472289.627    -2148886.53049  -1383372.73745  24472288.697    24472296.245
  20718876.287   -22676394.58049 -17645624.86948  20718875.691    20718882.210
  21186626.550   -23524719.28649 -18300020.61847  21186626.374    21186631.917
 04  7 23  1 41  0.0000000  0  8G 3G10G28G 8G19G23G27G13
  23573899.772   -11329349.24749  -8814017.16646  23573899.149    23573906.637
  23094051.090   -11301101.77549  -8780214.13946  23094049.942    23094058.620
  22717134.882   -13870150.47549 -10791002.22546  22717134.145    22717142.466
  20963827.467   -21030466.13749 -16122480.48647  20963826.645    20963833.272
  22570332.066   -17906458.26049 -13487592.64647  22570330.725    22570337.172
  24493058.925    -2039743.14449  -1298326.16945  24493058.159    24493065.816
  20717609.535   -22683051.57149 -17650812.14048  20717608.938    20717615.436
  21199493.240   -23457104.68949 -18247333.98147  21199493.066    21199498.546
 04  7 23  1 41 30.0000000  0  8G 3G10G28G 8G19G23G27G13
  23583960.326   -11276480.42049  -8772820.54946  23583959.784    23583967.238
  23091848.229   -11312678.10549  -8789234.61546  23091847.087    23091855.717
  22700916.170   -13955379.60449 -10857414.33146  22700915.414    22700923.741
  20955110.294   -21076275.22949 -16158175.89047  20955109.479    20955116.109
  22565691.929   -17930842.01749 -13506592.93347  22565690.607    22565697.046
  24513851.584    -1930477.25649  -1213184.13745  24513850.854    24513858.518
  20716381.567   -22689504.70849 -17655840.55848  20716380.958    20716387.437
  21212440.613   -23389066.34949 -18194317.15247  21212440.413    21212445.909
 04  7 23  1 42  0.0000000  0  8G 3G10G28G 8G19G23G27G13
  23594116.815   -11223107.35149  -8731231.02446  23594116.303    23594123.721
  23089755.986   -11323672.86049  -8797801.92946  23089754.835    23089763.439
  22684748.036   -14040342.72249 -10923619.15546  22684747.316    22684755.598
  20946436.353   -21121857.44049 -16193694.50747  20946435.524    20946442.096
  22561153.065   -17954694.03749 -13525178.88347  22561151.750    22561158.121
  24534667.132    -1821091.82749  -1127948.95045  24534666.414    24534674.060
  20715192.195   -22695754.93949 -17660710.86948  20715191.581    20715198.089
  21225468.157   -23320606.54449 -18140971.90347  21225467.954    21225473.473
 04  7 23  1 42 30.0000000  0  8G 3G10G28G 8G19G23G27G13
  23604369.195   -11169231.30449  -8689249.59646  23604368.585    23604375.989
  23087774.355   -11334086.16549  -8805916.15946  23087773.227    23087781.788
  22668630.823   -14125038.35449 -10989615.54046  22668630.095    22668638.325
  20937805.592   -21167212.40549 -16229036.04147  20937804.759    20937811.339
  22556715.478   -17978013.08149 -13543349.52447  22556714.252    22556720.591
  24555505.113    -1711588.48349  -1042621.88945  24555504.368    24555512.110
  20714041.539   -22701801.62249 -17665422.57148  20714040.928    20714047.447
  21238575.593   -23251726.35849 -18087299.08547  21238575.410    21238581.022
 04  7 23  1 43  0.0000000  0  8G 3G10G28G 8G19G23G27G13
  23614716.980   -11114853.25149  -8646876.96046  23614716.372    23614723.796
  23085903.554   -11343916.80549  -8813576.37546  23085902.432    23085911.056
  22652564.932   -14209464.30849 -11055401.78146  22652564.196    22652572.438
  20929218.364   -21212338.55149 -16264199.27347  20929217.524    20929224.147
  22552379.915   -18000796.46149 -13561102.77447  22552378.683    22552385.069
  24576365.328    -1601967.80749   -957203.40945  24576364.686    24576372.379
  20712929.945   -22707643.27549 -17669974.50848  20712929.327    20712935.852
  21251763.125   -23182425.67649 -18033298.60847  21251762.941    21251768.596
 04  7 23  1 43 30.0000000  0  8G 3G10G28G 8G19G23G27G13
  23625159.605   -11059976.56249  -8604115.78846  23625159.023    23625166.362
  23084143.447   -11353166.36649  -8820783.79246  23084142.271    23084150.899
  22636550.347   -14293620.83749 -11120978.08746  22636549.593    22636557.825
  20920674.521   -21257236.67649 -16299184.82547  20920673.689    20920680.328
  22548146.324   -18023044.33449 -13578438.73947  22548145.054    22548151.469
  24597247.233    -1492233.23949   -871696.17145  24597246.630    24597254.386
  20711857.099   -22713280.92449 -17674367.48448  20711856.480    20711863.055
  21265030.100   -23112707.47249 -17978972.78847  21265029.906    21265035.540
 04  7 23  1 44  0.0000000  0  8G 3G10G28G 8G19G23G27G13
  23635697.218   -11004600.66649  -8560965.61946  23635696.598    23635703.996
  23082494.175   -11361832.98249  -8827536.95946  23082493.013    23082501.644
  22620587.492   -14377504.99449 -11186342.14946  22620586.734    22620594.972
  20912174.484   -21301904.53649 -16333990.94847  20912173.673    20912180.310
  22544015.233   -18044753.65749 -13595355.05247  22544013.884    22544020.302
  24618151.019    -1382384.58349   -786100.04145  24618150.419    24618158.225
  20710823.585   -22718712.11349 -17678599.58648  20710822.966    20710829.556
  21278376.650   -23042571.19949 -17924321.19547  21278376.456    21278382.091
 04  7 23  1 44 30.0000000  0  8G 3G10G28G 8G19G23G27G13
  23646329.039   -10948729.30449  -8517429.37545  23646328.428    23646335.836
  23080955.503   -11369918.87049  -8833837.61046  23080954.348    23080962.918
  22604676.440   -14461117.32549 -11251494.39346  22604675.679    22604683.915
  20903718.072   -21346343.50249 -16368618.70947  20903717.248    20903723.867
  22539986.335   -18065925.01049 -13611852.15547  22539985.003    22539991.458
  24639075.875    -1272425.51849   -700417.88245  24639075.092    24639082.978
  20709829.062   -22723938.48049 -17682672.08048  20709828.434    20709835.008
  21291802.240   -22972019.55449 -17869345.93247  21291802.022    21291807.677
 04  7 23  1 45  0.0000000  0  7G 3G10G28G 8G19G27G13
  23657055.025   -10892361.84749  -8473506.55045  23657054.573    23657061.985
  23079527.739   -11377421.73249  -8839683.94046  23079526.596    23079535.120
  22588817.720   -14544454.64149 -11316432.35646  22588816.948    22588825.157
  20895305.715   -21390550.77749 -16403065.93447  20895304.891    20895311.499
  22536060.652   -18086554.72149 -13627927.20047  22536059.271    22536065.755
  20708874.039   -22728957.11049 -17686582.70348  20708873.395    20708880.016
  21305306.993   -22901051.78249 -17814046.41247  21305306.783    21305312.455
 04  7 23  1 45 30.0000000  0  7G 3G10G28G 8G19G27G13
  23667875.120   -10835501.08649  -8429199.32945  23667874.751    23667881.980
  23078210.733   -11384342.68249  -8845076.85246  23078209.598    23078218.080
  22573011.435   -14627516.44949 -11381155.63746  22573010.680    22573018.817
  20886937.446   -21434526.45449 -16437332.69347  20886936.605    20886943.231
  22532238.043   -18106642.68149 -13643580.10147  22532236.617    22532243.106
  20707958.419   -22733768.74349 -17690332.03248  20707957.779    20707964.391
  21318890.497   -22829669.86349 -17758424.19147  21318890.309    21318896.035
 04  7 23  1 46  0.0000000  0  7G 3G10G28G 8G19G27G13
  23678788.681   -10778149.15749  -8384509.39045  23678788.316    23678795.424
  23077004.358   -11390682.14449  -8850016.62846  23077003.213    23077011.723
  22557257.732   -14710301.94849 -11445663.60946  22557256.986    22557265.026
  20878613.219   -21478270.47049 -16471418.94147  20878612.397    20878619.023
  22528518.614   -18126188.01849 -13658810.18547  22528517.162    22528523.670
  20707082.277   -22738372.94349 -17693919.72848  20707081.636    20707088.210
  21332552.576   -22757875.32849 -17702480.44847  21332552.411    21332558.128
 04  7 23  1 46 30.0000000  0  7G 3G10G28G 8G19G27G13
  23689795.243   -10720308.79249  -8339438.85745  23689794.906    23689801.805
  23075908.432   -11396441.25249  -8854504.22046  23075907.252    23075915.758
  22541556.624   -14792811.17949 -11509956.32346  22541555.896    22541563.792
  20870333.041   -21521783.11249 -16505324.90048  20870332.210    20870338.841
  22524902.424   -18145190.72049 -13673617.43247  22524901.026    22524907.450
  20706245.462   -22742770.45049 -17697346.37048  20706244.835    20706251.390
  21346292.731   -22685670.64749 -17646217.10747  21346292.569    21346298.267
 04  7 23  1 47  0.0000000  0  7G 3G10G28G 8G19G27G13
  23700894.719   -10661980.72349  -8293988.29945  23700894.313    23700901.091
  23074923.169   -11401619.00949  -8858538.77846  23074921.944    23074930.446
  22525908.549   -14875041.72149 -11574031.85446  22525907.809    22525915.557
  20862097.191   -21565062.86749 -16539049.39148  20862096.341    20862102.985
  22521390.064   -18163648.46549 -13688000.04047  22521388.687    22521394.975
  20705448.248   -22746959.74449 -17700610.76648  20705447.627    20705454.193
  21360110.895   -22613055.90349 -17589634.23747  21360110.713    21360116.440
 04  7 23  1 47 30.0000000  0  7G 3G10G28G 8G19G27G13
  23712086.523   -10603167.44949  -8248159.62445  23712086.045    23712092.780
  23074048.249   -11406216.36049  -8862121.09546  23074047.080    23074055.571
  22510313.561   -14956993.21049 -11637889.92746  22510312.805    22510320.480
  20853905.548   -21608110.01149 -16572592.62148  20853904.712    20853911.395
  22517981.527   -18181560.53249 -13701957.42947  22517980.147    22517986.428
  20704690.707   -22750940.92749 -17703712.98848  20704690.081    20704696.632
  21374006.670   -22540033.16149 -17532733.43847  21374006.503    21374012.239
 04  7 23  1 48  0.0000000  0  7G 3G10G28G 8G19G27G13
  23723370.493   -10543870.65949  -8201954.19445  23723369.843    23723376.520
  23073283.751   -11410233.42849  -8865251.24146  23073282.609    23073291.063
  22494771.904   -15038664.31449 -11701529.51146  22494771.124    22494778.803
  20845758.392   -21650923.61249 -16605953.87748  20845757.552    20845764.246
  22514676.938   -18198925.90749 -13715488.83847  22514675.554    22514681.949
  20703972.873   -22754713.34149 -17706652.54048  20703972.258    20703978.782
  21387979.909   -22466603.47649 -17475515.54447  21387979.740    21387985.479
 04  7 23  1 48 30.0000000  0  7G 3G10G28G 8G19G27G13
  23734746.017   -10484091.82849  -8155373.12445  23734745.258    23734751.988
  23072629.672   -11413670.32449  -8867929.30646  23072628.522    23072636.958
  22479283.854   -15120053.69749 -11764949.58446  22479283.057    22479290.686
  20837655.842   -21693502.92049 -16639132.56948  20837654.992    20837661.681
  22511476.691   -18215742.82949 -13728592.87447  22511475.340    22511481.776
  20703294.928   -22758276.09649 -17709428.71748  20703294.297    20703300.808
  21402030.465   -22392767.88349 -17417981.36647  21402030.263    21402036.006
 04  7 23  1 49  0.0000000  0  7G 3G10G28G 8G19G27G13
  23746212.920   -10423832.47749  -8108417.62745  23746212.179    23746218.930
  23072086.059   -11416527.02549  -8870155.27446  23072084.938    23072093.331
  22463849.704   -15201159.57349 -11828148.73546  22463848.901    22463856.552
  20829598.030   -21735847.12449 -16672128.06548  20829597.180    20829603.847
  22508381.131   -18232010.01849 -13741268.56647  22508379.753    22508386.135
  20702657.078   -22761628.30849 -17712040.83548  20702656.429    20702662.930
  21416158.004   -22318527.10449 -17360131.45447  21416157.793    21416163.616
 04  7 23  1 49 30.0000000  0  7G 3G10G28G 8G19G27G13
  23757770.983   -10363094.19749  -8061088.92745  23757770.228    23757777.097
  23071652.792   -11418803.29249  -8871928.95846  23071651.718    23071660.116
  22448469.788   -15281980.72649 -11891126.04046  22448469.008    22448476.561
  20821585.229   -21777954.79449 -16704939.24548  20821584.377    20821591.047
  22505390.295   -18247726.24449 -13753514.93247  22505388.944    22505395.301
  20702059.446   -22764769.14249 -17714488.24348  20702058.793    20702065.273
  21430362.365   -22243882.64349 -17301966.97847  21430362.179    21430368.051
 04  7 23  1 50  0.0000000  0  7G 3G10G28G 8G19G27G13
  23769419.387   -10301880.04049  -8013389.42945  23769418.765    23769425.672
  23071329.820   -11420500.61449  -8873251.52646  23071328.742    23071337.094
  22433144.079   -15362517.07749 -11953881.40946  22433143.309    22433150.751
  20813617.316   -21819826.55149 -16737566.59548  20813616.463    20813623.099
  22502504.341   -18262891.67549 -13765332.11547  22502503.041    22502509.334
  20701501.776   -22767699.48949 -17716771.63648  20701501.129    20701507.629
  21444643.251   -22168836.46549 -17243489.49047  21444643.062    21444648.869
 04  7 23  1 50 30.0000000  0  7G 3G10G28G 8G19G27G13
  23781157.992   -10240191.55549  -7965320.30745  23781157.518    23781164.437
  23071116.922   -11421619.18349  -8874123.12146  23071115.869    23071124.139
  22417872.742   -15442767.58749 -12016414.05046  22417871.990    22417879.369
  20805694.487   -21861461.52749 -16770009.43848  20805693.618    20805700.238
  22499723.477   -18277504.92049 -13776719.00547  22499722.226    22499728.478
  20700984.382   -22770418.30949 -17718890.20748  20700983.727    20700990.251
  21459000.390   -22093389.85149 -17184699.97147  21459000.183    21459005.887
 04  7 23  1 51  0.0000000  0  8G 3G10G31G28G 8G19G27G13
  23792985.879   -10178034.56349  -7916886.11545  23792985.390    23792992.402
  23071013.359   -11422163.62449  -8874547.33546  23071012.240    23071020.520
  24636927.959    -4560337.14549  -3240364.31245  24636927.151    24636943.129
  22402655.314   -15522734.85949 -12078725.98446  22402654.535    22402661.896
  20797815.889   -21902863.43749 -16802270.66348  20797815.032    20797821.708
  22497047.206   -18291568.92449 -13787677.91647  22497045.909    22497052.144
  20700506.548   -22772929.21149 -17720846.76748  20700505.898    20700512.443
  21473432.594   -22017548.22649 -17125602.64747  21473432.352    21473438.066
 04  7 23  1 51 30.0000000  0  8G 3G10G31G28G 8G19G27G13
  23804902.680   -10115410.24849  -7868087.73945  23804902.139    23804909.207
  23071019.086   -11422133.32149  -8874523.70146  23071017.967    23071026.259
  24614998.481    -4675575.87749  -3330160.21245  24614997.702    24615013.684
  22387492.071   -15602417.24949 -12140815.94946  22387491.283    22387498.618
  20789981.911   -21944031.03749 -16834349.31048  20789981.086    20789987.769
  22494475.737   -18305081.96649 -13798207.50847  22494474.389    22494480.651
  20700068.500   -22775230.97749 -17722640.36248  20700067.871    20700074.455
  21487939.786   -21941312.24049 -17066198.02147  21487939.569    21487945.351
 04  7 23  1 52  0.0000000  0  8G 3G10G31G28G 8G19G27G13
  23816909.225   -10052313.61649  -7818921.39045  23816908.778    23816915.779
  23071135.501   -11421521.52249  -8874046.95846  23071134.356    23071142.702
  24593059.234    -4790865.86749  -3419996.06645  24593058.471    24593074.191
  22372384.634   -15681806.57349 -12202677.54546  22372383.831    22372391.159
  20782194.190   -21984956.15549 -16866239.01448  20782193.347    20782200.002
  22492010.614   -18318036.10249 -13808301.60247  22492009.276    22492015.526
  20699671.747   -22777315.83649 -17724264.94948  20699671.126    20699677.696
  21502523.203   -21864676.07649 -17006481.58647  21502522.993    21502528.788
 04  7 23  1 52 30.0000000  0  8G 3G10G31G28G 8G19G27G13
  23829005.129    -9988748.57549  -7769390.03645  23829004.763    23829011.580
  23071362.068   -11420330.90649  -8873119.18546  23071360.909    23071369.258
  24571110.232    -4906206.46049  -3509871.36745  24571109.456    24571125.034
  22357332.797   -15760903.53549 -12264311.33846  22357331.992    22357339.320
  20774452.216   -22025640.66949 -16897941.23048  20774451.357    20774457.996
  22489651.604   -18330432.29449 -13817960.94647  22489650.289    22489656.561
  20699316.076   -22779185.22349 -17725721.63848  20699315.422    20699321.991
  21517182.188   -21787643.22949 -16946456.04047  21517181.965    21517187.763
 04  7 23  1 53  0.0000000  0  8G 3G10G31G28G 8G19G27G13
  23841189.775    -9924718.55449  -7719496.36145  23841189.258    23841195.795
  23071698.351   -11418563.26649  -8871741.78946  23071697.226    23071705.588
  24549151.787    -5021596.38249  -3599785.11245  24549151.007    24549166.300
  22342336.524   -15839708.69249 -12325717.75246  22342335.703    22342342.948
  20766755.875   -22066085.06049 -16929456.33148  20766755.045    20766761.690
  22487398.640   -18342271.29649 -13827186.09647  22487397.359    22487403.672
  20699001.148   -22780840.26649 -17727011.29648  20699000.490    20699007.072
  21531916.007   -21710216.54549 -16886123.59547  21531915.785    21531921.625
 04  7 23  1 53 30.0000000  0  8G 3G10G31G28G 8G19G27G13
  23853462.621    -9860224.56949  -7669241.17245  23853461.932    23853468.185
  23072144.584   -11416218.20849  -8869914.45946  23072143.428    23072151.786
  24527184.716    -5137031.75849  -3689734.24945  24527183.845    24527199.043
  22327396.155   -15918219.91849 -12386895.12446  22327395.356    22327402.515
  20759105.635   -22106287.50049 -16960782.91148  20759104.781    20759111.420
  22485252.142   -18353551.10649 -13835975.50247  22485250.815    22485257.214
  20698727.349   -22782279.13349 -17728132.51048  20698726.720    20698733.297
  21546724.689   -21632396.45949 -16825484.61647  21546724.473    21546730.285
 04  7 23  1 54  0.0000000  0  8G 3G10G31G28G 8G19G27G13
  23865823.043    -9795270.17949  -7618627.19445  23865822.325    23865828.434
  23072700.256   -11413298.07449  -8867639.00746  23072699.123    23072707.452
  24505209.110    -5252511.70649  -3779718.11345  24505208.318    24505223.391
  22312511.685   -15996437.86649 -12447843.97646  22312510.860    22312517.924
  20751501.201   -22146249.25149 -16991921.94848  20751500.325    20751506.952
  22483211.756   -18364272.54249 -13844329.80347  22483210.507    22483216.951
  20698494.427   -22783503.09649 -17729086.26548  20698493.801    20698500.397
  21561607.678   -21554186.11549 -16764541.54047  21561607.450    21561613.274
 04  7 23  1 54 30.0000000  0  8G 3G10G31G28G 8G19G27G13
  23878270.791    -9729856.82149  -7567655.65345  23878269.988    23878275.904
  23073365.411   -11409802.73149  -8864915.34646  23073364.262    23073372.557
  24483225.584    -5368033.01449  -3869734.21645  24483224.847    24483239.774
  22297683.211   -16074361.23249 -12508563.29146  22297682.376    22297689.396
  20743942.628   -22185969.62449 -17022872.89148  20743941.768    20743948.389
  22481277.991   -18374434.19549 -13852247.90347  22481276.786    22481283.202
  20698302.631   -22784511.08949 -17729871.73648  20698302.004    20698308.605
  21576564.772   -21475586.39349 -16703295.05047  21576564.555    21576570.385
 04  7 23  1 55  0.0000000  0  8G 3G10G31G28G 8G19G27G13
  23890805.291    -9663986.91949  -7516328.31745  23890804.471    23890810.403
  23074139.851   -11405732.88349  -8861744.03046  23074138.676    23074146.951
  24461234.674    -5483593.10849  -3959780.52145  24461233.961    24461248.815
  22282910.979   -16151988.97349 -12569052.25146  22282910.153    22282917.148
  20736430.161   -22225447.92749 -17053635.21448  20736429.309    20736435.915
  22479450.974   -18384035.55449 -13859729.41847  22479449.721    22479456.036
  20698151.928   -22785302.87049 -17730488.73148  20698151.308    20698157.931
  21591595.573   -21396598.97849 -16641746.46547  21591595.360    21591601.239
 04  7 23  1 55 30.0000000  0  8G 3G10G31G28G 8G19G27G13
  23903426.157    -9597662.41149  -7464646.77945  23903425.483    23903431.430
  23075023.477   -11401089.44549  -8858125.74946  23075022.334    23075030.536
  24439237.037    -5599189.20349  -4049854.86545  24439236.340    24439251.169
  22268195.163   -16229320.11349 -12629310.08747  22268194.350    22268201.337
  20728964.004   -22264683.09549 -17084208.08048  20728963.137    20728969.708
  22477730.633   -18393075.79649 -13866773.69647  22477729.372    22477735.652
  20698042.530   -22785877.63149 -17730936.61148  20698041.944    20698048.578
  21606699.955   -21317225.27949 -16579896.87347  21606699.733    21606705.662
 04  7 23  1 56  0.0000000  0  8G 3G10G31G28G 8G19G27G13
  23916133.402    -9530884.83149  -7412612.19045  23916132.716    23916138.734
  23076016.245   -11395872.45349  -8854060.55046  23076015.097    23076023.266
  24417233.213    -5714818.02649  -4139954.70545  24417232.443    24417247.249
  22253536.174   -16306353.01249 -12689335.54247  22253535.358    22253542.266
  20721544.238   -22303674.27149 -17114590.81948  20721543.354    20721549.936
  22476117.276   -18401553.85249 -13873379.90747  22476116.029    22476122.265
  20697974.672   -22786234.38649 -17731214.61948  20697974.091    20697980.702
  21621877.717   -21237466.10149 -16517746.92147  21621877.465    21621883.371
 04  7 23  1 56 30.0000000  0  8G 3G10G31G28G 8G19G27G13
  23928926.330    -9463657.20649  -7360226.89045  23928925.570    23928931.633
  23077117.923   -11390083.10049  -8849549.34346  23077116.794    23077124.917
  24395223.593    -5830477.52749  -4230078.44345  24395222.680    24395237.645
  22238933.978   -16383087.48949 -12749128.45947  22238933.187    22238940.029
  20714170.865   -22342421.51749 -17144783.48448  20714169.998    20714176.588
  22474611.035   -18409469.38349 -13879547.78347  22474609.751    22474615.920
  20697948.258   -22786373.43249 -17731322.98948  20697947.669    20697954.236
  21637128.313   -21157324.09149 -16455298.64947  21637128.058    21637133.915
 04  7 23  1 57  0.0000000  0  8G 3G10G31G28G 8G19G27G13
  23941804.172    -9395981.95449  -7307492.79745  23941803.546    23941809.764
  23078328.373   -11383722.56049  -8844593.07346  23078327.216    23078335.329
  24373208.550    -5946165.45449  -4320224.31045  24373207.730    24373222.445
  22224388.622   -16459523.14549 -12808688.52947  22224387.837    22224394.646
  20706844.022   -22380924.49649 -17174785.81248  20706843.161    20706849.734
  22473211.881   -18416822.21149 -13885277.18247  22473210.550    22473216.656
  20697963.323   -22786294.48749 -17731261.49648  20697962.718    20697969.286
  21652451.360   -21076800.81049 -16392553.29447  21652451.100    21652457.019
 04  7 23  1 57 30.0000000  0  8G 3G10G31G28G 8G19G27G13
  23954767.331    -9327859.52449  -7254410.29745  23954766.670    23954772.934
  23079647.531   -11376790.41149  -8839191.38146  23079646.344    23079654.456
  24351189.008    -6061877.66649  -4410389.10945  24351188.154    24351202.586
  22209900.620   -16535657.40849 -12868013.75747  22209899.817    22209906.563
  20699563.935   -22419181.53549 -17204596.49548  20699563.061    20699569.636
  22471920.012   -18423610.40649 -13890566.60047  22471918.735    22471924.885
  20698020.202   -22785995.67949 -17731028.66848  20698019.599    20698026.173
  21667846.851   -20995896.68349 -16329511.16047  21667846.632    21667852.574
 04  7 23  1 58  0.0000000  0  8G 3G10G31G28G 8G19G27G13
  23967814.950    -9259294.11349  -7200982.61845  23967814.027    23967820.370
  23081075.013   -11369289.01949  -8833346.13246  23081073.795    23081081.931
  24329164.928    -6177613.23149  -4500572.09845  24329164.050    24329178.344
  22195469.743   -16611491.38049 -12927104.99947  22195468.957    22195475.665
  20692330.530   -22457193.37449 -17234216.11948  20692329.638    20692336.197
  22470735.469   -18429835.12749 -13895416.94547  22470734.164    22470740.329
  20698118.667   -22785478.35849 -17730625.56848  20698118.061    20698124.678
  21683314.334   -20914615.01049 -16266174.84647  21683314.094    21683320.004
 04  7 23  1 58 30.0000000  0  8G 3G10G31G28G 8G19G27G13
  23980946.365    -9190286.72149  -7147210.50645  23980945.527    23980951.872
  23082610.717   -11361218.29249  -8827057.23446  23082609.552    23082617.723
  24307137.031    -6293368.39049  -4590770.36945  24307136.211    24307150.259
  22181096.398   -16687023.08249 -12985960.70847  22181095.597    22181102.253
  20685144.013   -22494958.54849 -17263643.52248  20685143.134    20685149.723
  22469658.528   -18435494.84249 -13899827.01747  22469657.160    22469663.285
  20698258.999   -22784740.87649 -17730050.90148  20698258.384    20698265.029
  21698853.526   -20832956.33749 -16202544.75947  21698853.247    21698859.175
 04  7 23  1 59  0.0000000  0  8G 3G10G31G28G 8G19G27G13
  23994161.717    -9120838.90949  -7093095.19245  23994160.989    23994167.331
  23084254.847   -11352578.40549  -8820324.84046  23084253.704    23084261.819
  24285106.181    -6409139.76249  -4680981.25345  24285105.262    24285119.077
  22166780.826   -16762250.90849 -13044579.64147  22166780.018    22166786.659
  20678004.711   -22532475.73349 -17292877.69048  20678003.866    20678010.474
  22468689.093   -18440588.20249 -13903795.77047  22468687.771    22468693.926
  20698441.481   -22783782.10749 -17729303.81148  20698440.848    20698447.481
  21714464.198   -20750921.63749 -16138621.67047  21714463.939    21714469.871
 04  7 23  1 59 30.0000000  0  8G 3G10G31G28G 8G19G27G13
  24007460.416    -9050953.09449  -7038638.61545  24007459.642    24007466.091
  23086007.047   -11343370.39449  -8813149.76346  23086005.831    23086014.039
  24263072.699    -6524924.76149  -4771202.74045  24263071.746    24263085.354
  22152523.252   -16837174.25549 -13102961.31347  22152522.448    22152529.046
  20670912.693   -22569744.76449 -17321918.49148  20670911.835    20670918.440
  22467827.540   -18445114.86449 -13907322.93647  22467826.288    22467832.485
  20698666.097   -22782601.76049 -17728384.05648  20698665.462    20698672.120
  21730146.095   -20668512.71049 -16074406.97647  21730145.883    21730151.814
 04  7 23  2  0  0.0000000  0  8G 3G10G31G28G 8G19G27G13
  24020841.758    -8980632.97549  -6983843.61345  24020841.008    24020847.529
  23087866.963   -11333596.55249  -8805533.76645  23087865.733    23087873.938
  24241036.806    -6640722.11549  -4861433.87045  24241035.931    24241049.231
  22138323.528   -16911793.72249 -13161106.21247  22138322.708    22138329.228
  20663867.739   -22606766.32849 -17350766.45048  20663866.873    20663873.465
  22467073.792   -18449075.83949 -13910409.29747  22467072.509    22467078.644
  20698932.732   -22781200.61549 -17727292.24348  20698932.107    20698938.778
  21745898.705   -20585732.76949 -16009903.17247  21745898.448    21745904.418
 04  7 23  2  0 30.0000000  0  9G 3G10G31G29G28G 8G19G27G13
  24034304.933    -8909882.20749  -6928713.06045  24034304.237    24034310.885
  23089834.036   -11323259.32349  -8797478.76545  23089832.881    23089841.005
  24218998.841    -6756530.38549  -4951673.48845  24218998.037    24219010.869
  24760636.819    -2967094.16249  -2288349.56545  24760636.338    24760645.181
  22124181.601   -16986109.52849 -13219014.49347  22124180.779    22124187.226
  20656869.642   -22643541.46849 -17379422.39948  20656868.777    20656875.342
  22466427.531   -18452471.97049 -13913055.51447  22466426.177    22466432.272
  20699241.222   -22779579.61049 -17726029.11448  20699240.584    20699247.243
  21761721.270   -20502584.62249 -15945112.45347  21761721.024    21761727.096
 04  7 23  2  1  0.0000000  0  9G 3G10G31G29G28G 8G19G27G13
  24047850.197    -8838701.03549  -6873247.13645  24047849.480    24047856.248
  23091908.509   -11312357.88949  -8788984.13045  23091907.305    23091915.507
  24196959.711    -6872345.05249  -5041918.11145  24196958.836    24196971.540
  24741373.314    -3068323.49149  -2367229.41345  24741372.834    24741381.689
  22110097.921   -17060119.35049 -13276684.34547  22110097.099    22110103.489
  20649918.998   -22680067.31549 -17407884.07348  20649918.119    20649924.707
  22465889.087   -18455301.00349 -13915259.83747  22465887.750    22465893.846
  20699592.020   -22777736.35049 -17724592.79348  20699591.351    20699598.010
  21777613.809   -20419068.36949 -15880034.89747  21777613.612    21777619.771
 04  7 23  2  1 30.0000000  0  9G 3G10G31G29G28G 8G19G27G13
  24061477.438    -8767088.94449  -6817445.45045  24061476.737    24061483.542
  23094090.700   -11300890.29549  -8780048.34745  23094089.505    23094097.803
  24174920.318    -6988160.59749  -5132163.42345  24174919.392    24174931.989
  24722124.128    -3169477.42149  -2446050.54245  24722123.720    24722132.568
  22096073.206   -17133819.34749 -13334112.78047  22096072.398    22096078.698
  20643016.375   -22716340.78749 -17436149.08348  20643015.498    20643022.078
  22465459.044   -18457559.93349 -13917019.93147  22465457.738    22465463.880
  20699985.660   -22775667.57249 -17722980.73548  20699984.999    20699991.671
  21793576.753   -20335182.71949 -15814669.50647  21793576.531    21793582.709
 04  7 23  2  2  0.0000000  0  9G 3G10G31G29G28G 8G19G27G13
  24075186.012    -8695049.67249  -6761310.90145  24075185.436    24075192.254
  23096380.202   -11288858.70549  -8770673.06345  23096379.020    23096387.287
  24152881.031    -7103975.33649  -5222408.11445  24152880.150    24152892.690
  24702889.558    -3270555.10749  -2524812.22245  24702889.006    24702897.847
  22082107.335   -17207209.88949 -13391300.08447  22082106.516    22082112.810
  20636161.698   -22752362.32449 -17464217.78048  20636160.803    20636167.417
  22465137.484   -18459249.31849 -13918336.21547  22465136.170    22465142.262
  20700422.122   -22773373.86749 -17721193.41848  20700421.466    20700428.140
  21809609.459   -20250930.59249 -15749018.55147  21809609.272    21809615.349
 04  7 23  2  2 30.0000000  0  9G 3G10G31G29G28G 8G19G27G13
  24088975.464    -8622585.40049  -6704845.19145  24088974.850    24088981.703
  23098776.871   -11276264.13049  -8760859.10245  23098775.671    23098783.874
  24130842.398    -7219786.56149  -5312650.05845  24130841.567    24130853.971
  24683669.946    -3371554.53049  -2603512.98045  24683669.561    24683677.931
  22068200.478   -17280290.29149 -13448245.72547  22068199.664    22068205.972
  20629355.033   -22788131.39549 -17492089.73948  20629354.155    20629360.796
  22464924.360   -18460368.79149 -13919208.41247  22464923.058    22464929.131
  20700901.524   -22770854.63049 -17719230.35448  20700900.864    20700907.527
  21825711.607   -20166313.59149 -15683083.27647  21825711.395    21825717.419
 04  7 23  2  3  0.0000000  0  9G 3G10G31G29G28G 8G19G27G13
  24102845.439    -8549699.65649  -6648051.07445  24102844.696    24102851.365
  23101280.171   -11263109.05949  -8750608.39345  23101278.987    23101287.140
  24108804.810    -7335592.99349  -5402888.29245  24108803.844    24108816.296
  24664465.324    -3472475.23549  -2682152.38245  24664464.808    24664473.094
  22054352.493   -17353061.26349 -13504950.24847  22054351.680    22054358.022
  20622596.274   -22823648.72149 -17519765.53548  20622595.424    20622602.058
  22464819.381   -18460919.71149 -13919637.59747  22464818.120    22464824.159
  20701423.617   -22768110.93749 -17717092.38748  20701422.943    20701429.608
  21841882.540   -20081334.92949 -15616866.17847  21841882.339    21841888.392
 04  7 23  2  3 30.0000000  0  9G 3G10G31G29G28G 8G19G27G13
  24116795.465    -8476393.25249  -6590929.14445  24116794.500    24116801.016
  23103890.175   -11249393.40449  -8739920.86645  23103889.001    23103897.115
  24086768.869    -7451390.39449  -5493119.48445  24086767.878    24086780.311
  24645276.392    -3573313.76449  -2760727.76945  24645275.712    24645284.050
  22040563.856   -17425520.59449 -13561411.94347  22040563.056    22040569.417
  20615885.838   -22858912.28049 -17547243.59348  20615884.960    20615891.581
  22464823.160   -18460900.01949 -13919622.14647  22464821.868    22464827.830
  20701988.773   -22765140.82649 -17714777.98148  20701988.092    20701994.747
  21858122.183   -19995995.10149 -15550367.64247  21858121.977    21858128.033
 04  7 23  2  4  0.0000000  0  9G 3G10G31G29G28G 8G19G27G13
  24130824.650    -8402669.77049  -6533482.26345  24130823.718    24130829.926
  23106606.499   -11235118.92149  -8728797.86945  23106605.311    23106613.467
  24064734.985    -7567177.02249  -5583342.30945  24064733.982    24064746.378
  24626103.199    -3674068.82449  -2839238.11245  24626102.474    24626110.797
  22026834.508   -17497668.22049 -13617630.76147  22026833.710    22026840.073
  20609223.611   -22893922.35849 -17574524.12848  20609222.702    20609229.334
  22464935.333   -18460310.84049 -13919162.94247  22464933.940    22464939.829
  20702596.891   -22761944.83349 -17712287.56448  20702596.231    20702602.884
  21874430.098   -19910296.67449 -15483589.69547  21874429.867    21874435.940
 04  7 23  2  4 30.0000000  0  9G 3G10G31G29G28G 8G19G27G13
  24144932.937    -8328530.57449  -6475711.43645  24144932.071    24144938.015
  23109429.112   -11220286.09449  -8717239.81645  23109427.946    23109436.060
  24042703.881    -7682948.98549  -5673553.72345  24042702.835    24042715.037
  24606946.423    -3774737.49349  -2917681.16345  24606945.796    24606954.227
  22013164.802   -17569502.62349 -13673605.51247  22013164.004    22013170.301
  20602609.923   -22928677.30049 -17601605.85348  20602609.021    20602615.673
  22465155.953   -18459150.60549 -13918258.77147  22465154.608    22465160.495
  20703248.320   -22758521.35849 -17709619.90048  20703247.670    20703254.320
  21890806.113   -19824240.54349 -15416533.00747  21890805.870    21890811.877
 04  7 23  2  5  0.0000000  0  9G 3G10G31G29G28G 8G19G27G13
  24159119.923    -8253978.04249  -6417618.47445  24159119.010    24159124.777
  23112357.749   -11204896.08649  -8705247.58845  23112356.589    23112364.629
  24020676.026    -7798703.91249  -5763751.88345  24020674.914    24020687.031
  24587806.412    -3875317.93049  -2996055.44945  24587805.826    24587814.266
  21999554.810   -17641023.32949 -13729335.83347  21999554.006    21999560.236
  20596044.738   -22963177.08549 -17628488.74848  20596043.866    20596050.540
  22465485.251   -18457419.45149 -13916909.74347  22465483.939    22465489.802
  20703943.127   -22754870.00749 -17706774.66648  20703942.489    20703949.108
  21907249.792   -19737828.80649 -15349199.22147  21907249.507    21907255.527
 04  7 23  2  5 30.0000000  0  9G 3G10G31G29G28G 8G19G27G13
  24173384.904    -8179014.37149  -6359205.16545  24173384.035    24173389.620
  23115392.123   -11188950.25249  -8692822.25345  23115391.038    23115398.962
  23998651.964    -7914438.86249  -5853934.46545  23998650.871    23998662.707
  24568683.612    -3975808.03649  -3074359.33645  24568683.134    24568691.790
  21986004.685   -17712229.39949 -13784821.00047  21986003.887    21986009.988
  20589528.339   -22997420.94949 -17655172.23448  20589527.477    20589534.134
  22465923.378   -18455117.05649 -13915115.57947  22465921.986    22465927.806
  20704681.444   -22750990.28949 -17703751.49248  20704680.808    20704687.373
  21923760.820   -19651062.95449 -15281589.50847  21923760.566    21923766.617
 04  7 23  2  6  0.0000000  0  9G 3G10G31G29G28G 8G19G27G13
  24187727.667    -8103642.06949  -6300473.40845  24187726.805    24187732.181
  23118532.153   -11172449.68749  -8679964.66745  23118530.985    23118538.943
  23976632.267    -8030151.01049  -5944099.28845  23976631.234    23976642.712
  24549578.571    -4076205.57349  -3152591.08745  24549578.001    24549586.824
  21972514.543   -17783120.13849 -13840060.45947  21972513.725    21972519.739
  20583060.885   -23031407.72749 -17681655.39548  20583059.994    20583066.612
  22466470.116   -18452243.10849 -13912876.05547  22466468.787    22466474.563
  20705463.255   -22746881.76849 -17700550.02548  20705462.626    20705469.192
  21940338.978   -19563944.63549 -15213705.14747  21940338.690    21940344.755
 04  7 23  2  6 30.0000000  0  9G 3G10G31G29G28G 8G19G27G13
  24202147.746    -8027863.55349  -6241425.18845  24202146.952    24202152.068
  23121777.433   -11155395.50849  -8666675.69545  23121776.268    23121784.286
  23954617.388    -8145837.48549  -6034244.12045  23954616.415    23954627.653
  24530491.530    -4176508.48649  -3230749.10645  24530490.795    24530499.584
  21959084.523   -17853694.88449 -13895053.68447  21959083.703    21959089.662
  20576642.335   -23065137.24349 -17707938.08848  20576641.438    20576648.042
  22467125.620   -18448797.58049 -13910191.13947  22467124.383    22467130.138
  20706288.694   -22742543.81049 -17697169.77748  20706288.055    20706294.678
  21956983.789   -19476475.80449 -15145547.64347  21956983.496    21956989.514
 04  7 23  2  7  0.0000000  0  9G 3G10G31G29G28G 8G19G27G13
  24216644.715    -7951680.94449  -6182062.04345  24216643.846    24216649.036
  23125127.848   -11137788.78649  -8652956.16545  23125126.618    23125134.738
  23932607.934    -8261495.35449  -6124366.67345  23932606.982    23932618.150
  24511422.949    -4276714.41549  -3308831.55545  24511422.186    24511430.971
  21945714.885   -17923952.46949 -13949799.78247  21945714.079    21945719.977
  20570272.882   -23098608.76349 -17734019.74848  20570271.987    20570278.610
  22467890.171   -18444780.10149 -13907060.55247  22467888.854    22467894.568
  20707157.999   -22737975.54849 -17693610.07848  20707157.363    20707163.957
  21973694.945   -19388658.28349 -15077118.42847  21973694.668    21973700.640
 04  7 23  2  7 30.0000000  0  9G 3G10G31G29G28G 8G19G27G13
  24231218.083    -7875097.07849  -6122386.27345  24231217.217    24231222.490
  23128583.079   -11119631.14049  -8638807.35145  23128581.876    23128590.027
  23910604.457    -8377122.16249  -6214465.04145  23910603.574    23910614.718
  24492373.091    -4376821.68349  -3386837.11345  24492372.473    24492381.181
  21932405.561   -17993893.02549 -14004298.84347  21932404.742    21932410.649
  20563952.619   -23131821.76849 -17759899.97248  20563951.732    20563958.362
  22468763.425   -18440190.91749 -13903484.48947  22468762.090    22468767.804
  20708071.149   -22733176.96549 -17689870.91048  20708070.481    20708077.072
  21990472.026   -19300494.14149 -15008419.13547  21990471.753    21990477.725
 04  7 23  2  8  0.0000000  0  9G 3G10G31G29G28G 8G19G27G13
  24245867.360    -7798114.99549  -6062400.23245  24245866.436    24245871.639
  23132142.836   -11100924.57249  -8624230.81045  23132141.631    23132149.813
  23888607.445    -8492715.58149  -6304537.42845  23888606.522    23888617.722
  24473342.316    -4476828.54249  -3464764.43245  24473341.708    24473350.437
  21919156.675   -18063515.93449 -14058550.38247  21919155.854    21919161.805
  20557681.638   -23164775.79849 -17785578.40948  20557680.734    20557687.348
  22469745.450   -18435030.45149 -13899463.25947  22469744.080    22469749.760
  20709028.136   -22728147.88849 -17685952.13148  20709027.459    20709034.049
  22007314.621   -19211985.58749 -14939451.45647  22007314.373    22007320.427
 04  7 23  2  8 30.0000000  0  9G 3G10G31G29G28G 8G19G27G13
  24260592.086    -7720735.10449  -6002104.17745  24260591.322    24260596.498
  23135807.024   -11081668.80549  -8609226.31845  23135805.845    23135814.020
  23866617.638    -8608271.21649  -6394580.35445  23866616.746    23866627.984
  24454331.363    -4576731.43149  -3542610.74045  24454330.739    24454339.522
  21905968.598   -18132819.17549 -14112552.83047  21905967.814    21905973.772
  20551460.150   -23197469.67449 -17811054.13248  20551459.251    20551465.833
  22470836.373   -18429297.15649 -13894995.68047  22470835.025    22470840.709
  20710029.408   -22722886.38449 -17681852.24548  20710028.735    20710035.300
  22024222.679   -19123133.12949 -14870215.79947  22024222.428    22024228.555
 04  7 23  2  9  0.0000000  0  9G 3G10G31G29G28G 8G19G27G13
  24275391.869    -7642960.11049  -5941500.28945  24275391.286    24275396.664
  23139575.548   -11061865.00749  -8593794.79845  23139574.435    23139582.544
  23844635.598    -8723786.20249  -6484591.64245  23844634.683    23844645.889
  24435340.626    -4676528.16849  -3620374.35345  24435340.056    24435348.642
  21892841.571   -18201802.02149 -14166305.62347  21892840.762    21892846.717
  20545288.469   -23229902.12549 -17836326.15148  20545287.563    20545294.121
  22472036.278   -18422990.95749 -13890081.68147  22472034.974    22472040.746
  20711075.036   -22717391.77349 -17677570.71848  20711074.332    20711080.857
  22041195.844   -19033938.47349 -14800713.49347  22041195.578    22041201.798
 04  7 23  2  9 30.0000000  0  9G 3G10G31G29G28G 8G19G27G13
  24290266.411    -7564793.46249  -5880591.20345  24290265.969    24290271.393
  23143447.933   -11041515.65049  -8577938.15445  23143446.825    23143454.760
  23822661.690    -8839258.62249  -6574569.74045  23822660.816    23822671.791
  24416370.269    -4776217.56649  -3698054.31945  24416369.739    24416378.385
  21879775.457   -18270464.71349 -14219808.95647  21879774.647    21879780.592
  20539166.461   -23262073.27549 -17861394.55848  20539165.562    20539172.151
  22473345.005   -18416112.81749 -13884722.02947  22473343.718    22473349.560
  20712164.937   -22711664.46149 -17673107.85748  20712164.217    20712170.754
  22058233.618   -18944404.41949 -14730946.72847  22058233.373    22058239.581
 04  7 23  2 10  0.0000000  0  9G 3G10G31G29G28G 8G19G27G13
  24305215.177    -7486237.91349  -5819379.08445  24305214.620    24305220.160
  23147423.771   -11020622.80849  -8561658.02345  23147422.693    23147430.545
  23800696.277    -8954686.11549  -6664512.84945  23800695.393    23800706.228
  24397420.642    -4875798.03949  -3775649.40745  24397420.178    24397428.754
  21866770.289   -18338807.11849 -14273062.71547  21866769.471    21866775.389
  20533094.140   -23293983.46149 -17886259.61248  20533093.255    20533099.841
  22474762.523   -18408663.07949 -13878916.96947  22474761.277    22474767.123
  20713299.059   -22705704.38049 -17668463.61348  20713298.342    20713304.874
  22075335.537   -18854533.19449 -14660917.22747  22075335.293    22075341.488
 04  7 23  2 10 30.0000000  0  9G 3G10G31G29G28G 8G19G27G13
  24320237.863    -7407294.10749  -5757864.38145  24320237.131    24320242.737
  23151503.089   -10999185.90649  -8544953.94845  23151501.979    23151509.843
  23778740.320    -9070064.01749  -6754417.33045  23778739.352    23778750.084
  24378492.471    -4975265.44449  -3853156.40045  24378491.972    24378500.573
  21853826.527   -18406826.75849 -14326064.97547  21853825.711    21853831.593
  20527071.930   -23325630.19249 -17910919.37648  20527071.044    20527077.647
  22476289.309   -18400640.10549 -13872665.23547  22476287.980    22476293.714
  20714477.929   -22699509.27549 -17663636.23948  20714477.216    20714483.757
  22092501.661   -18764325.12749 -14590625.25847  22092501.399    22092507.650
 04  7 23  2 11  0.0000000  0  9G 3G10G31G29G28G 8G19G27G13
  24335333.487    -7327966.17049  -5696050.42045  24335332.680    24335338.460
  23155685.313   -10977208.02349  -8527828.33345  23155684.194    23155692.122
  23756793.925    -9185391.08549  -6844282.20645  23756792.966    23756803.662
  24359585.902    -5074619.39049  -3930574.96345  24359585.460    24359594.151
  21840944.006   -18474524.57349 -14378816.47147  21840943.180    21840949.017
  20521099.824   -23357013.90549 -17935374.19848  20521098.939    20521105.499
  22477924.782   -18392045.44549 -13865968.03447  22477923.488    22477929.080
  20715701.310   -22693080.00949 -17658626.40348  20715700.629    20715707.184
  22109731.187   -18673783.62049 -14520073.45347  22109730.922    22109737.221
 04  7 23  2 11 30.0000000  0  9G 3G10G31G29G28G 8G19G27G13
  24350501.910    -7248255.08749  -5633937.89245  24350501.129    24350506.914
  23159970.567   -10954688.87049  -8510280.95945  23159969.456    23159977.398
  23734857.961    -9300662.96649  -6934104.09045  23734857.041    23734867.682
  24340701.688    -5173856.19749  -4007902.25545  24340701.254    24340709.940
  21828123.089   -18541898.57349 -14431315.63547  21828122.256    21828128.116
  20515178.124   -23388132.63849 -17959622.53848  20515177.198    20515183.736
  22479669.403   -18382877.70349 -13858824.27247  22479668.030    22479673.506
  20716969.660   -22686414.62249 -17653432.57748  20716968.991    20716975.550
  22127024.015   -18582909.15849 -14449262.21147  22127023.730    22127030.046
 04  7 23  2 12  0.0000000  0  9G 3G10G31G29G28G 8G19G27G13
  24365742.375    -7168164.13249  -5571529.32145  24365741.798    24365747.790
  23164358.306   -10931631.07849  -8492313.85245  23164357.169    23164365.106
  23712932.899    -9415877.57049  -7023881.34645  23712932.110    23712942.681
  24321839.969    -5272974.62749  -4085137.31445  24321839.581    24321848.235
  21815363.819   -18608948.77249 -14483562.49747  21815363.009    21815368.814
  20509306.837   -23418986.36449 -17983664.38048  20509305.933    20509312.471
  22481522.780   -18373138.04949 -13851234.86847  22481521.437    22481526.800
  20718282.900   -22679513.49349 -17648055.05848  20718282.242    20718288.786
  22144379.712   -18491704.23649 -14378193.46847  22144379.435    22144385.734
 04  7 23  2 12 30.0000000  0  9G 3G10G31G29G28G 8G19G27G13
  24381055.188    -7087694.21849  -5508825.45545  24381054.657    24381060.828
  23168848.624   -10908034.71249  -8473927.09545  23168847.400    23168855.357
  23691019.633    -9531030.49349  -7113610.55945  23691018.810    23691029.455
  24303001.622    -5371970.69149  -4162277.01345  24303001.292    24303009.796
  21802666.541   -18675673.15949 -14535555.48447  21802665.709    21802671.514
  20503486.261   -23449573.63449 -18007498.59948  20503485.353    20503491.885
  22483485.362   -18362824.96249 -13843198.62947  22483483.888    22483489.252
  20719641.465   -22672374.38249 -17642492.10548  20719640.791    20719647.305
  22161798.142   -18400169.57549 -14306867.79747  22161797.887    22161804.174
 04  7 23  2 13  0.0000000  0  9G 3G10G31G29G28G 8G19G27G13
  24396439.153    -7006850.25749  -5445830.20245  24396438.657    24396444.940
  23173440.646   -10883903.30749  -8455123.42345  23173439.482    23173447.408
  23669118.286    -9646121.23849  -7203291.30645  23669117.482    23669128.047
  24284186.508    -5470844.72249  -4239321.62045  24284186.078    24284194.619
  21790030.970   -18742073.52049 -14587295.98147  21790030.146    21790035.935
  20497716.131   -23479895.60349 -18031126.08048  20497715.227    20497721.772
  22485556.265   -18351940.88849 -13834717.47947  22485554.924    22485560.365
  20721044.938   -22664999.12249 -17636745.13048  20721044.220    20721050.758
  22179278.598   -18308309.22749 -14235288.33347  22179278.385    22179284.569
 04  7 23  2 13 30.0000000  0  9G 3G10G31G29G28G 8G19G27G13
  24411894.047    -6925633.36049  -5382544.27945  24411893.678    24411899.946
  23178134.464   -10859237.33049  -8435903.21245  23178133.292    23178141.251
  23647229.623    -9761145.61549  -7292920.35745  23647228.825    23647239.287
  24265395.296    -5569593.22549  -4316268.42645  24265394.847    24265403.344
  21777457.406   -18808147.94549 -14638782.51347  21777456.571    21777462.353
  20491997.010   -23509950.14949 -18054545.18948  20491996.096    20492002.594
  22487736.206   -18340484.84349 -13825790.64247  22487734.825    22487740.306
  20722493.695   -22657385.83949 -17630812.69348  20722492.977    20722499.517
  22196820.935   -18216124.04049 -14163455.74947  22196820.711    22196826.908
 04  7 23  2 14  0.0000000  0  9G 3G10G31G29G28G 8G19G27G13
  24427419.606    -6844045.40649  -5318969.22945  24427419.269    24427425.539
  23182929.829   -10834037.74049  -8416267.19945  23182928.673    23182936.573
  23625354.343    -9876100.02749  -7382494.89045  23625353.548    23625363.890
  24246628.700    -5668213.21049  -4393115.08545  24246628.169    24246636.618
  21764946.096   -18873895.19849 -14690014.10047  21764945.282    21764951.073
  20486328.903   -23539736.26249 -18077755.12948  20486327.980    20486334.484
  22490025.077   -18328456.20849 -13816417.62447  22490023.761    22490029.200
  20723987.972   -22649533.16549 -17624693.71448  20723987.272    20723993.840
  22214424.794   -18123615.14449 -14091370.93147  22214424.574    22214430.900
 04  7 23  2 14 30.0000000  0  9G 3G10G31G29G28G 8G19G27G13
  24443015.397    -6762089.61949  -5255107.67045  24443014.913    24443021.242
  23187826.245   -10808306.74949  -8396217.09845  23187825.112    23187833.069
  23603492.797    -9990982.19849  -7472013.14745  23603491.983    23603502.128
  24227886.644    -5766703.11949  -4469860.37945  24227886.143    24227894.638
  21752497.077   -18939315.30749 -14740990.77147  21752496.220    21752502.008
  20480711.863   -23569254.01449 -18100755.95448  20480710.929    20480717.425
  22492422.899   -18315855.89749 -13806599.14547  22492421.481    22492426.892
  20725527.720   -22641441.41749 -17618388.44848  20725527.026    20725533.623
  22232089.810   -18030785.06249 -14019035.82946  22232089.554    22232095.973
 04  7 23  2 15  0.0000000  0  9G 3G10G31G29G28G 8G19G27G13
  24458680.830    -6679768.97149  -5190961.68245  24458680.258    24458686.449
  23192823.493   -10782046.48549  -8375754.57145  23192822.323    23192830.213
  23581645.405   -10105789.96849  -7561473.41645  23581644.558    23581654.612
  24209169.595    -5865061.55949  -4546503.25745  24209169.231    24209177.615
  21740110.229   -19004408.41249 -14791712.64047  21740109.375    21740115.193
  20475145.943   -23598503.07949 -18123547.41748  20475145.012    20475151.494
  22494929.109   -18302684.90449 -13796335.97747  22494927.765    22494933.150
  20727113.038   -22633110.61749 -17611896.91248  20727112.339    20727118.915
  22249815.383   -17937636.50049 -13946452.57146  22249815.114    22249821.552
 04  7 23  2 15 30.0000000  0  9G 3G10G31G29G28G 8G19G27G13
  24474415.036    -6597085.69549  -5126533.14545  24474414.376    24474420.551
  23197921.133   -10755258.17149  -8354880.59145  23197919.974    23197927.944
  23559812.807   -10220519.92249  -7650873.06645  23559811.972    23559821.770
  24190478.021    -5963285.72649  -4623041.49545  24190477.631    24190485.970
  21727785.869   -19069173.50349 -14842178.92047  21727784.998    21727790.777
  20469631.321   -23627482.62149 -18146128.86848  20469630.380    20469636.861
  22497544.054   -18288943.03449 -13785627.98047  22497542.705    22497548.116
  20728744.074   -22624539.57149 -17605218.16748  20728743.370    20728749.905
  22267601.339   -17844170.61549 -13873622.04946  22267601.130    22267607.542
 04  7 23  2 16  0.0000000  0  9G 3G10G31G29G28G 8G19G27G13
  24490217.934    -6514041.07949  -5061823.01745  24490217.326    24490223.303
  23203119.166   -10727942.42549  -8333595.63945  23203118.045    23203126.060
  23537995.813   -10335167.96849  -7740208.90145  23537994.946    23538004.606
  24171812.687    -6061372.32849  -4699472.55145  24171812.282    24171820.568
  21715524.169   -19133608.91349 -14892388.30547  21715523.296    21715529.078
  20464168.373   -23656190.54849 -18168498.67548  20464167.442    20464173.869
  22500267.862   -18274629.32149 -13774474.38547  22500266.460    22500271.853
  20730421.102   -22615726.77649 -17598351.05448  20730420.389    20730426.909
  22285447.490   -17750388.97949 -13800545.48446  22285447.236    22285453.695
 04  7 23  2 16 30.0000000  0  9G 3G10G31G29G28G 8G19G27G13
  24506089.248    -6430638.10549  -4996833.73045  24506088.438    24506094.583
  23208417.228   -10700101.15349  -8311901.18245  23208415.938    23208424.051
  23516194.846   -10449731.49549  -7829478.87345  23516193.958    23516203.513
  24153173.949    -6159319.31449  -4775794.81645  24153173.446    24153181.783
  21703325.277   -19197714.22249 -14942340.47047  21703324.411    21703330.216
  20458757.147   -23684626.68949 -18190656.70048  20458756.218    20458762.609
  22503100.239   -18259744.44849 -13762875.73147  22503098.929    22503104.279
  20732144.238   -22606671.69949 -17591295.14548  20732143.526    20732150.026
  22303353.220   -17656293.65049 -13727224.47846  22303352.950    22303359.524
 04  7 23  2 17  0.0000000  0  9G 3G10G31G29G28G 8G19G27G13
  24522028.040    -6346880.19949  -4931567.79045  24522027.044    24522033.184
  23213814.712   -10671737.04049  -8289799.30645  23213813.472    23213821.646
  23494410.325   -10564208.69849  -7918681.59045  23494409.449    23494418.865
  24134561.900    -6257125.67049  -4852007.51045  24134561.322    24134569.702
  21691189.096   -19261490.18349 -14992036.00947  21691188.233    21691194.009
  20453397.667   -23712790.93549 -18212602.86048  20453396.748    20453403.122
  22506041.082   -18244289.96749 -13750833.23647  22506039.793    22506045.135
  20733913.351   -22597374.97649 -17584050.94048  20733912.611    20733919.118
  22321318.197   -17561887.28549 -13653661.11046  22321317.943    22321324.517
 04  7 23  2 17 30.0000000  0  9G 3G10G31G29G28G 8G19G27G13
  24538033.993    -6262768.30549  -4866026.05545  24538032.894    24538039.222
  23219311.730   -10642850.19549  -8267290.10645  23219310.516    23219318.631
  23472643.154   -10678594.78949  -8007813.33945  23472642.258    23472651.590
  24115977.509    -6354787.29049  -4928107.40945  24115976.927    24115985.171
  21679116.051   -19324934.51749 -15041473.14447  21679115.191    21679120.919
  20448090.434   -23740680.87649 -18234335.27948  20448089.492    20448095.848
  22509090.598   -18228264.25549 -13738345.61947  22509089.312    22509094.727
  20735728.884   -22587834.26349 -17576616.61848  20735728.144    20735734.671
  22339342.350   -17467170.50249 -13579855.87046  22339342.065    22339348.541
 04  7 23  2 18  0.0000000  0  9G 3G10G31G29G28G 8G19G27G13
  24554106.091    -6178306.96349  -4800211.96845  24554105.277    24554111.546
  23224907.281   -10613444.58749  -8244376.69245  23224906.112    23224914.332
  23450893.432   -10792889.18249  -8096873.62745  23450892.536    23450901.858
  24097420.759    -6452304.05249  -5004094.44245  24097420.013    24097428.301
  21667105.773   -19388048.86449 -15090653.14447  21667104.935    21667110.607
  20442835.012   -23768298.29049 -18255855.33648  20442834.060    20442840.427
  22512248.373   -18211670.09949 -13725415.06947  22512247.106    22512252.475
  20737590.529   -22578051.27549 -17568993.51148  20737589.795    20737596.317
  22357424.696   -17372147.38649 -13505811.92746  22357424.397    22357430.817
 04  7 23  2 18 30.0000000  0  9G 3G10G31G29G28G 8G19G27G13
  24570244.315    -6093497.28149  -4734126.54645  24570243.765    24570250.358
  23230601.825   -10583520.40749  -8221059.17045  23230600.620    23230608.647
  23429162.121   -10907087.14349  -8185858.79245  23429161.130    23429170.534
  24078892.201    -6549672.08949  -5079965.57745  24078891.460    24078899.774
  21655158.733   -19450830.96449 -15139574.24247  21655157.876    21655163.556
  20437631.813   -23795641.21049 -18277161.50448  20437630.883    20437637.223
  22515514.638   -18194506.17649 -13712040.53547  22515513.314    22515518.704
  20739498.714   -22568023.66849 -17561179.79348  20739497.994    20739504.517
  22375565.389   -17276817.79849 -13431529.17546  22375565.069    22375571.411
 04  7 23  2 19  0.0000000  0  9G 3G10G31G29G28G 8G19G27G13
  24586448.804    -6008341.39349  -4667771.33045  24586448.276    24586454.859
  23236394.708   -10553078.72949  -8197338.43045  23236393.519    23236401.760
  23407449.815   -11021185.31749  -8274766.23845  23407448.791    23407458.079
  24060392.379    -6646888.58549  -5155718.62945  24060391.678    24060400.074
  21643275.038   -19513280.03049 -15188235.83347  21643274.203    21643279.876
  20432481.112   -23822708.30549 -18298252.74748  20432480.178    20432486.520
  22518889.228   -18176772.59449 -13698222.11447  22518887.878    22518893.256
  20741453.659   -22557750.25049 -17553174.53348  20741452.951    20741459.481
  22393763.876   -17181184.06549 -13357009.41846  22393763.520    22393769.888
 04  7 23  2 19 30.0000000  0  9G 3G10G31G29G28G 8G19G27G13
  24602719.121    -5922841.47549  -4601147.99345  24602718.313    24602724.846
  23242285.773   -10522121.32149  -8173215.81345  23242284.491    23242292.777
  23385757.010   -11135180.63049  -8363593.53045  23385756.028    23385765.171
  24041921.816    -6743951.34149  -5231351.87945  24041921.195    24041929.620
  21631454.799   -19575395.63349 -15236637.58147  21631453.936    21631459.638
  20427383.108   -23849498.27349 -18319128.05048  20427382.178    20427388.535
  22522372.199   -18158469.59849 -13683960.00147  22522370.837    22522376.136
  20743455.472   -22547230.53349 -17544977.35648  20743454.755    20743461.269
  22412019.919   -17085248.15749 -13282254.21246  22412019.601    22412025.968
 04  7 23  2 20  0.0000000  0  8G10G31G29G28G 8G19G27G13
  23248274.314   -10490651.57949  -8148693.98945  23248273.046    23248281.409
  23364084.028   -11249071.75649  -8452339.65245  23364083.103    23364092.209
  24023480.705    -6840859.51849  -5306864.66745  24023480.161    24023488.588
  21619697.889   -19637178.60549 -15284780.13747  21619697.025    21619702.704
  20422337.630   -23876012.44249 -18339788.44048  20422336.691    20422343.048
  22525963.135   -18139599.24249 -13669255.76947  22525961.711    22525967.020
  20745504.011   -22536465.56949 -17536589.07348  20745503.277    20745509.778
  22430332.890   -16989013.44349 -13207266.17346  22430332.534    22430338.838
 04  7 23  2 20 30.0000000  0  8G10G31G29G28G 8G19G27G13
  23254359.957   -10458671.09749  -8123774.18445  23254358.692    23254367.113
  23342431.424   -11362855.48149  -8541002.08445  23342430.442    23342439.512
  24005069.602    -6937610.57449  -5382255.02645  24005069.087    24005077.458
  21608004.386   -19698628.23549 -15332662.94847  21608003.521    21608009.208
  20417344.898   -23902249.40549 -18360232.82748  20417343.947    20417350.328
  22529661.905   -18120161.77849 -13654109.65647  22529660.511    22529665.808
  20747599.375   -22525454.35449 -17528008.90948  20747598.646    20747605.152
  22448702.293   -16892481.71049 -13132046.69046  22448701.937    22448708.255
 04  7 23  2 21  0.0000000  0  8G10G31G29G28G 8G19G27G13
  23260542.916   -10426179.90249  -8098456.42945  23260541.722    23260549.988
  23320800.297   -11476526.84149  -8629576.98045  23320799.307    23320808.289
  23986689.142    -7034200.38249  -5457519.72345  23986688.572    23986696.909
  21596374.808   -19759742.06449 -15380284.10247  21596373.951    21596379.603
  20412405.408   -23928206.68249 -18380459.27548  20412404.466    20412410.835
  22533468.781   -18100155.97849 -13638520.67847  22533467.415    22533472.732
  20749742.073   -22514194.28149 -17519234.83048  20749741.363    20749747.877
  22467128.130   -16795652.88049 -13056595.69946  22467127.841    22467134.161
 04  7 23  2 21 30.0000000  0  8G10G31G29G28G 8G19G27G13
  23266822.444   -10393180.92649  -8072742.99745  23266821.275    23266829.607
  23299190.916   -11590083.82849  -8718062.77645  23299189.937    23299198.749
  23968339.585    -7130627.60249  -5532657.71045  23968338.974    23968347.316
  21584808.992   -19820520.91049 -15427644.23647  21584808.128    21584813.728
  20407518.972   -23953885.09249 -18400468.42448  20407518.009    20407524.375
  22537383.530   -18079583.15749 -13622489.87447  22537382.205    22537387.480
  20751932.026   -22502685.95549 -17510267.30548  20751931.317    20751937.850
  22485610.036   -16698529.89849 -12980915.49346  22485609.776    22485616.102
 04  7 23  2 22  0.0000000  0  8G10G31G29G28G 8G19G27G13
  23273198.423   -10359675.16449  -8046634.66645  23273197.191    23273205.553
  23277603.940   -11703522.71549  -8806456.55245  23277603.011    23277611.863
  23950021.537    -7226889.02049  -5607666.52045  23950020.986    23950029.277
  21573307.144   -19880963.56449 -15474742.40347  21573306.271    21573311.830
  20402685.969   -23979282.50249 -18420258.60748  20402685.025    20402691.428
  22541406.251   -18058443.31649 -13606017.23347  22541404.950    22541410.155
  20754169.556   -22490927.83849 -17501105.13148  20754168.818    20754175.378
  22504147.633   -16601114.44449 -12905007.40446  22504147.393    22504153.711
 04  7 23  2 22 30.0000000  0  8G10G31G29G28G 8G19G27G13
  23279670.028   -10325666.65949  -8020134.59245  23279668.810    23279677.224
  23256039.597   -11816842.68949  -8894757.65945  23256038.700    23256047.578
  23931735.124    -7322984.56149  -5682546.05845  23931734.585    23931742.858
  21561868.926   -19941071.62949 -15521579.84847  21561868.049    21561873.616
  20397906.196   -24004400.30949 -18439830.91048  20397905.254    20397911.650
  22545536.516   -18036739.01949 -13589104.75647  22545535.151    22545540.289
  20756454.248   -22478921.53149 -17491749.56148  20756453.526    20756460.071
  22522740.023   -16503410.72149 -12828874.68946  22522739.801    22522746.228
 04  7 23  2 23  0.0000000  0  8G10G31G29G28G 8G19G27G13
  23286237.439   -10291155.07249  -7993242.49946  23286236.204    23286244.513
  23234499.119   -11930038.23949  -8982961.83446  23234498.212    23234507.133
  23913481.160    -7418909.40349  -5757292.60245  23913480.622    23913488.808
  21550495.016   -20000842.12349 -15568154.24947  21550494.144    21550499.706
  20393180.160   -24029235.66449 -18459183.12348  20393179.226    20393185.636
  22549774.451   -18014468.60149 -13571751.13747  22549773.097    22549778.175
  20758786.815   -22466663.86549 -17482198.13248  20758786.091    20758792.604
  22541387.307   -16405418.10549 -12752516.85946  22541387.132    22541393.708
 04  7 23  2 23 30.0000000  0  8G10G31G29G28G 8G19G27G13
  23292899.921   -10256143.70749  -7965960.97546  23292898.752    23292907.061
  23212982.555   -12043107.91449  -9071067.90946  23212981.657    23212990.648
  23895259.822    -7514662.77549  -5831905.54245  23895259.257    23895267.502
  21539185.007   -20060276.32149 -15614466.60847  21539184.153    21539189.748
  20388507.754   -24053789.38249 -18478315.87848  20388506.830    20388513.191
  22554119.714   -17991634.04949 -13553957.94547  22554118.329    22554123.429
  20761166.988   -22454155.87049 -17472451.64848  20761166.274    20761172.761
  22560088.787   -16307140.55449 -12675937.00346  22560088.665    22560095.288
 04  7 23  2 24  0.0000000  0  8G10G31G29G28G 8G19G27G13
  23299657.196   -10220634.45949  -7938291.48046  23299655.984    23299664.235
  23191490.524   -12156048.67949  -9159073.55846  23191489.656    23191498.625
  23877071.550    -7610242.35949  -5906383.04745  23877070.978    23877079.162
  21527939.158   -20119373.67349 -15660516.49547  21527938.308    21527943.903
  20383889.103   -24078060.51949 -18497228.43748  20383888.168    20383894.505
  22558572.104   -17968235.94949 -13535725.61747  22558570.757    22558575.934
  20763594.881   -22441397.10449 -17462509.75548  20763594.173    20763600.690
  22578844.367   -16208580.03049 -12599136.65146  22578844.231    22578850.769
 04  7 23  2 24 30.0000000  0  8G10G31G29G28G 8G19G27G13
  23306509.085   -10184627.84649  -7910234.43146  23306507.890    23306516.161
  23170024.037   -12268855.90749  -9246975.13446  23170023.157    23170031.997
  23858917.085    -7705644.15649  -5980722.01345  23858916.516    23858924.695
  21516757.743   -20178132.35549 -15706302.47947  21516756.899    21516762.477
  20379324.638   -24102046.80249 -18515919.03248  20379323.718    20379330.076
  22563131.924   -17944273.53349 -13517053.55047  22563130.590    22563135.812
  20766070.970   -22428384.93849 -17452370.40748  20766070.299    20766076.826
  22597653.774   -16109736.88549 -12522116.09546  22597653.540    22597660.038
 04  7 23  2 25  0.0000000  0  8G10G31G29G28G 8G19G27G13
  23313454.915   -10148127.35449  -7881792.54946  23313453.682    23313462.026
  23148583.165   -12381528.21349  -9334771.59246  23148582.280    23148591.022
  23840796.570    -7800867.43649  -6054921.86945  23840795.991    23840804.221
  21505640.555   -20236553.56649 -15751825.50547  21505639.695    21505645.253
  20374814.274   -24125748.88049 -18534388.16748  20374813.350    20374819.728
  22567798.699   -17919749.11849 -13497943.56047  22567797.389    22567802.623
  20768595.053   -22415120.72549 -17442034.65448  20768594.381    20768600.954
  22616516.134   -16010614.72949 -12444878.10146  22616515.932    22616522.427
 04  7 23  2 25 30.0000000  0  8G10G31G29G28G 8G19G27G13
  23320494.338   -10111135.30149  -7852967.62646  23320493.099    23320501.404
  23127168.525   -12494062.68649  -9422460.64746  23127167.605    23127176.179
  23822710.490    -7895909.85249  -6128980.79145  23822709.932    23822718.042
  21494587.626   -20294637.00749 -15797085.33847  21494586.787    21494592.314
  20370358.086   -24149166.22249 -18552635.43048  20370357.165    20370363.561
  22572572.387   -17894663.50149 -13478396.27747  22572570.984    22572576.200
  20771167.265   -22401603.72649 -17431501.92448  20771166.590    20771173.139
  22635431.055   -15911215.80349 -12367424.44646  22635430.857    22635437.377
 04  7 23  2 26  0.0000000  0  8G10G31G29G28G 8G19G27G13
  23327627.182   -10073651.84949  -7823759.80146  23327625.950    23327634.277
  23105780.968   -12606454.56449  -9510038.59846  23105780.012    23105788.490
  23804659.542    -7990767.50449  -6202895.75545  23804659.087    23804667.074
  21483599.427   -20352380.44749 -15842080.24147  21483598.584    21483604.122
  20365956.502   -24172296.61949 -18570659.10348  20365955.572    20365961.992
  22577453.037   -17869015.57349 -13458410.83347  22577451.646    22577456.827
  20773788.085   -22387831.62849 -17420770.41748  20773787.366    20773793.906
  22654398.664   -15811540.48249 -12289755.42746  22654398.466    22654404.989
 04  7 23  2 26 30.0000000  0  8G10G31G29G28G 8G19G27G13
  23334852.897   -10035680.77649  -7794172.01646  23334851.639    23334860.032
  23084420.755   -12718702.44449  -9597504.34346  23084419.819    23084428.234
  23786643.961    -8085439.46149  -6276666.01645  23786643.439    23786651.481
  21472675.622   -20409785.28649 -15886811.30447  21472674.787    21472680.269
  20361609.378   -24195140.64049 -18588459.62148  20361608.462    20361614.883
  22582440.116   -17842807.89549 -13437989.21747  22582438.773    22582443.914
  20776457.157   -22373805.51649 -17409840.97948  20776456.429    20776462.951
  22673418.176   -15711592.81449 -12211874.18046  22673417.969    22673424.432
 04  7 23  2 27  0.0000000  0  8G10G31G29G28G 8G19G27G13
  23342171.293    -9997222.27349  -7764204.40446  23342170.072    23342178.516
  23063088.915   -12830801.64449  -9684854.24146  23063087.987    23063096.329
  23768664.537    -8179921.71449  -6350288.47045  23768663.957    23768671.954
  21461816.668   -20466849.43449 -15931276.89447  21461815.824    21461821.329
  20357317.233   -24217696.05349 -18606035.24848  20357316.323    20357322.737
  22587533.891   -17816039.62549 -13417130.76547  22587532.616    22587537.720
  20779174.982   -22359523.05249 -17398711.78548  20779174.267    20779180.813
  22692489.594   -15611372.96949 -12133780.87746  22692489.336    22692495.690
 04  7 23  2 27 30.0000000  0  8G10G31G29G28G 8G19G27G13
  23349581.533    -9958281.36549  -7733860.89846  23349580.332    23349588.758
  23041785.390   -12942751.83549  -9772088.03046  23041784.425    23041792.793
  23750721.175    -8274214.65349  -6423763.40245  23750720.508    23750728.512
  21451022.134   -20523575.28449 -15975478.87347  21451021.287    21451026.781
  20353079.626   -24239964.71649 -18623387.42948  20353078.707    20353085.118
  22592733.802   -17788714.11049 -13395838.10347  22592732.437    22592737.533
  20781941.155   -22344986.43749 -17387384.55448  20781940.472    20781947.049
  22711611.744   -15510885.78849 -12055479.23346  22711611.478    22711617.798
 04  7 23  2 28  0.0000000  0  8G10G31G29G28G 8G19G27G13
  23357083.685    -9918857.39549  -7703140.96746  23357082.488    23357090.896
  23020511.304   -13054547.32549  -9859201.27646  23020510.353    23020518.735
  23732814.755    -8368313.21449  -6497086.87945  23732814.065    23732822.101
  21440292.545   -20579959.65849 -16019414.76547  21440291.695    21440297.208
  20348897.308   -24261942.99049 -18640513.33748  20348896.382    20348902.783
  22598039.991   -17760829.69849 -13374109.93347  22598038.603    22598043.689
  20784756.403   -22330192.15549 -17375856.54248  20784755.723    20784762.324
  22730784.803   -15410130.72749 -11976968.85946  22730784.546    22730790.956
 04  7 23  2 28 30.0000000  0  8G10G31G29G28G 8G19G27G13
  23364677.308    -9878952.87049  -7672046.58646  23364676.101    23364684.566
  22999267.163   -13166185.36549  -9946191.83946  22999266.279    22999274.601
  23714945.678    -8462215.37249  -6570257.31245  23714945.044    23714953.012
  21429627.855   -20636002.94249 -16063084.87147  21429627.018    21429632.541
  20344770.294   -24283630.62849 -18657412.76948  20344769.349    20344775.737
  22603452.191   -17732387.66749 -13351947.26247  22603450.867    22603455.994
  20787620.792   -22315140.02849 -17364127.61048  20787620.090    20787626.690
  22750008.414   -15309110.19049 -11898251.61946  22750008.177    22750014.636
 04  7 23  2 29  0.0000000  0  8G10G31G29G28G 8G19G27G13
  23372361.734    -9838571.52749  -7640580.66046  23372360.492    23372368.929
  22978053.279   -13277664.57749 -10033058.62346  22978052.405    22978060.689
  23697114.171    -8555920.25649  -6643274.02545  23697113.589    23697121.506
  21419027.843   -20691706.19949 -16106490.02047  21419027.006    21419032.584
  20340698.409   -24305028.36349 -18674086.30248  20340697.458    20340703.846
  22608970.148   -17703390.36949 -13329351.91047  22608968.837    22608973.921
  20790534.002   -22299831.00849 -17352198.49948  20790533.293    20790539.880
  22769281.882   -15207827.72649 -11819330.28546  22769281.654    22769288.132
 04  7 23  2 29 30.0000000  0  9G10G31G29G26G28G 8G19G27G13
  23380136.270    -9797716.18049  -7608745.37146  23380135.089    23380143.531
  22956870.050   -13388982.51149 -10119799.76346  22956869.180    22956877.322
  23679320.591    -8649426.19849  -6716135.74345  23679319.978    23679327.855
  24302379.869    -3822229.36349  -2662718.18345  24302379.483    24302388.071
  21408492.522   -20747069.74849 -16149630.45447  21408491.700    21408497.303
  20336681.733   -24326136.19649 -18690533.92948  20336680.789    20336687.169
  22614593.552   -17673839.15449 -13306324.92547  22614592.214    22614597.235
  20793496.091   -22284265.15049 -17340069.25448  20793495.373    20793501.947
  22788604.465   -15106286.85649 -11740207.59546  22788604.257    22788610.829
 04  7 23  2 30  0.0000000  0  9G10G31G29G26G28G 8G19G27G13
  23388000.686    -9756388.49449  -7576542.03346  23387999.495    23388008.018
  22935718.253   -13500135.53849 -10206412.39846  22935717.373    22935725.422
  23661565.430    -8742730.17449  -6788840.06145  23661564.770    23661572.642
  24282646.022    -3925930.20449  -2743523.90445  24282645.745    24282654.326
  21398022.016   -20802092.63949 -16192505.44347  21398021.178    21398026.814
  20332720.476   -24346952.84149 -18706754.65648  20332719.511    20332725.882
  22620322.311   -17643734.55549 -13282866.73047  22620320.898    22620325.877
  20796507.238   -22268441.43249 -17327739.07548  20796506.538    20796513.106
  22807975.933   -15004488.75149 -11660884.45446  22807975.747    22807982.526
 04  7 23  2 30 30.0000000  0  9G10G31G29G26G28G 8G19G27G13
  23395955.137    -9714587.93449  -7543970.20546  23395953.908    23395962.460
  22914598.823   -13611117.85749 -10292892.02046  22914597.944    22914606.015
  23643849.636    -8835826.84349  -6861382.83845  23643849.054    23643856.923
  24262945.068    -4029458.15549  -2824194.90445  24262944.872    24262953.389
  21387616.923   -20856771.91549 -16235112.68747  21387616.082    21387621.714
  20328815.296   -24367474.54149 -18722745.56048  20328814.335    20328820.702
  22626156.642   -17613074.63849 -13258975.83547  22626155.209    22626160.194
  20799568.147   -22252356.12949 -17315205.07248  20799567.449    20799574.014
  22827396.575   -14902432.75949 -11581360.37646  22827396.412    22827403.280
 04  7 23  2 31  0.0000000  0  9G10G31G29G26G28G 8G19G27G13
  23403999.124    -9672316.95249  -7511031.83246  23403997.879    23404006.487
  22893512.441   -13721926.80449 -10379236.54046  22893511.582    22893519.671
  23626173.607    -8928714.41049  -6933762.68845  23626173.101    23626180.957
  24243277.450    -4132811.06849  -2904729.50544  24243277.318    24243285.753
  21377277.213   -20911107.63849 -16277452.22047  21377276.369    21377282.008
  20324966.193   -24387701.37049 -18738506.70148  20324965.239    20324971.615
  22632096.185   -17581861.06249 -13234653.50647  22632094.867    22632099.855
  20802678.865   -22236009.26149 -17302467.25048  20802678.166    20802684.693
  22846865.841   -14800121.37949 -11501637.30046  22846865.674    22846872.553
 04  7 23  2 31 30.0000000  0  9G10G31G29G26G28G 8G19G27G13
  23412132.117    -9629578.04449  -7477728.82546  23412130.889    23412139.511
  22872459.699   -13832559.70149 -10465443.89946  22872458.826    22872466.905
  23608537.876    -9021390.67349  -7005977.88345  23608537.390    23608545.205
  24223643.456    -4235986.70949  -2985125.97944  24223643.531    24223651.888
  21367002.814   -20965099.92249 -16319524.13847  21367001.952    21367007.558
  20321173.447   -24407632.18649 -18754037.17848  20321172.505    20321178.878
  22638141.025   -17550094.73749 -13209900.47247  22638139.722    22638144.709
  20805839.462   -22219400.29149 -17289525.18748  20805838.748    20805845.285
  22866383.252   -14697557.20949 -11421717.25146  22866383.102    22866389.912
 04  7 23  2 32  0.0000000  0  9G10G31G29G26G28G 8G19G27G13
  23420353.592    -9586374.13449  -7444063.49046  23420352.367    23420360.949
  22851440.945   -13943014.01149 -10551512.10846  22851440.067    22851448.083
  23590942.712    -9113853.85249  -7078027.02045  23590942.131    23590949.991
  24204043.697    -4338983.20049  -3065382.86744  24204043.690    24204052.248
  21356793.669   -21018749.26949 -16361328.82547  21356792.810    21356798.470
  20317436.919   -24427267.52149 -18769337.41348  20317435.982    20317442.372
  22644290.786   -17517777.44449 -13184718.10647  22644289.455    22644294.443
  20809049.857   -22202529.42449 -17276379.04748  20809049.135    20809055.704
  22885948.122   -14594743.12349 -11341602.43246  22885947.998    22885954.782
 04  7 23  2 32 30.0000000  0  9G10G31G29G26G28G 8G19G27G13
  23428663.114    -9542707.75249  -7410037.78646  23428661.875    23428670.407
  22830456.763   -14053286.79249 -10637438.86846  22830455.825    22830463.853
  23573388.488    -9206101.74149  -7149908.40545  23573387.913    23573395.720
  24184478.374    -4441798.13349  -3145498.28144  24184478.634    24184487.122
  21346649.937   -21072055.30749 -16402865.99947  21346649.072    21346654.720
  20313756.908   -24446606.08849 -18784406.40148  20313755.969    20313762.334
  22650545.206   -17484910.40449 -13159107.37847  22650543.855    22650548.796
  20812310.221   -22185396.00049 -17263028.32448  20812309.518    20812316.088
  22905560.105   -14491681.35849 -11261294.63346  22905559.951    22905566.820
 04  7 23  2 33  0.0000000  0  9G10G31G29G26G28G 8G19G27G13
  23437060.166    -9498581.26249  -7375653.56246  23437058.952    23437067.446
  22809507.614   -14163375.19649 -10723221.94846  22809506.657    22809514.667
  23555875.564    -9298132.11849  -7221620.30345  23555875.058    23555882.865
  24164948.337    -4544429.02949  -3225470.28045  24164948.345    24164957.137
  21336571.448   -21125018.13849 -16444135.73747  21336570.580    21336576.265
  20310133.429   -24465647.58549 -18799243.90948  20310132.498    20310138.822
  22656903.971   -17451494.71049 -13133069.12047  22656902.633    22656907.517
  20815620.647   -22167999.69149 -17249472.76148  20815619.946    20815626.456
  22925219.011   -14388374.10949 -11180795.55246  22925218.831    22925225.667
 04  7 23  2 33 30.0000000  0  9G10G31G29G26G28G 8G19G27G13
  23445544.420    -9453996.49749  -7340912.23846  23445543.228    23445551.669
  22788594.164   -14273275.62849 -10808858.56646  22788593.226    22788601.115
  23538404.645    -9389941.84349  -7293160.26345  23538404.212    23538411.976
  24145454.079    -4646872.93949  -3305296.59645  24145453.990    24145462.571
  21326558.367   -21177637.01149 -16485137.45047  21326557.511    21326563.218
  20306566.655   -24484391.01449 -18813849.14848  20306565.717    20306572.002
  22663367.115   -17417531.05249 -13106603.87447  22663365.719    22663370.583
  20818981.382   -22150339.28849 -17235711.40048  20818980.650    20818987.137
  22944924.241   -14284823.21149 -11100106.63146  22944924.010    22944930.789
 04  7 23  2 34  0.0000000  0  9G10G31G29G26G28G 8G19G27G13
  23454115.438    -9408955.79049  -7305815.65146  23454114.204    23454122.655
  22767716.992   -14382985.18649 -10894346.44346  22767716.079    22767723.852
  23520976.165    -9481528.65149  -7364526.52645  23520975.708    23520983.505
  24125995.859    -4749127.25849  -3384975.16945  24125995.511    24126004.197
  21316610.897   -21229911.50049 -16525870.82047  21316610.028    21316615.753
  20303056.766   -24502835.44249 -18828221.39648  20303055.837    20303062.153
  22669934.175   -17383020.59449 -13079712.54947  22669932.772    22669937.618
  20822392.418   -22132414.37549 -17221743.93348  20822391.668    20822398.098
  22964675.384   -14181030.90349 -11019229.58446  22964675.116    22964681.855
 04  7 23  2 34 30.0000000  0  9G10G31G29G26G28G 8G19G27G13
  23462772.495    -9363463.04749  -7270366.83545  23462771.251    23462779.594
  22746876.398   -14492502.36149 -10979684.42946  22746875.466    22746883.299
  23503590.317    -9572891.67349  -7435718.40045  23503589.853    23503597.663
  24106573.707    -4851190.98749  -3464505.23845  24106573.467    24106582.029
  21306728.588   -21281843.24649 -16566337.11347  21306727.719    21306733.476
  20299603.648   -24520981.37849 -18842361.04748  20299602.718    20299609.076
  22676604.759   -17347966.06049 -13052397.28647  22676603.374    22676608.207
  20825853.658   -22114225.77049 -17207570.98548  20825852.902    20825859.272
  22984471.628   -14077001.02649 -10938167.42146  22984471.362    22984478.165
 04  7 23  2 35  0.0000000  0  9G10G31G29G26G28G 8G19G27G13
  23471515.687    -9317517.70349  -7234565.32745  23471514.369    23471522.684
  22726073.611   -14601821.05149 -11064867.76346  22726072.718    22726080.573
  23486248.117    -9664025.53149  -7506731.71245  23486247.590    23486255.426
  24087188.911    -4953058.80749  -3543882.65545  24087188.686    24087197.063
  21296912.117   -21333429.08349 -16606533.87747  21296911.265    21296916.991
  20296208.006   -24538825.30149 -18856265.36448  20296207.088    20296213.459
  22683379.222   -17312365.46449 -13024656.50546  22683377.865    22683382.687
  20829365.666   -22095769.91049 -17193189.78448  20829364.921    20829371.295
  23004313.186   -13972732.58449 -10856919.34646  23004312.896    23004319.846
 04  7 23  2 35 30.0000000  0  9G10G31G29G26G28G 8G19G27G13
  23480344.267    -9271123.38149  -7198413.97545  23480342.977    23480351.216
  22705308.942   -14710939.59349 -11149895.14446  22705308.033    22705315.993
  23468949.719    -9754929.05049  -7577565.53946  23468949.165    23468956.959
  24067841.632    -5054729.28049  -3623106.28745  24067841.400    24067849.675
  21287161.270   -21384670.15349 -16646461.98747  21287160.415    21287166.136
  20292869.758   -24556367.72549 -18869934.74748  20292868.849    20292875.208
  22690257.070   -17276221.37949 -12996492.21946  22690255.753    22690260.575
  20832928.296   -22077047.74049 -17178601.07048  20832927.594    20832934.002
  23024199.529   -13868229.32049 -10775488.31546  23024199.279    23024206.180
 04  7 23  2 36  0.0000000  0  9G10G31G29G26G28G 8G19G27G13
  23489257.532    -9224283.98749  -7161915.81545  23489256.266    23489264.484
  22684582.706   -14819856.31849 -11234765.25446  22684581.801    22684589.779
  23451695.259    -9845601.50049  -7648219.31346  23451694.700    23451702.466
  24048532.048    -5156201.35449  -3702175.35345  24048531.778    24048539.992
  21277475.795   -21435567.76949 -16686122.46547  21277474.941    21277480.614
  20289588.862   -24573609.00749 -18883369.47248  20289587.931    20289594.265
  22697238.007   -17239536.51949 -12967906.54646  22697236.610    22697241.441
  20836541.579   -22058059.84249 -17163805.30148  20836540.863    20836547.273
  23044129.975   -13763494.92249 -10693877.16246  23044129.661    23044136.447
 04  7 23  2 36 30.0000000  0  9G10G31G29G26G28G 8G19G27G13
  23498255.400    -9176999.97149  -7125071.18445  23498254.068    23498262.339
  22663895.871   -14928566.15749 -11319474.18646  22663894.982    22663902.951
  23434485.616    -9936038.19249  -7718689.38246  23434485.044    23434492.781
  24029260.988    -5257470.41449  -3781086.22045  24029260.759    24029269.071
  21267856.164   -21486119.45949 -16725513.38847  21267855.280    21267860.971
  20286365.681   -24590546.81049 -18896567.72148  20286364.752    20286371.075
  22704321.923   -17202309.96249 -12938898.77746  22704320.546    22704325.443
  20840205.951   -22038803.67949 -17148800.50348  20840205.216    20840211.568
  23064104.302   -13658529.71749 -10612086.16446  23064103.983    23064110.676
 04  7 23  2 37  0.0000000  0  9G10G31G29G26G28G 8G19G27G13
  23507337.335    -9129273.91449  -7087882.11846  23507336.060    23507344.384
  22643248.962   -15037066.55949 -11404019.90946  22643248.065    22643255.988
  23417321.200   -10026237.17149  -7788974.22746  23417320.706    23417328.420
  24010029.089    -5358534.31149  -3859837.22645  24010028.793    24010037.133
  21258302.200   -21536325.72249 -16764635.12547  21258301.334    21258307.017
  20283200.376   -24607180.49549 -18909528.99248  20283199.453    20283205.747
  22711508.569   -17164543.49249 -12909470.29846  22711507.201    22711512.103
  20843921.381   -22019278.97149 -17133586.44648  20843920.644    20843926.993
  23084121.876   -13553336.33249 -10530117.36746  23084121.575    23084128.436
 04  7 23  2 37 30.0000000  0  9G10G31G29G26G28G 8G19G27G13
  23516503.156    -9081107.79149  -7050350.12546  23516501.835    23516510.141
  22622642.609   -15145353.79349 -11488399.53246  22622641.711    22622649.614
  23400202.680   -10116195.37749  -7859071.46146  23400202.167    23400209.907
  23990836.865    -5459389.71249  -3938425.76545  23990836.550    23990844.980
  21248814.157   -21586185.84049 -16803487.13247  21248813.293    21248818.972
  20280093.097   -24623509.15149 -18922252.58148  20280092.164    20280098.436
  22718797.742   -17126237.65849 -12879621.52146  22718796.495    22718801.465
  20847688.068   -21999484.67649 -17118162.31748  20847687.336    20847693.719
  23104182.462   -13447916.42349 -10447972.05446  23104182.208    23104189.264
 04  7 23  2 38  0.0000000  0  9G10G31G29G26G28G 8G19G27G13
  23525751.890    -9032505.69449  -7012478.41246  23525750.572    23525758.879
  22602077.106   -15253426.19649 -11572611.73746  22602076.189    22602084.089
  23383130.105   -10205911.89149  -7928980.36046  23383129.637    23383137.330
  23971684.546    -5560035.70549  -4016851.13745  23971684.218    23971692.603
  21239391.758   -21635700.97349 -16842070.31247  21239390.866    21239396.551
  20277043.759   -24639533.34049 -18934738.92848  20277042.825    20277049.107
  22726189.109   -17087395.28349 -12849354.66646  22726187.828    22726192.908
  20851505.919   -21979421.67749 -17102528.80748  20851505.183    20851511.569
  23124285.728   -13342273.63849 -10365653.06546  23124285.459    23124292.468
 04  7 23  2 38 30.0000000  0  9G10G31G29G26G28G 8G19G27G13
  23535083.159    -8983469.48549  -6974268.43546  23535081.902    23535090.252
  22581553.097   -15361280.30149 -11656653.84746  22581552.247    22581560.120
  23366104.054   -10295383.74749  -7998698.60946  23366103.593    23366111.423
  23952572.633    -5660469.04349  -4095110.80045  23952572.320    23952580.820
  21230035.062   -21684870.62749 -16880384.28847  21230034.183    21230039.867
  20274052.669   -24655251.19549 -18946986.57148  20274051.746    20274058.046
  22733682.549   -17048017.14149 -12818670.33146  22733681.200    22733686.281
  20855375.148   -21959088.76549 -17086684.98148  20855374.395    20855380.765
  23144431.193   -13236409.71449 -10283161.76646  23144430.854    23144437.737
 04  7 23  2 39  0.0000000  0  9G10G31G29G26G28G 8G19G27G13
  23544496.779    -8934001.17349  -6935721.74346  23544495.515    23544503.896
  22561071.289   -15468912.70949 -11740523.21446  22561070.406    22561078.328
  23349125.210   -10384608.10649  -8068223.99546  23349124.698    23349132.510
  23933501.797    -5760687.09149  -4173202.71045  23933501.382    23933509.806
  21220744.205   -21733694.29349 -16918428.67147  21220743.325    21220749.008
  20271120.052   -24670662.18049 -18958995.09148  20271119.136    20271125.422
  22741277.696   -17008104.14649 -12787569.22146  22741276.372    22741281.383
  20859295.863   -21938485.19849 -17070630.25848  20859295.121    20859301.494
  23164618.286   -13130326.60049 -10200499.68646  23164617.959    23164624.758
 04  7 23  2 39 30.0000000  0  9G10G31G29G26G28G 8G19G27G13
  23553992.084    -8884103.03049  -6896840.13646  23553990.842    23553999.300
  22540632.277   -15576319.98249 -11824217.14346  22540631.426    22540639.322
  23332193.959   -10473582.12249  -8137554.31046  23332193.409    23332201.162
  23914472.488    -5860686.66449  -4251124.37545  23914472.155    23914480.438
  21211519.303   -21782171.55649 -16956203.12447  21211518.421    21211524.041
  20268246.046   -24685764.99549 -18970763.48148  20268245.126    20268251.391
  22748974.467   -16967657.27649 -12756052.10446  22748973.124    22748978.090
  20863268.314   -21917609.80349 -17054363.72048  20863267.570    20863273.979
  23184846.711   -13024026.05549 -10117668.15446  23184846.305    23184853.228
 04  7 23  2 40  0.0000000  0  9G10G31G29G26G28G 8G19G27G13
  23563568.526    -8833778.62149  -6857626.35645  23563567.361    23563575.796
  22520236.518   -15683500.07949 -11907734.06646  22520235.675    22520243.542
  23315310.575   -10562304.59849  -8206688.61246  23315310.027    23315317.720
  23895485.141    -5960466.09449  -4328874.48845  23895484.810    23895492.996
  21202360.116   -21830303.43849 -16993708.47647  21202359.222    21202364.789
  20265430.635   -24700560.06349 -18982292.07348  20265429.715    20265435.955
  22756772.353   -16926678.80449 -12724120.75846  22756771.016    22756775.928
  20867292.419   -21896463.03249 -17037885.71648  20867291.675    20867298.126
  23205115.781   -12917511.53549 -10034669.90246  23205115.333    23205122.338
 04  7 23  2 40 30.0000000  0  9G10G31G29G26G28G 8G19G27G13
  23573225.814    -8783029.22249  -6818081.43145  23573224.636    23573233.108
  22499884.882   -15790448.67949 -11991070.58946  22499884.064    22499891.807
  23298475.789   -10650771.59449  -8275623.83646  23298475.242    23298482.929
  23876540.423    -6060021.51449  -4406450.05945  23876540.136    23876548.126
  21193266.901   -21878088.53949 -17030943.61047  21193266.007    21193271.531
  20262674.251   -24715044.93749 -18993578.96048  20262673.313    20262679.550
  22764671.407   -16885169.06349 -12691775.43046  22764670.007    22764674.892
  20871368.449   -21875043.06049 -17021194.82548  20871367.753    20871374.228
  23225425.430   -12810783.68949  -9951505.40946  23225425.013    23225431.988
 04  7 23  2 41  0.0000000  0  9G10G31G29G26G28G 8G19G27G13
  23582963.292    -8731858.51249  -6778208.19945  23582962.096    23582970.551
  22479577.676   -15897163.79049 -12074225.15646  22479576.833    22479584.456
  23281689.884   -10738981.76749  -8344358.93846  23281689.342    23281697.000
  23857638.499    -6159351.53249  -4483849.98045  23857638.171    23857646.221
  21184239.453   -21925527.82149 -17067909.27647  21184238.587    21184244.125
  20259976.798   -24729219.82049 -19004624.29048  20259975.861    20259982.117
  22772671.132   -16843130.45049 -12659017.98946  22772669.729    22772674.510
  20875496.404   -21853350.44449 -17004291.48948  20875495.695    20875502.168
  23245775.001   -12703846.43949  -9868177.76146  23245774.604    23245781.529
 04  7 23  2 41 30.0000000  0  9G10G31G29G26G28G 8G19G27G13
  23592780.695    -8680267.97449  -6738007.82945  23592779.439    23592788.024
  22459315.650   -16003641.33349 -12157194.61746  22459314.790    22459322.366
  23264953.448   -10826931.91649  -8412891.41946  23264952.928    23264960.524
  23838780.133    -6258452.39449  -4561071.33045  23838779.886    23838787.872
  21175278.052   -21972620.30049 -17104604.70347  21175277.171    21175282.695
  20257338.584   -24743083.45249 -19015427.08348  20257337.637    20257343.895
  22780771.252   -16800563.40449 -12625848.78046  22780769.921    22780774.671
  20879676.589   -21831383.57049 -16987174.43648  20879675.851    20879682.322
  23266164.231   -12596700.84249  -9784687.75146  23266163.810    23266170.788
 04  7 23  2 42  0.0000000  0  9G10G31G29G26G28G 8G19G27G13
  23602677.459    -8628259.94049  -6697482.14845  23602676.257    23602684.873
  22439099.470   -16109878.15949 -12239976.49246  22439098.566    22439106.121
  23248267.084   -10914619.21849  -8481219.09746  23248266.540    23248274.108
  23819965.995    -6357321.44449  -4638112.03845  23819965.751    23819973.827
  21166382.684   -22019365.62449 -17141029.61447  21166381.799    21166387.369
  20254759.806   -24756634.95049 -19025986.66448  20254758.872    20254765.091
  22788971.773   -16757469.11149 -12592268.73346  22788970.444    22788975.196
  20883909.056   -21809141.65649 -16969843.07548  20883908.321    20883914.827
  23286592.641   -12489349.06649  -9701037.09446  23286592.258    23286599.256
 04  7 23  2 42 30.0000000  0  9G10G31G29G26G28G 8G19G27G13
  23612653.105    -8575837.89749  -6656633.85145  23612651.841    23612660.528
  22418929.378   -16215872.36149 -12322569.31446  22418928.459    22418936.114
  23231630.954   -11002042.26749  -8549340.85046  23231630.437    23231637.945
  23801196.262    -6455957.04049  -4714970.81845  23801196.005    23801203.970
  21157553.206   -22065764.84449 -17177184.82347  21157552.331    21157557.899
  20252240.450   -24769874.43949 -19036303.12048  20252239.496    20252245.709
  22797272.068   -16713850.06649 -12558279.78646  22797270.788    22797275.548
  20888193.741   -21786625.19549 -16952297.77548  20888193.025    20888199.538
  23307059.633   -12381794.30549  -9617228.25046  23307059.269    23307066.370
 04  7 23  2 43  0.0000000  0 10G10G31G29G26G28G 8G19G 7G27G13
  23622706.809    -8523005.56249  -6615465.85645  23622705.581    23622714.252
  22398805.805   -16321621.78749 -12404971.40746  22398804.901    22398812.731
  23215045.390   -11089199.52349  -8617255.49446  23215044.889    23215052.355
  23782471.049    -6554357.72849  -4791646.56145  23782470.758    23782478.917
  21148789.380   -22111818.96649 -17213071.12547  21148788.508    21148794.085
  20249780.309   -24782802.30549 -19046376.75148  20249779.349    20249785.582
  22805671.883   -16669708.71149 -12523883.84946  22805670.543    22805675.249
  24454823.076    -3388604.90349  -2626346.89745  24454821.759    24454833.913
  20892530.686   -21763834.55349 -16934538.83548  20892529.982    20892536.495
  23327564.626   -12274040.03649  -9533263.96146  23327564.303    23327571.424
 04  7 23  2 43 30.0000000  0 10G10G31G29G26G28G 8G19G 7G27G13
  23632837.692    -8469767.33849  -6573981.58445  23632836.448    23632845.178
  22378729.099   -16427124.97549 -12487181.62146  22378728.219    22378736.176
  23198510.567   -11176090.44149  -8684962.61146  23198510.026    23198517.510
  23763790.795    -6652522.44649  -4868138.43545  23763790.651    23763798.666
  21140090.937   -22157529.66549 -17248689.83747  21140090.060    21140095.584
  20247379.476   -24795418.64449 -19056207.63048  20247378.522    20247384.756
  22814170.504   -16625048.48549 -12489083.58646  22814169.079    22814173.692
  24434704.417    -3494327.87649  -2708728.18945  24434703.188    24434715.061
  20896919.551   -21740770.92149 -16916567.16548  20896918.824    20896925.375
  23348106.963   -12166090.05749  -9449147.16246  23348106.632    23348113.747
 04  7 23  2 44  0.0000000  0 10G10G31G29G26G28G 8G19G 7G27G13
  23643046.597    -8416119.81549  -6532178.36945  23643045.380    23643054.004
  22358701.080   -16532372.66649 -12569192.75246  22358700.204    22358708.135
  23182028.071   -11262706.20049  -8752455.32346  23182027.516    23182034.992
  23745157.166    -6750442.28149  -4944439.48845  23745156.980    23745165.179
  21131459.096   -22202890.49049 -17284035.91947  21131458.206    21131463.698
  20245039.159   -24807716.93949 -19065790.69648  20245038.212    20245044.437
  22822768.749   -16579864.61349 -12453875.32646  22822767.277    22822771.762
  24414589.553    -3600030.77149  -2791093.84045  24414588.392    24414600.198
  20901361.671   -21717427.49349 -16898377.48048  20901360.949    20901367.446
  23368687.111   -12057940.67849  -9364874.99246  23368686.805    23368693.991
 04  7 23  2 44 30.0000000  0 10G10G31G29G26G28G 8G19G 7G27G13
  23653332.492    -8362067.02049  -6490059.37545  23653331.240    23653340.010
  22338721.896   -16637363.58749 -12651003.77846  22338721.025    22338728.837
  23165598.041   -11349046.13049  -8819733.09746  23165597.481    23165604.949
  23726570.384    -6848116.30149  -5020548.99945  23726570.057    23726578.268
  21122893.384   -22247903.39549 -17319110.89547  21122892.486    21122897.986
  20242759.113   -24819698.51749 -19075126.95848  20242758.170    20242764.413
  22831465.999   -16534160.00849 -12418261.28246  22831464.506    22831468.946
  24394478.544    -3705712.93949  -2873443.35145  24394477.416    24394489.183
  20905856.854   -21693805.37349 -16879970.62648  20905856.127    20905862.557
  23389304.324   -11949595.94249  -9280450.60446  23389304.071    23389311.319
 04  7 23  2 45  0.0000000  0 10G10G31G29G26G28G 8G19G 7G27G13
  23663695.007    -8307611.81849  -6447626.80345  23663693.745    23663702.641
  22318792.097   -16742094.90649 -12732612.52346  22318791.242    22318798.942
  23149220.949   -11435107.87349  -8886794.10846  23149220.438    23149227.859
  23708030.736    -6945542.23849  -5096465.18145  23708030.412    23708038.464
  21114393.839   -22292568.55449 -17353914.89747  21114392.950    21114398.438
  20240539.534   -24831362.42849 -19084215.68948  20240538.577    20240544.826
  22840261.854   -16487936.52449 -12382242.91246  22840260.447    22840264.880
  24374371.874    -3811372.40349  -2955775.16045  24374370.655    24374382.551
  20910405.083   -21669904.35149 -16861346.44748  20910404.348    20910410.759
  23409958.419   -11841058.06249  -9195875.68146  23409958.193    23409965.455
 04  7 23  2 45 30.0000000  0 10G10G31G29G26G28G 8G19G 7G27G13
  23674133.535    -8252757.39349  -6404883.14845  23674132.240    23674141.090
  22298912.270   -16846564.19249 -12814017.09046  22298911.395    22298918.871
  23132897.152   -11520889.87449  -8953637.13446  23132896.589    23132904.014
  23689538.614    -7042717.94749  -5172186.38245  23689538.305    23689546.363
  21105960.431   -22336886.37749 -17388448.24347  21105959.538    21105965.020
  20238380.430   -24842708.51349 -19093056.76148  20238379.481    20238385.731
  22849156.012   -16441196.48249 -12345822.03946  22849154.660    22849159.148
  24354270.006    -3917007.24449  -3038087.81345  24354268.860    24354280.498
  20915006.405   -21645724.21549 -16842504.76948  20915005.683    20915012.085
  23430648.787   -11732330.07649  -9111152.66046  23430648.529    23430655.763
 04  7 23  2 46  0.0000000  0 10G10G31G29G26G28G 8G19G 7G27G13
  23684647.583    -8197506.13749  -6361830.28846  23684646.231    23684655.174
  22279082.954   -16950767.86149 -12895214.67546  22279082.053    22279089.421
  23116627.141   -11606388.90849  -9020259.66346  23116626.573    23116634.044
  23671094.666    -7139640.41549  -5247710.23445  23671094.333    23671102.427
  21097593.157   -22380856.81949 -17422710.89847  21097592.261    21097597.735
  20236282.015   -24853735.64549 -19101649.29848  20236281.064    20236287.305
  22858148.371   -16393941.07749 -12308999.59346  22858146.965    22858151.450
  24334173.411    -4022614.79749  -3120379.16945  24334172.363    24334183.838
  20919661.018   -21621264.14949 -16823444.96548  20919660.271    20919666.662
  23451374.986   -11623413.96349  -9026283.02346  23451374.681    23451381.894
 04  7 23  2 46 30.0000000  0 10G10G31G29G26G28G 8G19G 7G27G13
  23695236.415    -8141861.67749  -6318471.02746  23695235.080    23695244.016
  22259304.518   -17054704.01449 -12976203.81146  22259303.655    22259311.034
  23100411.221   -11691603.55649  -9086660.58846  23100410.689    23100418.239
  23652699.359    -7236307.82349  -5323035.34945  23652699.008    23652707.007
  21089291.801   -22424480.58749 -17456703.41747  21089290.908    21089296.389
  20234244.235   -24864443.89949 -19109993.36148  20234243.295    20234249.531
  22867238.330   -16346172.70849 -12271777.42346  22867236.911    22867241.463
  24314082.337    -4128193.59849  -3202648.11745  24314081.232    24314092.650
  20924368.780   -21596524.62049 -16804167.39348  20924368.022    20924374.482
  23472136.338   -11514312.71749  -8941269.15346  23472135.988    23472143.216
 04  7 23  2 47  0.0000000  0 10G10G31G29G26G28G 8G19G 7G27G13
  23705899.671    -8085826.56749  -6274807.36546  23705898.318    23705907.229
  22239577.672   -17158369.19449 -13056981.80046  22239576.801    22239584.289
  23084249.973   -11776531.16249  -9152837.84246  23084249.407    23084256.994
  23634353.263    -7332717.35949  -5398159.51545  23634352.858    23634360.751
  21081056.450   -22467757.45349 -17490425.62047  21081055.549    21081061.095
  20232267.342   -24874832.43249 -19118088.28948  20232266.403    20232272.618
  22876425.599   -16297892.89149 -12234156.74346  22876424.201    22876428.805
  24293997.197    -4233741.08549  -3284892.68145  24293995.977    24294007.426
  20929129.860   -21571504.67749 -16784671.32348  20929129.135    20929135.621
  23492932.340   -11405028.92349  -8856113.00445  23492932.071    23492939.240
 04  7 23  2 47 30.0000000  0 10G10G31G29G26G28G 8G19G 7G27G13
  23716636.754    -8029403.13949  -6230841.11446  23716635.435    23716644.304
  22219902.985   -17261760.01349 -13137546.00146  22219902.132    22219909.720
  23068143.884   -11861169.00249  -9218789.30746  23068143.327    23068150.842
  23616056.699    -7428866.23449  -5473080.56445  23616056.195    23616064.152
  21072887.167   -22510687.11749 -17523877.27447  21072886.275    21072891.822
  20230351.537   -24884900.02549 -19125933.13648  20230350.590    20230356.786
  22885709.936   -16249102.67449 -12196138.35846  22885708.624    22885713.268
  24273918.459    -4339254.48249  -3367110.67245  24273917.197    24273928.653
  20933944.554   -21546203.36749 -16764956.01248  20933943.832    20933950.263
  23513762.646   -11295564.23149  -8770815.89745  23513762.421    23513769.683
 04  7 23  2 48  0.0000000  0 10G10G31G29G26G28G 8G19G 7G27G13
  23727447.266    -7972593.76949  -6186574.13146  23727445.921    23727454.813
  22200281.153   -17364873.10049 -13217893.78446  22200280.276    22200287.946
  23052093.547   -11945514.04549  -9284512.60946  23052092.998    23052100.406
  23597810.293    -7524751.12849  -5547795.92345  23597809.757    23597817.696
  21064784.049   -22553269.15449 -17557058.05247  21064783.174    21064788.682
  20228496.994   -24894645.57449 -19133527.03848  20228496.044    20228502.231
  22895091.199   -16199803.55949 -12157723.41746  22895089.949    22895094.551
  24253846.707    -4444731.09149  -3449300.01445  24253845.403    24253857.045
  20938812.970   -21520619.85549 -16745020.80048  20938812.192    20938818.621
  23534627.045   -11185920.52949  -8685379.30545  23534626.827    23534634.254
 04  7 23  2 48 30.0000000  0 10G10G31G29G26G28G 8G19G 7G27G13
  23738330.648    -7915401.76549  -6142008.97746  23738329.336    23738338.228
  22180712.660   -17467706.26149 -13298023.44246  22180711.733    22180719.384
  23036099.197   -12029564.60049  -9350006.43046  23036098.671    23036105.981
  23579614.446    -7620370.31449  -5622304.22745  23579614.023    23579621.764
  21056746.913   -22595504.53449 -17589968.70747  21056746.018    21056751.497
  20226703.819   -24904068.87949 -19140869.84448  20226702.855    20226709.002
  22904568.987   -16149997.87449 -12118913.76146  22904567.667    22904572.217
  24233782.121    -4550169.41149  -3531459.52945  24233780.914    24233792.510
  20943734.961   -21494754.25549 -16724865.76747  20943734.195    20943740.638
  23555525.057   -11076100.84949  -8599805.58845  23555524.899    23555532.354
 04  7 23  2 49  0.0000000  0 10G10G31G29G26G28G 8G19G 7G27G13
  23749286.166    -7857829.72249  -6097147.70146  23749284.902    23749293.934
  22161197.997   -17570256.11349 -13377932.34446  22161197.063    22161204.662
  23020161.348   -12113318.15749  -9415268.83746  23020160.814    23020167.982
  23561469.707    -7715720.78349  -5696603.15445  23561469.394    23561476.936
  21048775.745   -22637393.21449 -17622609.20547  21048774.856    21048780.338
  20224972.159   -24913168.85349 -19147960.70248  20224971.184    20224977.301
  22914142.771   -16099687.01349 -12079710.45346  22914141.480    22914145.981
  24213725.395    -4655566.63649  -3613587.01045  24213724.108    24213735.770
  20948710.831   -21468605.90449 -16704490.41248  20948710.090    20948716.499
  23576456.239   -10966107.40849  -8514096.46945  23576456.049    23576463.493
 04  7 23  2 49 30.0000000  0 10G10G31G29G26G28G 8G19G 7G27G13
  23760313.612    -7799879.59949  -6051991.81346  23760312.438    23760321.545
  22141737.995   -17672519.12649 -13457617.72646  22141737.074    22141744.487
  23004280.546   -12196771.56649  -9480297.35146  23004280.048    23004287.173
  23543376.720    -7810799.32849  -5770690.17645  23543376.440    23543383.973
  21040870.613   -22678934.61549 -17654979.09647  21040869.729    21040875.208
  20223302.250   -24921944.31749 -19154798.69248  20223301.280    20223307.365
  22923812.511   -16048872.16249 -12040114.41846  22923811.206    22923815.698
  24193677.102    -4760920.04549  -3695680.36745  24193675.727    24193687.515
  20953740.769   -21442173.53749 -16683893.75248  20953740.028    20953746.396
  23597420.154   -10855942.16349  -8428253.47145  23597419.866    23597427.139
 04  7 23  2 50  0.0000000  0 10G10G31G29G26G28G 8G19G 7G27G13
  23771412.584    -7741554.81449  -6006543.97446  23771411.324    23771420.347
  22122333.042   -17774492.80649 -13537077.66446  22122332.089    22122339.386
  22988457.291   -12279922.92949  -9545090.51646  22988456.793    22988463.855
  23525335.891    -7905604.09149  -5844563.86945  23525335.560    23525343.146
  21033031.480   -22720129.47449 -17687078.95547  21033030.576    21033036.094
  20221694.104   -24930395.19649 -19161383.76948  20221693.123    20221699.168
  22933577.725   -15997555.72649 -12000127.54446  22933576.386    22933580.890
  24173637.580    -4866227.75449  -3777738.09545  24173636.210    24173648.048
  20958824.677   -21415457.36549 -16663075.93748  20958823.928    20958830.316
  23618416.092   -10745607.99149  -8342278.84045  23618415.881    23618422.987
 04  7 23  2 50 30.0000000  0 10G10G31G29G26G28G 8G19G 7G27G13
  23782582.131    -7682858.87149  -5960806.93246  23782580.852    23782589.903
  22102983.552   -17876174.57349 -13616310.13446  22102982.594    22102989.895
  22972692.016   -12362770.21549  -9609646.73446  22972691.457    22972698.427
  23507347.610    -8000132.66949  -5918222.35345  23507347.213    23507354.872
  21025258.235   -22760978.09249 -17718909.01947  21025257.347    21025262.833
  20220147.821   -24938521.01849 -19167715.56048  20220146.824    20220152.850
  22943437.980   -15945739.77649 -11959751.43246  22943436.629    22943441.138
  24153607.205    -4971487.77049  -3859758.67945  24153605.936    24153617.585
  20963962.655   -21388457.15849 -16642036.79648  20963961.931    20963968.279
  23639443.579   -10635107.56649  -8256174.65945  23639443.394    23639450.401
 04  7 23  2 51  0.0000000  0 10G10G31G29G26G28G 8G19G 7G27G13
  23793821.846    -7623793.85449  -5914782.30746  23793820.611    23793829.677
  22083690.360   -17977560.63349 -13695312.18246  22083689.420    22083696.742
  22956985.052   -12445310.40749  -9673963.66046  22956984.460    22956991.416
  23489412.446    -8094381.70249  -5991663.01445  23489412.089    23489419.747
  21017551.022   -22801479.75049 -17750468.72247  21017550.123    21017555.582
  20218663.650   -24946320.22349 -19173792.84148  20218662.651    20218668.722
  22953393.093   -15893425.25649 -11918986.84246  22953391.738    22953396.213
  24133586.466    -5076697.07149  -3941739.72745  24133585.257    24133596.716
  20969154.915   -21361171.75049 -16620775.42647  20969154.177    20969160.462
  23660502.513   -10524442.54449  -8169942.22345  23660502.285    23660509.325
 04  7 23  2 51 30.0000000  0 10G10G31G29G26G28G 8G19G 7G27G13
  23805131.569    -7564361.43049  -5868471.37946  23805130.321    23805139.329
  22064454.114   -18078647.19149 -13774080.85746  22064453.177    22064460.584
  22941337.153   -12527540.08349  -9738038.61746  22941336.573    22941343.525
  23471531.112    -8188347.79549  -6064883.21045  23471530.808    23471538.514
  21009909.884   -22841633.98949 -17781757.71347  21009908.983    21009914.443
  20217241.920   -24953791.10349 -19179614.28948  20217240.945    20217247.039
  22963442.809   -15840613.19249 -11877834.55446  22963441.480    22963445.953
  24113575.995    -5181852.42849  -4023678.75945  24113574.720    24113585.988
  20974401.729   -21333599.73349 -16599290.72347  20974400.954    20974407.240
  23681592.514   -10413614.28949  -8083582.59145  23681592.294    23681599.406
 04  7 23  2 52  0.0000000  0 10G10G31G29G26G28G 8G19G 7G27G13
  23816510.429    -7504565.59649  -5821877.27646  23816509.204    23816518.188
  22045275.349   -18179432.21449 -13852614.57046  22045274.404    22045281.797
  22925748.588   -12609457.84049  -9801870.53546  22925748.005    22925754.954
  23453704.054    -8282029.01449  -6137881.43245  23453703.779    23453711.422
  21002334.678   -22881441.92849 -17812776.85947  21002333.777    21002339.216
  20215882.602   -24960934.26149 -19185180.37648  20215881.646    20215887.731
  22973586.751   -15787306.30849 -11836296.68746  22973585.427    22973589.865
  24093575.926    -5286952.51149  -4105574.70745  24093574.596    24093585.984
  20979702.969   -21305741.60849 -16577583.07947  20979702.194    20979708.446
  23702712.924   -10302626.44349  -7997098.60845  23702712.703    23702719.877
 04  7 23  2 52 30.0000000  0 10G10G31G29G26G28G 8G19G 7G27G13
  23827957.770    -7444409.42249  -5775002.39545  23827956.519    23827965.554
  22026154.511   -18279912.93449 -13930911.16246  22026153.551    22026160.880
  22910219.834   -12691061.46549  -9865457.66746  22910219.286    22910226.267
  23435931.593    -8375423.26549  -6210656.02245  23435931.333    23435938.938
  20994825.300   -22920903.91349 -17843526.42947  20994824.396    20994829.808
  20214585.722   -24967749.49949 -19190490.93648  20214584.744    20214590.824
  22983824.516   -15733506.79449 -11794374.95546  22983823.150    22983827.457
  24073586.748    -5391995.12849  -4187425.86845  24073585.434    24073596.786
  20985058.674   -21277597.07349 -16555652.26147  20985057.887    20985064.154
  23723863.233   -10191481.01249  -7910491.81745  23723862.942    23723870.313
 04  7 23  2 53  0.0000000  0 10G10G31G29G26G28G 8G19G 7G27G13
  23839473.480    -7383894.39249  -5727847.88445  23839472.217    23839481.225
  22007092.358   -18380085.25449 -14008967.43947  22007091.378    22007098.677
  22894751.579   -12772347.29649  -9928797.18746  22894751.034    22894758.034
  23418214.509    -8468526.63949  -6283203.98545  23418214.228    23418221.873
  20987381.919   -22960018.97749 -17874005.67447  20987381.028    20987386.399
  20213351.784   -24974233.88649 -19195543.69348  20213350.808    20213356.869
  22994155.909   -15679215.25649 -11752069.82146  22994154.488    22994158.743
  24053609.149    -5496976.83949  -4269229.58345  24053607.924    24053619.247
  20990469.193   -21249164.41249 -16533496.92347  20990468.401    20990474.698
  23745043.143   -10080180.03249  -7823763.82445  23745042.879    23745050.288
 04  7 23  2 53 30.0000000  0 10G10G31G29G26G28G 8G19G 7G27G13
  23851056.450    -7323024.84149  -5680417.13145  23851055.209    23851064.170
  21988089.164   -18479947.51949 -14086782.13147  21988088.164    21988095.528
  22879343.983   -12853314.37849  -9991888.32646  22879343.431    22879350.440
  23400552.995    -8561337.82149  -6355524.25945  23400552.704    23400560.244
  20980004.263   -22998788.70449 -17904215.82347  20980003.356    20980008.748
  20212180.544   -24980388.65149 -19200339.59848  20212179.569    20212185.637
  23004580.189   -15624434.86049 -11709383.76746  23004578.792    23004583.033
  24033643.315    -5601896.62449  -4350985.03345  24033642.196    24033653.500
  20995934.337   -21220444.45349 -16511117.71147  20995933.548    20995939.884
  23766252.084    -9968726.67049  -7736917.09245  23766251.726    23766259.071
 04  7 23  2 54  0.0000000  0 10G10G31G29G26G28G 8G19G 7G27G13
  23862706.846    -7261801.43249  -5632710.63745  23862705.692    23862714.654
  21969145.821   -18579494.59949 -14164351.20647  21969144.858    21969152.318
  22863997.887   -12933958.22149 -10054727.59146  22863997.354    22864004.357
  23382948.037    -8653852.13849  -6427613.20945  23382947.762    23382955.197
  20972692.735   -23037210.99549 -17934155.23847  20972691.837    20972697.205
  20211072.591   -24986210.83549 -19204876.34448  20211071.616    20211077.699
  23015097.582   -15569165.39549 -11666316.61446  23015096.191    23015100.421
  24013690.208    -5706750.02449  -4432688.75145  24013689.109    24013700.411
  21001454.704   -21191434.72349 -16488512.70647  21001453.936    21001460.223
  23787489.943    -9857121.31349  -7649951.91245  23787489.643    23787496.780
 04  7 23  2 54 30.0000000  0 10G10G31G29G26G28G 8G19G 7G27G13
  23874423.406    -7200230.40549  -5584733.25745  23874422.162    23874431.311
  21950262.432   -18678726.84549 -14241674.96447  21950261.500    21950268.974
  22848713.207   -13014279.57849 -10117315.57846  22848712.656    22848719.578
  23365399.464    -8746070.17649  -6499471.31545  23365399.071    23365406.567
  20965446.672   -23075289.21449 -17963826.54247  20965445.774    20965451.178
  20210027.506   -24991702.70649 -19209155.70348  20210026.540    20210032.602
  23025707.059   -15513411.85349 -11622872.26346  23025705.676    23025709.906
  23993749.604    -5811537.91349  -4514341.43545  23993748.494    23993759.941
  21007029.728   -21162137.87449 -16465683.97347  21007028.957    21007035.257
  23808755.663    -9745369.69149  -7562872.78345  23808755.332    23808762.404
 04  7 23  2 55  0.0000000  0 10G10G31G29G26G28G 8G19G 7G27G13
  23886206.314    -7138310.84149  -5536484.28245  23886205.093    23886214.303
  21931440.392   -18777637.30949 -14318747.97747  21931439.451    21931446.821
  22833491.127   -13094272.04149 -10179647.27446  22833490.564    22833497.422
  23347908.472    -8837985.31449  -6571093.38845  23347908.070    23347915.532
  20958266.785   -23113019.72749 -17993226.90947  20958265.894    20958271.255
  20209046.154   -24996859.92049 -19213174.28848  20209045.159    20209051.218
  23036408.991   -15457172.53449 -11579049.38346  23036407.637    23036411.818
  23973822.696    -5916253.92749  -4595938.12445  23973821.619    23973832.969
  21012660.142   -21132549.69349 -16442628.21947  21012659.359    21012665.676
  23830049.454    -9633470.31349  -7475678.49345  23830049.170    23830056.261
 04  7 23  2 55 30.0000000  0 10G10G31G29G26G28G 8G19G 7G27G13
  23898054.506    -7076048.39349  -5487968.14045  23898053.302    23898062.550
  21912679.563   -18876226.01449 -14395570.26847  21912678.629    21912685.885
  22818331.477   -13173936.34049 -10241723.26446  22818330.888    22818337.740
  23330475.044    -8929597.89349  -6642479.70845  23330474.679    23330482.172
  20951152.458   -23150405.64549 -18022358.74947  20951151.560    20951156.907
  20208127.970   -25001684.68249 -19216933.81648  20208126.985    20208133.070
  23047202.538   -15400452.07649 -11534851.58746  23047201.155    23047205.311
  23953909.267    -6020898.87549  -4677479.43845  23953908.155    23953919.460
  21018345.533   -21102672.45949 -16419347.23247  21018344.783    21018351.080
  23851370.440    -9521428.00949  -7388372.83345  23851370.130    23851377.286
 04  7 23  2 56  0.0000000  0 10G10G31G29G26G28G 8G19G 7G27G13
  23909967.780    -7013444.06349  -5439185.59745  23909966.534    23909975.855
  21893980.928   -18974487.82749 -14472137.83947  21893979.943    21893987.089
  22803235.114   -13253267.70149 -10303539.83046  22803234.529    22803241.367
  23313100.195    -9020903.26849  -6713626.64645  23313099.767    23313107.199
  20944104.024   -23187445.13949 -18051220.64747  20944103.129    20944108.466
  20207273.599   -25006174.25349 -19220432.15548  20207272.636    20207278.721
  23058087.534   -15343250.53849 -11490278.92746  23058086.169    23058090.333
  23934010.185    -6125468.24349  -4758961.86445  23934009.050    23934020.268
  21024086.441   -21072503.78649 -16395839.14847  21024085.708    21024091.973
  23872718.375    -9409243.93249  -7300956.70145  23872718.071    23872725.386
 04  7 23  2 56 30.0000000  0 10G10G31G29G26G28G 8G19G 7G27G13
  23921945.487    -6950501.06249  -5390139.14845  23921944.272    23921953.486
  21875344.957   -19072420.21049 -14548448.72147  21875343.975    21875351.089
  22788202.491   -13332264.25049 -10365095.51146  22788201.937    22788208.742
  23295784.246    -9111899.02649  -6784532.33645  23295783.825    23295791.075
  20937121.412   -23224138.83249 -18079813.08547  20937120.523    20937125.830
  20206483.164   -25010327.94149 -19223668.77648  20206482.203    20206488.261
  23069063.691   -15285570.17749 -11445333.16946  23069062.291    23069066.492
  23914125.899    -6229959.96649  -4840383.79245  23914124.866    23914135.802
  21029882.883   -21042043.26049 -16372103.64647  21029882.126    21029888.413
  23894092.895    -9296920.33849  -7213431.85845  23894092.554    23894099.986
 04  7 23  2 57  0.0000000  0 10G10G31G29G26G28G 8G19G 7G27G13
  23933987.187    -6887222.27349  -5340831.03145  23933985.926    23933995.137
  21856772.120   -19170020.32649 -14624500.69547  21856771.172    21856778.314
  22773234.034   -13410923.59449 -10426388.42246  22773233.459    22773240.217
  23278527.551    -9202582.70749  -6855194.86245  23278527.151    23278534.323
  20930204.548   -23260487.04249 -18108136.31647  20930203.662    20930208.941
  20205756.740   -25014145.11049 -19226643.17848  20205755.786    20205761.837
  23080130.677   -15227412.63249 -11400015.57946  23080129.269    23080133.473
  23894256.962    -6334371.84649  -4921743.49245  23894255.961    23894266.483
  21035734.863   -21011290.67849 -16348140.56247  21035734.114    21035740.422
  23915493.529    -9184459.80349  -7125800.31045  23915493.099    23915500.597
 04  7 23  2 57 30.0000000  0 10G10G31G29G26G28G 8G19G 7G27G13
  23946091.718    -6823612.82549  -5291265.26345  23946090.427    23946099.711
  21838262.710   -19267287.37449 -14700293.13447  21838261.766    21838269.035
  22758329.780   -13489245.59049 -10487418.48346  22758329.247    22758335.990
  23261330.378    -9292953.73349  -6925613.73745  23261330.046    23261337.191
  20923352.981   -23296492.07849 -18136192.13347  20923352.095    20923357.352
  20205094.056   -25017627.49049 -19229356.70248  20205093.085    20205099.129
  23091287.633   -15168782.32949 -11354329.60546  23091286.245    23091290.464
  23874403.343    -6438703.45849  -5003040.63245  23874402.325    23874412.454
  21041642.175   -20980247.65049 -16323951.16447  21041641.435    21041647.715
  23936919.283    -9071866.37849  -7038065.21945  23936918.826    23936926.543
 04  7 23  2 58  0.0000000  0 10G10G31G29G26G28G 8G19G 7G27G13
  23958259.196    -6759672.63849  -5241441.77045  23958257.963    23958267.098
  21819817.911   -19364215.38649 -14775821.38447  21819816.965    21819824.282
  22743490.829   -13567224.54649 -10548181.22546  22743490.339    22743497.007
  23244193.783    -9383006.66049  -6995784.76145  23244193.430    23244200.561
  20916567.252   -23332151.16449 -18163978.37247  20916566.353    20916571.623
  20204495.838   -25020771.13849 -19231806.28148  20204494.879    20204500.880
  23102534.767   -15109678.38149 -11308274.54046  23102533.389    23102537.576
  23854565.914    -6542949.70649  -5084271.25445  23854564.789    23854574.860
  21047605.291   -20948910.95149 -16299532.92447  21047604.537    21047610.835
  23958370.353    -8959140.35349  -6950226.79845  23958369.895    23958377.609
 04  7 23  2 58 30.0000000  0 10G10G31G29G26G28G 8G19G 7G27G13
  23970488.882    -6695405.77849  -5191363.74845  23970487.527    23970496.778
  21801437.973   -19460802.57749 -14851084.06147  21801436.999    21801444.304
  22728717.363   -13644859.62449 -10608676.00846  22728716.787    22728723.442
  23227118.107    -9472739.82149  -7065706.61045  23227117.741    23227124.831
  20909847.085   -23367465.59049 -18191496.05247  20909846.195    20909851.431
  20203961.967   -25023576.77949 -19233992.48248  20203960.979    20203966.950
  23113871.439   -15050103.71749 -11261852.69246  23113870.041    23113874.200
  23834744.946    -6647109.17449  -5165434.25345  23834743.700    23834753.769
  21053624.190   -20917280.94849 -16274886.13847  21053623.450    21053629.809
  23979846.084    -8846284.63949  -6862287.32645  23979845.668    23979853.323
 04  7 23  2 59  0.0000000  0 10G10G31G29G26G28G 8G19G 7G27G13
  23982780.181    -6630814.80449  -5141033.16345  23982778.857    23982788.035
  21783123.449   -19557045.63849 -14926078.60047  21783122.478    21783129.761
  22714009.791   -13722147.81249 -10668900.49146  22714009.249    22714015.901
  23210103.783    -9562150.21449  -7135376.96345  23210103.480    23210110.432
  20903192.511   -23402435.51649 -18218745.28647  20903191.612    20903196.843
  20203492.725   -25026042.67649 -19235913.94448  20203491.724    20203497.708
  23125297.251   -14990059.95349 -11215065.31146  23125295.941    23125300.094
  23814940.939    -6751179.19249  -5246527.52645  23814939.741    23814949.813
  21059699.118   -20885356.82149 -16250010.16547  21059698.384    21059704.756
  24001345.982    -8733301.53449  -6774248.58845  24001345.495    24001353.360
 04  7 23  2 59 30.0000000  0 10G10G31G29G26G28G 8G19G 7G27G13
  23995132.658    -6565902.51949  -5090452.19745  23995131.346    23995140.376
  21764875.027   -19652941.29049 -15000802.43147  21764874.051    21764881.275
  22699368.804   -13799086.49149 -10728852.63946  22699368.285    22699374.868
  23193151.411    -9651235.02849  -7204793.60545  23193151.085    23193158.096
  20896603.511   -23437060.66849 -18245725.86547  20896602.603    20896607.841
  20203088.221   -25028168.23149 -19237570.20748  20203087.244    20203093.229
  23136812.102   -14929548.95749 -11167913.87446  23136810.760    23136814.912
  23795154.278    -6855157.18749  -5327549.08845  23795153.099    23795163.285
  21065830.149   -20853138.04849 -16224904.59547  21065829.400    21065835.742
  24022869.804    -8620192.91949  -6686112.04245  24022869.304    24022877.431
 04  7 23  3  0  0.0000000  0 10G10G31G29G26G28G 8G19G 7G27G13
  24007545.553    -6500672.22649  -5039623.45645  24007544.322    24007553.270
  21746693.148   -19748487.21249 -15075253.74647  21746692.188    21746699.329
  22684794.644   -13875673.84149 -10788531.01446  22684794.124    22684800.669
  23176261.402    -9739992.04649  -7273954.82645  23176261.039    23176268.043
  20890079.964   -23471341.97149 -18272438.50447  20890079.049    20890084.278
  20202748.525   -25029953.31149 -19238961.16548  20202747.539    20202753.495
  23148415.358   -14868573.22249 -11120400.28646  23148414.007    23148418.161
  23775385.542    -6959041.12049  -5408497.36545  23775384.385    23775394.761
  21072017.281   -20820624.55849 -16199569.37547  21072016.517    21072022.814
  24044417.020    -8506961.80249  -6597880.08445  24044416.427    24044424.674
 04  7 23  3  0 30.0000000  0 10G10G31G29G26G28G 8G19G 7G27G13
  24020018.524    -6435126.59749  -4988549.00245  24020017.288    24020026.215
  21728578.506   -19843680.12649 -15149429.98047  21728577.579    21728584.634
  22670287.943   -13951906.84749 -10847933.27446  22670287.407    22670293.930
  23159434.380    -9828418.29849  -7342858.31145  23159434.047    23159441.023
  20883621.879   -23505279.27049 -18298883.08748  20883620.970    20883626.167
  20202473.818   -25031396.88849 -19240086.01948  20202472.819    20202478.781
  23160106.718   -14807134.55649 -11072525.97446  23160105.373    23160109.554
  23755635.229    -7062828.49149  -5489370.37445  23755634.107    23755644.489
  21078260.563   -20787815.72849 -16174004.02047  21078259.794    21078266.041
  24065987.174    -8393610.15449  -6509554.14745  24065986.654    24065994.664
 04  7 23  3  1  0.0000000  0 10G10G31G29G26G28G 8G19G 7G27G13
  24032550.871    -6369269.29049  -4937231.68445  24032549.612    24032558.526
  21710531.505   -19938517.69349 -15223329.33247  21710530.543    21710537.556
  22655849.005   -14027783.87349 -10907058.15346  22655848.433    22655854.918
  23142670.683    -9916511.73449  -7411502.45245  23142670.373    23142677.376
  20877229.095   -23538873.44449 -18325060.30648  20877228.166    20877233.356
  20202264.173   -25032498.30849 -19240944.25548  20202263.204    20202269.166
  23171885.709   -14745235.66149 -11024293.04246  23171884.298    23171888.494
  23735903.631    -7166517.41649  -5570166.66345  23735902.457    23735912.788
  21084560.127   -20754711.50549 -16148208.48847  21084559.323    21084565.540
  24087579.792    -8280141.03149  -6421136.70445  24087579.355    24087586.981
 04  7 23  3  1 30.0000000  0 10G10G31G29G26G28G 8G19G 7G27G13
  24045141.864    -6303102.89449  -4885673.53545  24045140.566    24045149.639
  21692552.752   -20032996.65749 -15296949.25547  21692551.779    21692558.798
  22641478.229   -14103302.31349 -10965903.61246  22641477.651    22641484.162
  23125970.940   -10004269.39849  -7479884.95145  23125970.544    23125977.536
  20870901.544   -23572124.52449 -18350970.18048  20870900.626    20870905.825
  20202119.784   -25033257.17849 -19241535.57548  20202118.814    20202124.767
  23183751.915   -14682878.03149 -10975702.64546  23183750.544    23183754.750
  23716191.193    -7270105.29949  -5650884.22245  23716190.034    23716200.287
  21090916.007   -20721311.10549 -16122182.17347  21090915.203    21090921.392
  24109194.374    -8166556.57149  -6332629.36645  24109193.932    24109201.341
 04  7 23  3  2  0.0000000  0 10G10G31G29G26G28G 8G19G 7G27G13
  24057791.324    -6236629.76849  -4833876.35045  24057789.989    24057799.097
  21674642.836   -20127113.47349 -15370286.98347  21674641.878    21674648.933
  22627176.301   -14178459.07649 -11024467.24446  22627175.722    22627182.260
  23109335.755   -10091688.06449  -7548003.28645  23109335.270    23109342.214
  20864639.384   -23605032.09249 -18376612.37748  20864638.461    20864643.658
  20202040.931   -25033671.71349 -19241858.57948  20202039.939    20202045.879
  23195705.190   -14620063.18149 -10926755.96346  23195703.848    23195708.013
  23696498.577    -7373589.18449  -5731520.73445  23696497.427    23696507.660
  21097328.358   -20687613.64149 -16095924.37447  21097327.564    21097333.775
  24130830.462    -8052858.81649  -6244033.74445  24130829.924    24130837.162
 04  7 23  3  2 30.0000000  0 10G10G31G29G26G28G 8G19G 7G27G13
  24070498.578    -6169853.14449  -4781842.68845  24070497.221    24070506.372
  21656802.355   -20220865.53749 -15443340.49547  21656801.418    21656808.407
  22612943.597   -14253251.88649 -11082747.27646  22612943.055    22612949.607
  23092765.366   -10178765.35349  -7615855.61845  23092764.971    23092771.843
  20858442.540   -23637596.62949 -18401987.28548  20858441.622    20858446.776
  20202027.647   -25033741.55849 -19241912.99248  20202026.658    20202032.589
  23207744.994   -14556793.63049 -10877454.98146  23207743.614    23207747.787
  23676826.143    -7476966.81949  -5812074.42845  23676825.046    23676835.194
  21103797.300   -20653618.90549 -16069434.94047  21103796.506    21103802.750
  24152487.589    -7939049.95949  -6155351.54345  24152486.981    24152494.245
 04  7 23  3  3  0.0000000  0 10G10G31G29G26G28G 8G19G 7G27G13
  24083262.920    -6102775.85849  -4729574.74845  24083261.565    24083270.887
  21639031.931   -20314249.58249 -15516107.22947  21639030.991    21639037.952
  22598780.679   -14327678.25549 -11140741.77446  22598780.110    22598786.706
  23076260.584   -10265498.13249  -7683439.48646  23076260.247    23076267.053
  20852310.962   -23669818.08449 -18427094.85248  20852310.036    20852315.167
  20202080.267   -25033465.19949 -19241697.63148  20202079.252    20202085.175
  23219870.891   -14493071.08949 -10827801.01546  23219869.559    23219873.806
  23657174.378    -7580235.51849  -5892543.26545  23657173.271    23657183.629
  21110322.945   -20619325.99549 -16042713.15847  21110322.168    21110328.438
  24174165.377    -7825132.05549  -6066584.35345  24174164.944    24174172.118
 04  7 23  3  3 30.0000000  0 10G10G31G29G26G28G 8G19G 7G27G13
  24096083.852    -6035401.22249  -4677075.09345  24096082.519    24096091.934
  21621332.084   -20407263.22749 -15588585.35447  21621331.124    21621338.020
  22584687.917   -14401736.15749 -11198449.15446  22584687.316    22584693.882
  23059821.819   -10351884.44149  -7750753.39146  23059821.448    23059828.251
  20846244.481   -23701697.40949 -18451935.83348  20846243.556    20846248.653
  20202198.591   -25032843.24449 -19241212.98248  20202197.570    20202203.504
  23232082.664   -14428898.10949 -10777796.08346  23232081.265    23232085.493
  23637543.863    -7683393.32749  -5972925.71545  23637542.730    23637553.245
  21116905.398   -20584734.97449 -16015759.09047  21116904.631    21116910.888
  24195863.357    -7711108.09049  -5977734.52645  24195862.943    24195870.335
 04  7 23  3  4  0.0000000  0 10G10G31G29G26G28G 8G19G 7G27G13
  24108960.942    -5967732.00249  -4624345.88945  24108959.605    24108969.035
  21603703.213   -20499903.42349 -15660772.47347  21603702.248    21603709.197
  22570665.663   -14475423.03149 -11255867.42346  22570665.064    22570671.618
  23043449.451   -10437921.47349  -7817795.10946  23043449.062    23043455.935
  20840243.104   -23733234.61649 -18476510.22448  20840242.181    20840247.256
  20202382.920   -25031874.18849 -19240457.85248  20202381.942    20202387.897
  23244379.711   -14364276.68049 -10727441.68446  23244378.282    23244382.569
  23617935.027    -7786437.78149  -6053219.85045  23617933.905    23617944.393
  21123544.674   -20549845.44249 -15988572.41047  21123543.885    21123550.113
  24217581.126    -7596980.32349  -5888803.81645  24217580.778    24217588.148
 04  7 23  3  4 30.0000000  0 10G10G31G29G26G28G 8G19G 7G27G13
  24121893.383    -5899771.10449  -4571389.40945  24121892.102    24121901.543
  21586145.927   -20592166.97149 -15732666.10747  21586144.973    21586152.025
  22556714.627   -14548736.25749 -11312994.53546  22556713.992    22556720.544
  23027144.083   -10523606.14949  -7884562.27046  23027143.720    23027150.608
  20834306.809   -23764429.90949 -18500818.18848  20834305.890    20834310.979
  20202633.509   -25030557.17849 -19239431.59248  20202632.529    20202638.493
  23256761.691   -14299208.55249 -10676739.21246  23256760.300    23256764.629
  23598348.349    -7889366.27849  -6133423.64645  23598347.244    23598357.606
  21130240.949   -20514656.35349 -15961152.31547  21130240.139    21130246.379
  24239318.340    -7482750.77249  -5799793.80245  24239318.089    24239325.286
 04  7 23  3  5  0.0000000  0 10G10G31G29G26G28G 8G19G 7G27G13
  24134880.798    -5831522.24349  -4518208.54345  24134879.590    24134888.931
  21568660.694   -20684051.71849 -15804264.57547  21568659.758    21568666.909
  22542834.894   -14621674.26549 -11369829.26946  22542834.241    22542840.795
  23010906.137   -10608936.72249  -7951053.51946  23010905.771    23010912.644
  20828435.385   -23795284.24449 -18524860.47548  20828434.455    20828439.535
  20202950.283   -25028892.46149 -19238134.39548  20202949.299    20202955.295
  23269228.133   -14233696.73849 -10625691.01946  23269226.750    23269231.073
  23578784.074    -7992177.12849  -6213535.76546  23578782.998    23578793.118
  21136994.008   -20479168.39249 -15933499.33547  21136993.214    21136999.472
  24261074.373    -7368422.62349  -5710706.96045  24261074.118    24261081.165
 04  7 23  3  5 30.0000000  0 10G10G31G29G26G28G 8G19G 7G27G13
  24147922.669    -5762986.93849  -4464804.48145  24147921.352    24147930.814
  21551248.403   -20775553.51849 -15875564.63047  21551247.492    21551254.631
  22529027.280   -14694233.33149 -11426368.72446  22529026.640    22529033.226
  22994736.360   -10693909.20949  -8017265.73546  22994735.986    22994742.829
  20822629.029   -23825796.54249 -18548636.23848  20822628.115    20822633.199
  20203333.675   -25026877.58749 -19236564.34348  20203332.694    20203338.725
  23281778.926   -14167741.92749 -10574297.63246  23281777.590    23281781.799
  23559242.818    -8094866.55049  -6293553.28646  23559241.717    23559251.635
  21143804.357   -20443379.52849 -15905611.88447  21143803.579    21143809.814
  24282848.956    -7253996.64249  -5621543.89745  24282848.643    24282855.711
 04  7 23  3  6  0.0000000  0 10G10G31G29G26G28G 8G19G 7G27G13
  24161018.133    -5694170.40349  -4411181.29045  24161016.826    24161026.246
  21533909.251   -20866671.46349 -15946565.56547  21533908.315    21533915.366
  22515291.850   -14766413.09149 -11482612.60746  22515291.228    22515297.797
  22978634.773   -10778523.00549  -8083198.46646  22978634.432    22978641.268
  20816887.326   -23855969.15649 -18572147.31748  20816886.420    20816891.469
  20203783.440   -25024514.15149 -19234722.68848  20203782.442    20203788.454
  23294413.189   -14101348.37249 -10522562.35446  23294411.824    23294416.024
  23539724.659    -8197434.17349  -6373475.89046  23539723.569    23539733.359
  21150671.711   -20407291.54349 -15877491.35947  21150670.925    21150677.084
  24304641.213    -7139477.39349  -5532308.13745  24304640.807    24304647.950
 04  7 23  3  6 30.0000000  0 10G10G31G29G26G28G 8G19G 7G27G13
  24174166.895    -5625072.93649  -4357339.20245  24174165.554    24174175.128
  21516644.148   -20957400.35149 -16017263.34347  21516643.168    21516650.124
  22501629.531   -14838208.85449 -11538557.28446  22501628.907    22501635.396
  22962602.381   -10862772.93849  -8148847.65546  22962602.042    22962608.966
  20811210.632   -23885800.13049 -18595392.18448  20811209.739    20811214.790
  20204300.102   -25021799.00749 -19232606.97248  20204299.095    20204305.104
  23307130.979   -14034515.71349 -10470484.91746  23307129.580    23307133.783
  23520230.484    -8299875.34249  -6453299.96745  23520229.394    23520239.087
  21157596.463   -20370901.50449 -15849135.46747  21157595.662    21157601.875
  24326451.111    -7024865.31549  -5443000.05045  24326450.719    24326458.001
 04  7 23  3  7  0.0000000  0 10G10G31G29G26G28G 8G19G 7G27G13
  24187368.384    -5555698.98749  -4303281.66245  24187367.024    24187376.749
  21499453.402   -21047738.45049 -16087656.61347  21499452.389    21499459.308
  22488040.512   -14909619.28149 -11594201.68746  22488039.894    22488046.340
  22946639.511   -10946657.74049  -8214212.33046  22946639.192    22946646.131
  20805598.675   -23915290.84949 -18618371.92348  20805597.775    20805602.805
  20204883.591   -25018732.53849 -19230217.49348  20204882.611    20204888.629
  23319931.570   -13967247.51849 -10418068.08646  23319930.228    23319934.403
  23500760.678    -8402188.78949  -6533024.53645  23500759.623    23500769.172
  21164578.462   -20334210.14149 -15820544.77247  21164577.708    21164583.978
  24348278.079    -6910163.51449  -5353622.02645  24348277.729    24348285.157
 04  7 23  3  7 30.0000000  0 10G10G31G29G26G28G 8G19G 7G27G13
  24200621.889    -5486051.59349  -4249011.05145  24200620.480    24200630.248
  21482337.449   -21137682.96849 -16157743.19547  21482336.448    21482343.414
  22474525.194   -14980642.20549 -11649544.14846  22474524.580    22474531.007
  22930746.720   -11030174.69849  -8279290.37646  22930746.365    22930753.334
  20800051.393   -23944441.74449 -18641086.86048  20800050.485    20800055.537
  20205534.138   -25015313.85549 -19227553.56248  20205533.180    20205539.177
  23332814.695   -13899546.01749 -10365313.62046  23332813.350    23332817.548
  23481315.657    -8504372.06849  -6612647.68645  23481314.644    23481324.126
  21171617.955   -20297217.26649 -15791719.13347  21171617.214    21171623.441
  24370121.722    -6795374.53749  -5264176.08445  24370121.366    24370128.695
 04  7 23  3  8  0.0000000  0 10G10G31G29G26G28G 8G19G 7G27G13
  24213926.914    -5416133.42449  -4194529.45045  24213925.618    24213935.220
  21465297.068   -21227230.61149 -16227520.51347  21465296.075    21465303.090
  22461084.241   -15051274.64649 -11704582.32046  22461083.606    22461090.003
  22914924.468   -11113320.80949  -8344079.45146  22914924.088    22914931.022
  20794568.822   -23973252.60549 -18663536.84748  20794567.920    20794572.939
  20206251.858   -25011542.16749 -19224614.56648  20206250.884    20206256.870
  23345780.031   -13831412.74749 -10312222.71546  23345778.663    23345782.880
  23461896.038    -8606422.42549  -6692167.27745  23461895.059    23461904.402
  21178715.111   -20259921.74149 -15762657.66347  21178714.361    21178720.463
  24391981.671    -6680499.81849  -5174663.32745  24391981.353    24391988.548
 04  7 23  3  8 30.0000000  0 10G10G31G29G26G28G 8G19G 7G27G13
  24227282.621    -5345948.80849  -4139840.22445  24227281.312    24227290.974
  21448332.535   -21316379.92449 -16296987.44947  21448331.559    21448338.546
  22447717.765   -15121515.50249 -11759315.37746  22447717.189    22447723.535
  22899173.060   -11196094.74549  -8408578.52546  22899172.693    22899179.533
  20789150.633   -24001725.20149 -18685723.24548  20789149.711    20789154.727
  20207036.626   -25007418.00549 -19221400.91948  20207035.660    20207041.622
  23358826.788   -13762851.30949 -10258798.16246  23358825.452    23358829.659
  23442501.916    -8708338.81749  -6771582.48545  23442500.874    23442510.204
  21185869.588   -20222324.75249 -15733361.28747  21185868.828    21185874.925
  24413857.174    -6565543.45849  -5085086.94545  24413856.879    24413864.153
 04  7 23  3  9  0.0000000  0 10G10G31G29G26G28G 8G19G 7G27G13
  24240688.955    -5275498.17949  -4084943.71945  24240687.651    24240697.366
  21431444.779   -21405125.59249 -16366139.84947  21431443.780    21431450.727
  22434426.644   -15191360.45049 -11813739.93246  22434426.030    22434432.368
  22883493.389   -11278491.45349  -8472783.65846  22883493.047    22883499.803
  20783797.159   -24029857.68249 -18707644.62548  20783796.237    20783801.251
  20207889.140   -25002938.00249 -19217909.98548  20207888.160    20207894.141
  23371955.037   -13693861.75749 -10205040.01846  23371953.693    23371957.879
  23423134.169    -8810116.30849  -6850889.44845  23423133.072    23423142.487
  21193081.905   -20184423.33949 -15703827.70247  21193081.165    21193087.341
  24435748.193    -6450505.45349  -4995446.95545  24435747.914    24435755.136
 04  7 23  3  9 30.0000000  0 10G10G31G29G26G28G 8G19G 7G27G13
  24254144.894    -5204787.05449  -4029844.21645  24254143.535    24254153.303
  21414633.923   -21493467.12349 -16434977.33747  21414632.898    21414639.807
  22421210.920   -15260809.21149 -11867855.78046  22421210.329    22421216.623
  22867885.555   -11360510.78049  -8536694.71846  22867885.163    22867891.905
  20778507.913   -24057652.65049 -18729303.00348  20778506.999    20778511.985
  20208809.021   -24998103.95649 -19214143.17848  20208808.033    20208814.008
  23385163.819   -13624448.70349 -10150951.88646  23385162.459    23385166.670
  23403792.830    -8911754.99149  -6930088.25945  23403791.713    23403801.139
  21200351.833   -20146219.55449 -15674058.50247  21200351.092    21200357.294
  24457653.853    -6335390.52649  -4905747.03645  24457653.529    24457660.669
 04  7 23  3 10  0.0000000  0 10G10G31G29G26G28G 8G19G 7G27G13
  24267649.915    -5133817.91349  -3974543.66445  24267648.656    24267658.528
  21397900.507   -21581401.21749 -16503497.33947  21397899.513    21397906.393
  22408071.217   -15329858.90549 -11921660.66146  22408070.576    22408076.803
  22852350.202   -11442149.40349  -8600309.13846  22852349.778    22852356.463
  20773282.993   -24085109.82149 -18750698.17148  20773282.076    20773287.026
  20209796.516   -24992914.36849 -19210099.31848  20209795.530    20209801.519
  23398453.035   -13554613.42949 -10096534.74046  23398451.699    23398455.786
  23384478.471    -9013251.86849  -7009176.57645  23384477.423    23384486.771
  21207679.529   -20107712.35649 -15644052.88147  21207678.789    21207684.956
  24479573.745    -6220200.25649  -4815988.39745  24479573.424    24479580.781
 04  7 23  3 10 30.0000000  0 10G10G31G29G26G28G 8G19G 7G27G13
  24281203.722    -5062592.68649  -3919043.55645  24281202.432    24281212.312
  21381245.389   -21668923.99049 -16571696.82347  21381244.412    21381251.225
  22395008.037   -15398506.07449 -11975151.88346  22395007.409    22395013.615
  22836887.910   -11523403.69649  -8663624.07846  22836887.542    22836894.174
  20768122.437   -24112228.43549 -18771829.52348  20768121.519    20768126.418
  20210851.919   -24987367.88049 -19205777.35148  20210850.949    20210856.925
  23411822.407   -13484357.12749 -10041789.50846  23411820.994    23411825.023
  23365191.775    -9114603.52549  -7088151.74745  23365190.635    23365199.941
  21215065.201   -20068900.32049 -15613809.71447  21215064.447    21215070.605
  24501507.589    -6104936.16949  -4726172.24845  24501507.280    24501514.877
 04  7 23  3 11  0.0000000  0 10G10G31G29G26G28G 8G19G 7G27G13
  24294805.580    -4991114.97549  -3863346.72145  24294804.347    24294814.136
  21364669.071   -21756033.18949 -16639574.04047  21364668.068    21364674.792
  22382021.754   -15466749.15049 -12028328.24546  22382021.139    22382027.329
  22821499.237   -11604271.57149  -8726637.90746  22821498.815    22821505.533
  20763026.173   -24139009.46649 -18792697.82448  20763025.257    20763030.132
  20211975.412   -24981464.11149 -19201176.98148  20211974.421    20211980.348
  23425271.344   -13413682.53749  -9986718.31546  23425269.923    23425273.929
  23345933.125    -9215808.06049  -7167012.27745  23345931.938    23345941.158
  21222508.797   -20029783.72449 -15583329.21847  21222508.023    21222514.190
  24523454.917    -5989601.05349  -4636300.74945  24523454.656    24523462.629
 04  7 23  3 11 30.0000000  0 11G10G31G29G26G28G 8G19G 7G11G27G13
  24308454.681    -4919389.39649  -3807456.74045  24308453.478    24308463.076
  21348171.656   -21842727.74049 -16707128.15647  21348170.659    21348177.316
  22369112.514   -15534587.40049 -12081189.14746  22369111.926    22369118.059
  22806184.234   -11684752.14649  -8789349.95846  22806183.808    22806190.490
  20757993.774   -24165454.84149 -18813304.57848  20757992.841    20757997.711
  20213166.699   -24975203.75949 -19196298.75548  20213165.687    20213171.643
  23438798.997   -13342593.74049  -9931324.39646  23438797.628    23438801.635
  23326702.574    -9316864.76249  -7245757.61645  23326701.401    23326710.410
  24570717.038    -6902002.22849  -5172831.79145  24570716.127    24570723.803
  21230010.192   -19990363.68849 -15552612.27647  21230009.430    21230015.566
  24545414.930    -5874198.84649  -4546376.97445  24545414.783    24545422.907
 04  7 23  3 12  0.0000000  0 11G10G31G29G26G28G 8G19G 7G11G27G13
  24322150.617    -4847417.47149  -3751374.80045  24322149.335    24322158.843
  21331753.894   -21929003.10249 -16774355.63547  21331752.895    21331759.571
  22356281.053   -15602016.77349 -12133731.44946  22356280.479    22356286.595
  22790943.698   -11764841.20549  -8851756.93746  22790943.269    22790949.957
  20753025.498   -24191563.07249 -18833648.62048  20753024.590    20753029.457
  20214426.184   -24968584.83249 -19191141.12148  20214425.185    20214431.185
  23452405.546   -13271091.14949  -9875608.03846  23452404.178    23452408.116
  23307500.899    -9417769.54149  -7324384.57245  23307499.744    23307508.699
  24559451.771    -6961201.84449  -5218961.33045  24559450.786    24559458.502
  21237569.719   -19950638.19649 -15521657.32247  21237568.937    21237575.026
  24567387.725    -5758730.28349  -4456401.51245  24567387.581    24567396.018
 04  7 23  3 12 30.0000000  0 11G10G31G29G26G28G 8G19G 7G11G27G13
  24335892.925    -4775202.00449  -3695103.09645  24335891.622    24335901.135
  21315416.406   -22014856.21549 -16841254.08447  21315415.455    21315422.210
  22343527.967   -15669034.71249 -12185953.16146  22343527.348    22343533.464
  22775778.261   -11844535.64149  -8913856.41346  22775777.817    22775784.502
  20748121.363   -24217334.41649 -18853730.15548  20748120.435    20748125.322
  20215754.055   -24961606.63149 -19185703.53548  20215753.075    20215759.080
  23466090.426   -13199176.81549  -9819570.83346  23466088.994    23466092.854
  23288328.603    -9518519.60349  -7402890.98845  23288327.377    23288336.369
  24548231.336    -7020165.31849  -5264906.86845  24548230.334    24548238.052
  21245187.516   -19910606.54549 -15490463.80647  21245186.693    21245192.770
  24589372.709    -5643197.55049  -4366376.04245  24589372.730    24589381.164
 04  7 23  3 13  0.0000000  0 11G10G31G29G26G28G 8G19G 7G11G27G13
  24349681.145    -4702744.99549  -3638643.16845  24349679.657    24349689.232
  21299159.991   -22100283.43649 -16907820.67147  21299159.089    21299165.890
  22330853.685   -15735638.08349 -12237851.82746  22330853.082    22330859.190
  22760688.594   -11923832.10449  -8975645.78146  22760688.193    22760694.812
  20743281.392   -24242768.55249 -18873548.93148  20743280.446    20743285.350
  20217150.769   -24954266.68449 -19179984.07548  20217149.798    20217155.778
  23479853.260   -13126852.26349  -9763213.97646  23479851.827    23479855.736
  23269186.277    -9619111.91049  -7481274.48245  23269185.079    23269194.159
  24537056.439    -7078889.36649  -5310665.83445  24537055.520    24537062.870
  21252863.654   -19870267.74449 -15459030.95247  21252862.829    21252868.952
  24611369.920    -5527601.90449  -4276301.54345  24611370.003    24611378.173
 04  7 23  3 13 30.0000000  0 11G10G31G29G26G28G 8G19G 7G11G27G13
  24363514.298    -4630051.10049  -3581998.66845  24363512.781    24363522.379
  21282984.915   -22185283.63749 -16974054.50647  21282984.007    21282990.848
  22318258.548   -15801826.05449 -12289426.81346  22318257.922    22318264.009
  22745674.790   -12002729.59249  -9037124.25446  22745674.438    22745681.110
  20738505.161   -24267867.59449 -18893106.59448  20738504.242    20738509.128
  20218616.126   -24946566.38549 -19173983.81348  20218615.154    20218621.064
  23493693.442   -13054121.34949  -9706540.46746  23493692.006    23493695.906
  23250074.162    -9719545.48649  -7559534.29645  23250073.049    23250082.095
  24525927.201    -7137372.98449  -5356237.42245  24525926.295    24525933.776
  21260598.093   -19829622.72749 -15427359.48847  21260597.315    21260603.450
  24633378.414    -5411947.31849  -4186181.12545  24633378.457    24633386.355
 04  7 23  3 14  0.0000000  0 11G10G31G29G26G28G 8G19G 7G11G27G13
  24377392.005    -4557123.73649  -3525172.25245  24377390.623    24377400.114
  21266891.631   -22269854.54749 -17039953.83647  21266890.738    21266897.522
  22305742.685   -15867596.98249 -12340676.83446  22305742.086    22305748.133
  22730737.407   -12081226.02149  -9098290.22146  22730737.029    22730743.704
  20733792.606   -24292632.20649 -18912403.66248  20733791.685    20733796.570
  20220150.053   -24938505.60849 -19167702.66048  20220149.042    20220154.921
  23507610.406   -12980986.95349  -9649552.55946  23507608.931    23507612.898
  23230992.781    -9819818.45649  -7637668.95845  23230991.649    23231000.603
  24514844.431    -7195613.60549  -5401619.65745  24514843.537    24514851.129
  21268390.830   -19788671.56149 -15395449.47147  21268390.080    21268396.181
  24655397.593    -5296236.81349  -4096017.12245  24655397.533    24655405.141
 04  7 23  3 14 30.0000000  0 11G10G31G29G26G28G 8G19G 7G11G27G13
  24391313.783    -4483964.60749  -3468165.23045  24391312.506    24391321.784
  21250880.779   -22353991.75649 -17105515.20947  21250879.862    21250886.716
  22293307.001   -15932946.79749 -12391598.70946  22293306.395    22293312.432
  22715877.086   -12159317.11249  -9159140.32646  22715876.666    22715883.400
  20729143.847   -24317061.34149 -18931439.31948  20729142.943    20729147.825
  20221753.042   -24930081.66049 -19161138.50848  20221752.032    20221757.929
  23521603.950   -12907449.87949  -9592250.88746  23521602.504    23521606.399
  23211942.751    -9919926.92049  -7715675.44446  23211941.647    23211950.487
  24503808.678    -7253606.98949  -5446809.22145  24503807.767    24503815.502
  21276242.125   -19747412.60549 -15363299.60547  21276241.375    21276247.417
  24677427.305    -5180470.62549  -4005809.73745  24677427.342    24677434.775
 04  7 23  3 15  0.0000000  0 11G10G31G29G26G28G 8G19G 7G11G27G13
  24405278.820    -4410578.33049  -3410981.20745  24405277.378    24405287.000
  21234952.649   -22437694.29949 -17170737.88347  21234951.739    21234958.628
  22280951.538   -15997874.93949 -12442192.01346  22280950.939    22280956.990
  22701094.032   -12237002.04449  -9219673.94146  22701093.709    22701100.365
  20724558.545   -24341156.90649 -18950215.05448  20724557.647    20724562.562
  20223424.872   -24921295.71049 -19154292.27748  20223423.895    20223429.821
  23535673.470   -12833513.88249  -9534638.35646  23535672.013    23535675.893
  23192924.202   -10019870.02649  -7793553.08746  23192923.094    23192931.863
  24492820.105    -7311352.00249  -5491805.22845  24492819.334    24492826.782
  21284151.770   -19705847.01949 -15330910.81447  21284151.059    21284157.082
  24699466.644    -5064653.43249  -3915562.58345  24699466.565    24699474.227
 04  7 23  3 15 30.0000000  0 11G10G31G29G26G28G 8G19G 7G11G27G13
  24419286.709    -4336966.21849  -3353621.21145  24419285.380    24419295.083
  21219108.034   -22520957.73049 -17235618.38847  21219107.148    21219114.013
  22268677.020   -16062377.60249 -12492453.76946  22268676.446    22268682.475
  22686389.151   -12314276.60449  -9279887.79746  22686388.780    22686395.299
  20720036.989   -24364917.74849 -18968729.97048  20720036.088    20720040.979
  20225166.095   -24912145.48549 -19147162.19348  20225165.120    20225171.014
  23549818.776   -12759179.49949  -9476715.40546  23549817.351    23549821.237
  23173937.846   -10119643.81549  -7871298.79646  23173936.658    23173945.506
  24481879.502    -7368844.22149  -5536604.25645  24481878.769    24481886.258
  21292120.200   -19663972.62949 -15298281.38747  21292119.472    21292125.569
  24721515.670    -4948785.49149  -3825275.89045  24721515.531    24721523.210
 04  7 23  3 16  0.0000000  0 11G10G31G29G26G28G 8G19G 7G11G27G13
  24433336.878    -4263132.96849  -3296088.89745  24433335.493    24433345.253
  21203347.333   -22603780.84949 -17300155.80047  21203346.439    21203353.187
  22256483.707   -16126453.87649 -12542383.28446  22256483.108    22256489.115
  22671762.561   -12391139.65649  -9339780.98646  22671762.136    22671768.594
  20715578.765   -24388345.84949 -18986985.61048  20715577.854    20715582.733
  20226976.458   -24902631.94249 -19139748.99948  20226975.466    20226981.348
  23564039.065   -12684450.60549  -9418485.02946  23564037.667    23564041.639
  23154983.846   -10219247.26549  -7948911.79346  23154982.679    23154991.492
  24470987.375    -7426082.42449  -5581205.32145  24470986.738    24470994.128
  21300147.119   -19621790.87749 -15265412.46547  21300146.356    21300152.487
  24743573.650    -4832870.45149  -3734952.51745  24743573.401    24743581.237
 04  7 23  3 16 30.0000000  0 11G10G31G29G26G28G 8G19G 7G11G27G13
  24447428.570    -4189080.69549  -3238385.93345  24447427.218    24447437.074
  21187671.050   -22686160.11949 -17364347.34247  21187670.121    21187676.791
  22244372.028   -16190100.86149 -12591978.28346  22244371.452    22244377.401
  22657214.889   -12467587.70849  -9399350.80446  22657214.477    22657220.897
  20711183.953   -24411440.50649 -19004981.42648  20711183.046    20711187.929
  20228856.314   -24892753.05649 -19132051.12648  20228855.325    20228861.190
  23578334.202   -12609328.68749  -9359948.43546  23578332.820    23578336.752
  23136062.889   -10318677.20849  -8026389.58246  23136061.748    23136070.571
  24460144.390    -7483062.95749  -5625605.58745  24460143.615    24460151.085
  21308232.721   -19579300.34449 -15232302.92847  21308231.978    21308238.113
  24765640.306    -4716910.16649  -3644593.88045  24765639.993    24765647.811
 04  7 23  3 17  0.0000000  0 10G10G31G29G26G28G 8G19G 7G11G27
  24461561.523    -4114812.45649  -3180514.66545  24461560.244    24461569.946
  21172079.731   -22768092.80949 -17428190.91447  21172078.785    21172085.419
  22232342.566   -16253316.00049 -12641236.78946  22232341.960    22232347.906
  22642746.679   -12543618.42749  -9458595.41746  22642746.233    22642752.647
  20706852.502   -24434202.26849 -19022717.84748  20706851.605    20706856.448
  20230805.782   -24882508.52749 -19124068.33348  20230804.785    20230810.633
  23592703.742   -12533816.22249  -9301107.49046  23592702.342    23592706.220
  23117175.405   -10417931.32749  -8103730.36246  23117174.293    23117183.011
  24449350.635    -7539783.20349  -5669803.02245  24449350.017    24449357.474
  21316377.213   -19536500.77649 -15198952.58547  21316376.470    21316382.473
 04  7 23  3 17 30.0000000  0 10G10G31G29G26G28G 8G19G 7G11G27
  24475735.069    -4040330.43449  -3122476.80545  24475733.742    24475743.526
  21156573.970   -22849575.58849 -17491683.89147  21156573.029    21156579.758
  22220395.730   -16316096.57349 -12690156.65746  22220395.170    22220401.098
  22628358.498   -12619228.25849  -9517512.07546  22628358.114    22628364.490
  20702584.520   -24456630.80849 -19040194.61348  20702583.610    20702588.448
  20232825.074   -24871896.87949 -19115799.47148  20232824.067    20232829.898
  23607147.362   -12457914.76649  -9241963.44546  23607145.853    23607149.748
  23098322.050   -10517006.42949  -8180931.64446  23098320.905    23098329.540
  24438607.180    -7596239.91649  -5713795.08945  24438606.555    24438614.012
  21324580.745   -19493391.12649 -15165360.62847  21324579.961    21324585.899
